<?xml version="1.0" encoding="UTF-8" standalone="no" ?>
<gpx xmlns="http://www.topografix.com/GPX/1/1" xmlns:xsi="http://www.w3.org/2001/XMLSchema-instance" xsi:schemaLocation="http://www.topografix.com/GPX/1/1 http://www.topografix.com/GPX/1/1/gpx.xsd" version="1.1" creator="VisuGPX - https://www.visugpx.com">
  <metadata>
    <name>rando h Froger Trélazé</name>
    <desc><![CDATA[petite rando sympas pour rouler tranquil]]></desc>
  </metadata>
  <trk>
    <name><![CDATA[22-MARS-15 12:15:24]]></name>
    <trkseg>
      <trkpt lat="47.44843" lon="-0.5023">
        <ele>24.17</ele>
        <time>2015-03-22T07:52:57Z</time>
      </trkpt>
      <trkpt lat="47.44841" lon="-0.50231">
        <ele>32.82</ele>
        <time>2015-03-22T07:52:58Z</time>
      </trkpt>
      <trkpt lat="47.4484" lon="-0.50232">
        <ele>27.53</ele>
        <time>2015-03-22T07:52:59Z</time>
      </trkpt>
      <trkpt lat="47.44834" lon="-0.50235">
        <ele>28.98</ele>
        <time>2015-03-22T07:53:02Z</time>
      </trkpt>
      <trkpt lat="47.44806" lon="-0.5025">
        <ele>28.98</ele>
        <time>2015-03-22T07:53:15Z</time>
      </trkpt>
      <trkpt lat="47.44772" lon="-0.50269">
        <ele>28.98</ele>
        <time>2015-03-22T07:53:30Z</time>
      </trkpt>
      <trkpt lat="47.44725" lon="-0.50296">
        <ele>29.46</ele>
        <time>2015-03-22T07:53:46Z</time>
      </trkpt>
      <trkpt lat="47.44695" lon="-0.50312">
        <ele>29.94</ele>
        <time>2015-03-22T07:53:58Z</time>
      </trkpt>
      <trkpt lat="47.4468" lon="-0.50319">
        <ele>29.46</ele>
        <time>2015-03-22T07:54:04Z</time>
      </trkpt>
      <trkpt lat="47.44681" lon="-0.50317">
        <ele>29.94</ele>
        <time>2015-03-22T07:54:05Z</time>
      </trkpt>
      <trkpt lat="47.44683" lon="-0.50316">
        <ele>30.42</ele>
        <time>2015-03-22T07:54:06Z</time>
      </trkpt>
      <trkpt lat="47.44686" lon="-0.50314">
        <ele>29.94</ele>
        <time>2015-03-22T07:54:07Z</time>
      </trkpt>
      <trkpt lat="47.4469" lon="-0.50313">
        <ele>30.42</ele>
        <time>2015-03-22T07:54:08Z</time>
      </trkpt>
      <trkpt lat="47.44755" lon="-0.50278">
        <ele>29.94</ele>
        <time>2015-03-22T07:54:22Z</time>
      </trkpt>
      <trkpt lat="47.44778" lon="-0.50268">
        <ele>28.98</ele>
        <time>2015-03-22T07:54:27Z</time>
      </trkpt>
      <trkpt lat="47.44786" lon="-0.50265">
        <ele>28.98</ele>
        <time>2015-03-22T07:54:29Z</time>
      </trkpt>
      <trkpt lat="47.44845" lon="-0.50231">
        <ele>28.98</ele>
        <time>2015-03-22T07:54:45Z</time>
      </trkpt>
      <trkpt lat="47.4487" lon="-0.50218">
        <ele>28.98</ele>
        <time>2015-03-22T07:54:52Z</time>
      </trkpt>
      <trkpt lat="47.44871" lon="-0.50215">
        <ele>28.98</ele>
        <time>2015-03-22T07:54:53Z</time>
      </trkpt>
      <trkpt lat="47.44871" lon="-0.50201">
        <ele>28.98</ele>
        <time>2015-03-22T07:55:01Z</time>
      </trkpt>
      <trkpt lat="47.4487" lon="-0.5019">
        <ele>29.46</ele>
        <time>2015-03-22T07:55:06Z</time>
      </trkpt>
      <trkpt lat="47.44865" lon="-0.50134">
        <ele>29.46</ele>
        <time>2015-03-22T07:55:20Z</time>
      </trkpt>
      <trkpt lat="47.44857" lon="-0.50106">
        <ele>29.46</ele>
        <time>2015-03-22T07:55:27Z</time>
      </trkpt>
      <trkpt lat="47.44857" lon="-0.50077">
        <ele>28.98</ele>
        <time>2015-03-22T07:55:33Z</time>
      </trkpt>
      <trkpt lat="47.44813" lon="-0.50039">
        <ele>28.98</ele>
        <time>2015-03-22T07:55:48Z</time>
      </trkpt>
      <trkpt lat="47.44796" lon="-0.50012">
        <ele>29.46</ele>
        <time>2015-03-22T07:55:57Z</time>
      </trkpt>
      <trkpt lat="47.44793" lon="-0.50012">
        <ele>29.46</ele>
        <time>2015-03-22T07:55:58Z</time>
      </trkpt>
      <trkpt lat="47.44792" lon="-0.50015">
        <ele>28.98</ele>
        <time>2015-03-22T07:55:59Z</time>
      </trkpt>
      <trkpt lat="47.44792" lon="-0.50018">
        <ele>28.98</ele>
        <time>2015-03-22T07:56:00Z</time>
      </trkpt>
      <trkpt lat="47.44795" lon="-0.50021">
        <ele>29.46</ele>
        <time>2015-03-22T07:56:01Z</time>
      </trkpt>
      <trkpt lat="47.44798" lon="-0.50023">
        <ele>29.46</ele>
        <time>2015-03-22T07:56:02Z</time>
      </trkpt>
      <trkpt lat="47.44811" lon="-0.50033">
        <ele>28.98</ele>
        <time>2015-03-22T07:56:12Z</time>
      </trkpt>
      <trkpt lat="47.44826" lon="-0.50024">
        <ele>28.98</ele>
        <time>2015-03-22T07:56:41Z</time>
      </trkpt>
      <trkpt lat="47.44847" lon="-0.50018">
        <ele>29.46</ele>
        <time>2015-03-22T07:57:07Z</time>
      </trkpt>
      <trkpt lat="47.44836" lon="-0.50016">
        <ele>29.94</ele>
        <time>2015-03-22T07:57:18Z</time>
      </trkpt>
      <trkpt lat="47.44832" lon="-0.50017">
        <ele>29.46</ele>
        <time>2015-03-22T07:57:32Z</time>
      </trkpt>
      <trkpt lat="47.4483" lon="-0.50014">
        <ele>29.46</ele>
        <time>2015-03-22T07:57:33Z</time>
      </trkpt>
      <trkpt lat="47.44827" lon="-0.50012">
        <ele>29.46</ele>
        <time>2015-03-22T07:57:34Z</time>
      </trkpt>
      <trkpt lat="47.44787" lon="-0.49982">
        <ele>30.42</ele>
        <time>2015-03-22T07:57:46Z</time>
      </trkpt>
      <trkpt lat="47.44784" lon="-0.49978">
        <ele>29.94</ele>
        <time>2015-03-22T07:57:47Z</time>
      </trkpt>
      <trkpt lat="47.44776" lon="-0.49973">
        <ele>29.94</ele>
        <time>2015-03-22T07:57:49Z</time>
      </trkpt>
      <trkpt lat="47.44771" lon="-0.49971">
        <ele>30.42</ele>
        <time>2015-03-22T07:57:50Z</time>
      </trkpt>
      <trkpt lat="47.44766" lon="-0.49971">
        <ele>30.42</ele>
        <time>2015-03-22T07:57:51Z</time>
      </trkpt>
      <trkpt lat="47.44761" lon="-0.4997">
        <ele>30.42</ele>
        <time>2015-03-22T07:57:52Z</time>
      </trkpt>
      <trkpt lat="47.44754" lon="-0.49968">
        <ele>30.42</ele>
        <time>2015-03-22T07:57:54Z</time>
      </trkpt>
      <trkpt lat="47.44739" lon="-0.49956">
        <ele>30.42</ele>
        <time>2015-03-22T07:57:58Z</time>
      </trkpt>
      <trkpt lat="47.44716" lon="-0.49923">
        <ele>30.42</ele>
        <time>2015-03-22T07:58:05Z</time>
      </trkpt>
      <trkpt lat="47.44687" lon="-0.49844">
        <ele>29.94</ele>
        <time>2015-03-22T07:58:20Z</time>
      </trkpt>
      <trkpt lat="47.44682" lon="-0.49834">
        <ele>30.42</ele>
        <time>2015-03-22T07:58:22Z</time>
      </trkpt>
      <trkpt lat="47.44666" lon="-0.49761">
        <ele>30.9</ele>
        <time>2015-03-22T07:58:33Z</time>
      </trkpt>
      <trkpt lat="47.44656" lon="-0.49716">
        <ele>30.42</ele>
        <time>2015-03-22T07:58:40Z</time>
      </trkpt>
      <trkpt lat="47.44633" lon="-0.49615">
        <ele>30.9</ele>
        <time>2015-03-22T07:58:55Z</time>
      </trkpt>
      <trkpt lat="47.44591" lon="-0.4948">
        <ele>31.38</ele>
        <time>2015-03-22T07:59:13Z</time>
      </trkpt>
      <trkpt lat="47.44591" lon="-0.49473">
        <ele>31.38</ele>
        <time>2015-03-22T07:59:14Z</time>
      </trkpt>
      <trkpt lat="47.4459" lon="-0.49466">
        <ele>31.38</ele>
        <time>2015-03-22T07:59:15Z</time>
      </trkpt>
      <trkpt lat="47.4459" lon="-0.49364">
        <ele>30.9</ele>
        <time>2015-03-22T07:59:30Z</time>
      </trkpt>
      <trkpt lat="47.4459" lon="-0.49344">
        <ele>31.38</ele>
        <time>2015-03-22T07:59:33Z</time>
      </trkpt>
      <trkpt lat="47.44591" lon="-0.49338">
        <ele>30.9</ele>
        <time>2015-03-22T07:59:34Z</time>
      </trkpt>
      <trkpt lat="47.44592" lon="-0.49332">
        <ele>31.38</ele>
        <time>2015-03-22T07:59:35Z</time>
      </trkpt>
      <trkpt lat="47.44593" lon="-0.49326">
        <ele>31.38</ele>
        <time>2015-03-22T07:59:36Z</time>
      </trkpt>
      <trkpt lat="47.44594" lon="-0.4932">
        <ele>31.38</ele>
        <time>2015-03-22T07:59:37Z</time>
      </trkpt>
      <trkpt lat="47.44595" lon="-0.49314">
        <ele>30.9</ele>
        <time>2015-03-22T07:59:38Z</time>
      </trkpt>
      <trkpt lat="47.44596" lon="-0.49307">
        <ele>31.38</ele>
        <time>2015-03-22T07:59:39Z</time>
      </trkpt>
      <trkpt lat="47.44597" lon="-0.493">
        <ele>32.34</ele>
        <time>2015-03-22T07:59:40Z</time>
      </trkpt>
      <trkpt lat="47.44598" lon="-0.49295">
        <ele>30.9</ele>
        <time>2015-03-22T07:59:41Z</time>
      </trkpt>
      <trkpt lat="47.44601" lon="-0.49291">
        <ele>30.9</ele>
        <time>2015-03-22T07:59:42Z</time>
      </trkpt>
      <trkpt lat="47.44604" lon="-0.49288">
        <ele>30.42</ele>
        <time>2015-03-22T07:59:43Z</time>
      </trkpt>
      <trkpt lat="47.44608" lon="-0.49286">
        <ele>30.42</ele>
        <time>2015-03-22T07:59:44Z</time>
      </trkpt>
      <trkpt lat="47.44612" lon="-0.49285">
        <ele>30.9</ele>
        <time>2015-03-22T07:59:45Z</time>
      </trkpt>
      <trkpt lat="47.44616" lon="-0.49285">
        <ele>30.42</ele>
        <time>2015-03-22T07:59:46Z</time>
      </trkpt>
      <trkpt lat="47.44634" lon="-0.49283">
        <ele>29.94</ele>
        <time>2015-03-22T07:59:50Z</time>
      </trkpt>
      <trkpt lat="47.44643" lon="-0.49281">
        <ele>29.94</ele>
        <time>2015-03-22T07:59:52Z</time>
      </trkpt>
      <trkpt lat="47.44726" lon="-0.49277">
        <ele>31.38</ele>
        <time>2015-03-22T08:00:11Z</time>
      </trkpt>
      <trkpt lat="47.4473" lon="-0.49274">
        <ele>31.38</ele>
        <time>2015-03-22T08:00:12Z</time>
      </trkpt>
      <trkpt lat="47.44732" lon="-0.49269">
        <ele>31.86</ele>
        <time>2015-03-22T08:00:13Z</time>
      </trkpt>
      <trkpt lat="47.44733" lon="-0.49262">
        <ele>31.86</ele>
        <time>2015-03-22T08:00:14Z</time>
      </trkpt>
      <trkpt lat="47.44732" lon="-0.49256">
        <ele>31.86</ele>
        <time>2015-03-22T08:00:15Z</time>
      </trkpt>
      <trkpt lat="47.44731" lon="-0.4925">
        <ele>31.86</ele>
        <time>2015-03-22T08:00:16Z</time>
      </trkpt>
      <trkpt lat="47.44722" lon="-0.49147">
        <ele>29.46</ele>
        <time>2015-03-22T08:00:30Z</time>
      </trkpt>
      <trkpt lat="47.44724" lon="-0.4911">
        <ele>28.98</ele>
        <time>2015-03-22T08:00:35Z</time>
      </trkpt>
      <trkpt lat="47.44724" lon="-0.49103">
        <ele>28.98</ele>
        <time>2015-03-22T08:00:36Z</time>
      </trkpt>
      <trkpt lat="47.44724" lon="-0.49097">
        <ele>28.98</ele>
        <time>2015-03-22T08:00:37Z</time>
      </trkpt>
      <trkpt lat="47.44723" lon="-0.4909">
        <ele>28.98</ele>
        <time>2015-03-22T08:00:38Z</time>
      </trkpt>
      <trkpt lat="47.44721" lon="-0.49084">
        <ele>28.98</ele>
        <time>2015-03-22T08:00:39Z</time>
      </trkpt>
      <trkpt lat="47.44711" lon="-0.4904">
        <ele>29.46</ele>
        <time>2015-03-22T08:00:46Z</time>
      </trkpt>
      <trkpt lat="47.4471" lon="-0.49034">
        <ele>29.94</ele>
        <time>2015-03-22T08:00:47Z</time>
      </trkpt>
      <trkpt lat="47.44709" lon="-0.49028">
        <ele>29.46</ele>
        <time>2015-03-22T08:00:48Z</time>
      </trkpt>
      <trkpt lat="47.44697" lon="-0.48974">
        <ele>29.94</ele>
        <time>2015-03-22T08:00:57Z</time>
      </trkpt>
      <trkpt lat="47.44694" lon="-0.48971">
        <ele>29.94</ele>
        <time>2015-03-22T08:00:58Z</time>
      </trkpt>
      <trkpt lat="47.4469" lon="-0.48971">
        <ele>29.94</ele>
        <time>2015-03-22T08:00:59Z</time>
      </trkpt>
      <trkpt lat="47.44681" lon="-0.48971">
        <ele>29.46</ele>
        <time>2015-03-22T08:01:01Z</time>
      </trkpt>
      <trkpt lat="47.44665" lon="-0.48935">
        <ele>29.94</ele>
        <time>2015-03-22T08:01:09Z</time>
      </trkpt>
      <trkpt lat="47.44664" lon="-0.48929">
        <ele>29.94</ele>
        <time>2015-03-22T08:01:10Z</time>
      </trkpt>
      <trkpt lat="47.44663" lon="-0.48923">
        <ele>30.42</ele>
        <time>2015-03-22T08:01:11Z</time>
      </trkpt>
      <trkpt lat="47.44661" lon="-0.48918">
        <ele>30.42</ele>
        <time>2015-03-22T08:01:12Z</time>
      </trkpt>
      <trkpt lat="47.44659" lon="-0.48913">
        <ele>30.42</ele>
        <time>2015-03-22T08:01:13Z</time>
      </trkpt>
      <trkpt lat="47.44658" lon="-0.48908">
        <ele>30.42</ele>
        <time>2015-03-22T08:01:14Z</time>
      </trkpt>
      <trkpt lat="47.44656" lon="-0.48902">
        <ele>30.9</ele>
        <time>2015-03-22T08:01:15Z</time>
      </trkpt>
      <trkpt lat="47.44655" lon="-0.48897">
        <ele>30.42</ele>
        <time>2015-03-22T08:01:16Z</time>
      </trkpt>
      <trkpt lat="47.44654" lon="-0.48892">
        <ele>30.42</ele>
        <time>2015-03-22T08:01:17Z</time>
      </trkpt>
      <trkpt lat="47.4465" lon="-0.48878">
        <ele>30.42</ele>
        <time>2015-03-22T08:01:20Z</time>
      </trkpt>
      <trkpt lat="47.4464" lon="-0.48849">
        <ele>29.94</ele>
        <time>2015-03-22T08:01:26Z</time>
      </trkpt>
      <trkpt lat="47.4464" lon="-0.48844">
        <ele>29.94</ele>
        <time>2015-03-22T08:01:27Z</time>
      </trkpt>
      <trkpt lat="47.44639" lon="-0.48842">
        <ele>29.94</ele>
        <time>2015-03-22T08:01:28Z</time>
      </trkpt>
      <trkpt lat="47.44638" lon="-0.4884">
        <ele>29.94</ele>
        <time>2015-03-22T08:01:29Z</time>
      </trkpt>
      <trkpt lat="47.44637" lon="-0.48838">
        <ele>29.94</ele>
        <time>2015-03-22T08:01:30Z</time>
      </trkpt>
      <trkpt lat="47.44635" lon="-0.48836">
        <ele>29.94</ele>
        <time>2015-03-22T08:01:31Z</time>
      </trkpt>
      <trkpt lat="47.44634" lon="-0.48832">
        <ele>29.46</ele>
        <time>2015-03-22T08:01:32Z</time>
      </trkpt>
      <trkpt lat="47.44633" lon="-0.48827">
        <ele>29.94</ele>
        <time>2015-03-22T08:01:33Z</time>
      </trkpt>
      <trkpt lat="47.44632" lon="-0.48823">
        <ele>29.94</ele>
        <time>2015-03-22T08:01:34Z</time>
      </trkpt>
      <trkpt lat="47.4463" lon="-0.48819">
        <ele>29.94</ele>
        <time>2015-03-22T08:01:35Z</time>
      </trkpt>
      <trkpt lat="47.44629" lon="-0.48814">
        <ele>29.94</ele>
        <time>2015-03-22T08:01:36Z</time>
      </trkpt>
      <trkpt lat="47.44628" lon="-0.48808">
        <ele>29.46</ele>
        <time>2015-03-22T08:01:37Z</time>
      </trkpt>
      <trkpt lat="47.44627" lon="-0.48795">
        <ele>29.46</ele>
        <time>2015-03-22T08:01:39Z</time>
      </trkpt>
      <trkpt lat="47.44625" lon="-0.48788">
        <ele>29.46</ele>
        <time>2015-03-22T08:01:40Z</time>
      </trkpt>
      <trkpt lat="47.44623" lon="-0.48781">
        <ele>28.98</ele>
        <time>2015-03-22T08:01:41Z</time>
      </trkpt>
      <trkpt lat="47.44623" lon="-0.48775">
        <ele>29.94</ele>
        <time>2015-03-22T08:01:42Z</time>
      </trkpt>
      <trkpt lat="47.44623" lon="-0.48769">
        <ele>29.46</ele>
        <time>2015-03-22T08:01:43Z</time>
      </trkpt>
      <trkpt lat="47.44623" lon="-0.48764">
        <ele>29.46</ele>
        <time>2015-03-22T08:01:44Z</time>
      </trkpt>
      <trkpt lat="47.44622" lon="-0.48759">
        <ele>29.94</ele>
        <time>2015-03-22T08:01:45Z</time>
      </trkpt>
      <trkpt lat="47.44622" lon="-0.48755">
        <ele>29.94</ele>
        <time>2015-03-22T08:01:46Z</time>
      </trkpt>
      <trkpt lat="47.44622" lon="-0.48752">
        <ele>29.46</ele>
        <time>2015-03-22T08:01:47Z</time>
      </trkpt>
      <trkpt lat="47.44622" lon="-0.48749">
        <ele>29.94</ele>
        <time>2015-03-22T08:01:48Z</time>
      </trkpt>
      <trkpt lat="47.4462" lon="-0.48746">
        <ele>29.94</ele>
        <time>2015-03-22T08:01:49Z</time>
      </trkpt>
      <trkpt lat="47.44619" lon="-0.48743">
        <ele>29.94</ele>
        <time>2015-03-22T08:01:50Z</time>
      </trkpt>
      <trkpt lat="47.44617" lon="-0.48739">
        <ele>29.94</ele>
        <time>2015-03-22T08:01:51Z</time>
      </trkpt>
      <trkpt lat="47.44609" lon="-0.48725">
        <ele>28.5</ele>
        <time>2015-03-22T08:01:57Z</time>
      </trkpt>
      <trkpt lat="47.44607" lon="-0.48726">
        <ele>28.98</ele>
        <time>2015-03-22T08:01:58Z</time>
      </trkpt>
      <trkpt lat="47.44605" lon="-0.48727">
        <ele>28.98</ele>
        <time>2015-03-22T08:01:59Z</time>
      </trkpt>
      <trkpt lat="47.44559" lon="-0.48749">
        <ele>28.98</ele>
        <time>2015-03-22T08:02:12Z</time>
      </trkpt>
      <trkpt lat="47.44552" lon="-0.48748">
        <ele>28.98</ele>
        <time>2015-03-22T08:02:14Z</time>
      </trkpt>
      <trkpt lat="47.44548" lon="-0.48745">
        <ele>28.98</ele>
        <time>2015-03-22T08:02:15Z</time>
      </trkpt>
      <trkpt lat="47.44546" lon="-0.4874">
        <ele>28.98</ele>
        <time>2015-03-22T08:02:16Z</time>
      </trkpt>
      <trkpt lat="47.44543" lon="-0.48735">
        <ele>28.98</ele>
        <time>2015-03-22T08:02:17Z</time>
      </trkpt>
      <trkpt lat="47.44542" lon="-0.48729">
        <ele>28.98</ele>
        <time>2015-03-22T08:02:18Z</time>
      </trkpt>
      <trkpt lat="47.4454" lon="-0.48723">
        <ele>28.98</ele>
        <time>2015-03-22T08:02:19Z</time>
      </trkpt>
      <trkpt lat="47.44539" lon="-0.48717">
        <ele>28.5</ele>
        <time>2015-03-22T08:02:20Z</time>
      </trkpt>
      <trkpt lat="47.44537" lon="-0.48712">
        <ele>28.98</ele>
        <time>2015-03-22T08:02:21Z</time>
      </trkpt>
      <trkpt lat="47.4451" lon="-0.4865">
        <ele>28.5</ele>
        <time>2015-03-22T08:02:34Z</time>
      </trkpt>
      <trkpt lat="47.44504" lon="-0.48634">
        <ele>28.5</ele>
        <time>2015-03-22T08:02:37Z</time>
      </trkpt>
      <trkpt lat="47.44502" lon="-0.48628">
        <ele>28.5</ele>
        <time>2015-03-22T08:02:38Z</time>
      </trkpt>
      <trkpt lat="47.44491" lon="-0.48601">
        <ele>28.98</ele>
        <time>2015-03-22T08:02:43Z</time>
      </trkpt>
      <trkpt lat="47.44489" lon="-0.48592">
        <ele>28.5</ele>
        <time>2015-03-22T08:02:45Z</time>
      </trkpt>
      <trkpt lat="47.4449" lon="-0.48588">
        <ele>28.5</ele>
        <time>2015-03-22T08:02:46Z</time>
      </trkpt>
      <trkpt lat="47.44492" lon="-0.48583">
        <ele>28.02</ele>
        <time>2015-03-22T08:02:47Z</time>
      </trkpt>
      <trkpt lat="47.44494" lon="-0.48579">
        <ele>28.02</ele>
        <time>2015-03-22T08:02:48Z</time>
      </trkpt>
      <trkpt lat="47.44497" lon="-0.48576">
        <ele>28.5</ele>
        <time>2015-03-22T08:02:49Z</time>
      </trkpt>
      <trkpt lat="47.44501" lon="-0.48574">
        <ele>28.5</ele>
        <time>2015-03-22T08:02:50Z</time>
      </trkpt>
      <trkpt lat="47.44505" lon="-0.48572">
        <ele>28.5</ele>
        <time>2015-03-22T08:02:51Z</time>
      </trkpt>
      <trkpt lat="47.44542" lon="-0.48546">
        <ele>28.02</ele>
        <time>2015-03-22T08:03:00Z</time>
      </trkpt>
      <trkpt lat="47.44573" lon="-0.48527">
        <ele>28.5</ele>
        <time>2015-03-22T08:03:07Z</time>
      </trkpt>
      <trkpt lat="47.44592" lon="-0.48511">
        <ele>28.5</ele>
        <time>2015-03-22T08:03:12Z</time>
      </trkpt>
      <trkpt lat="47.44596" lon="-0.48508">
        <ele>28.5</ele>
        <time>2015-03-22T08:03:13Z</time>
      </trkpt>
      <trkpt lat="47.44601" lon="-0.48505">
        <ele>28.98</ele>
        <time>2015-03-22T08:03:14Z</time>
      </trkpt>
      <trkpt lat="47.44631" lon="-0.48494">
        <ele>28.98</ele>
        <time>2015-03-22T08:03:21Z</time>
      </trkpt>
      <trkpt lat="47.44695" lon="-0.48502">
        <ele>29.46</ele>
        <time>2015-03-22T08:03:35Z</time>
      </trkpt>
      <trkpt lat="47.44712" lon="-0.48516">
        <ele>30.42</ele>
        <time>2015-03-22T08:03:40Z</time>
      </trkpt>
      <trkpt lat="47.44732" lon="-0.48528">
        <ele>31.38</ele>
        <time>2015-03-22T08:03:46Z</time>
      </trkpt>
      <trkpt lat="47.44735" lon="-0.48524">
        <ele>31.38</ele>
        <time>2015-03-22T08:03:47Z</time>
      </trkpt>
      <trkpt lat="47.44737" lon="-0.48519">
        <ele>31.86</ele>
        <time>2015-03-22T08:03:48Z</time>
      </trkpt>
      <trkpt lat="47.44738" lon="-0.48513">
        <ele>31.86</ele>
        <time>2015-03-22T08:03:49Z</time>
      </trkpt>
      <trkpt lat="47.44739" lon="-0.48507">
        <ele>31.38</ele>
        <time>2015-03-22T08:03:50Z</time>
      </trkpt>
      <trkpt lat="47.4474" lon="-0.48501">
        <ele>32.34</ele>
        <time>2015-03-22T08:03:51Z</time>
      </trkpt>
      <trkpt lat="47.44742" lon="-0.48496">
        <ele>32.82</ele>
        <time>2015-03-22T08:03:52Z</time>
      </trkpt>
      <trkpt lat="47.44744" lon="-0.48492">
        <ele>32.82</ele>
        <time>2015-03-22T08:03:53Z</time>
      </trkpt>
      <trkpt lat="47.44747" lon="-0.48489">
        <ele>32.82</ele>
        <time>2015-03-22T08:03:54Z</time>
      </trkpt>
      <trkpt lat="47.4475" lon="-0.48487">
        <ele>32.82</ele>
        <time>2015-03-22T08:03:55Z</time>
      </trkpt>
      <trkpt lat="47.44754" lon="-0.48485">
        <ele>33.3</ele>
        <time>2015-03-22T08:03:56Z</time>
      </trkpt>
      <trkpt lat="47.44756" lon="-0.48481">
        <ele>33.3</ele>
        <time>2015-03-22T08:03:57Z</time>
      </trkpt>
      <trkpt lat="47.44757" lon="-0.48476">
        <ele>32.82</ele>
        <time>2015-03-22T08:03:58Z</time>
      </trkpt>
      <trkpt lat="47.44757" lon="-0.4847">
        <ele>32.82</ele>
        <time>2015-03-22T08:03:59Z</time>
      </trkpt>
      <trkpt lat="47.44756" lon="-0.48465">
        <ele>33.3</ele>
        <time>2015-03-22T08:04:00Z</time>
      </trkpt>
      <trkpt lat="47.44754" lon="-0.48459">
        <ele>33.78</ele>
        <time>2015-03-22T08:04:01Z</time>
      </trkpt>
      <trkpt lat="47.44748" lon="-0.48444">
        <ele>33.78</ele>
        <time>2015-03-22T08:04:04Z</time>
      </trkpt>
      <trkpt lat="47.44713" lon="-0.48362">
        <ele>33.78</ele>
        <time>2015-03-22T08:04:20Z</time>
      </trkpt>
      <trkpt lat="47.44699" lon="-0.48333">
        <ele>33.78</ele>
        <time>2015-03-22T08:04:25Z</time>
      </trkpt>
      <trkpt lat="47.44695" lon="-0.48328">
        <ele>33.78</ele>
        <time>2015-03-22T08:04:26Z</time>
      </trkpt>
      <trkpt lat="47.44691" lon="-0.48323">
        <ele>33.78</ele>
        <time>2015-03-22T08:04:27Z</time>
      </trkpt>
      <trkpt lat="47.44686" lon="-0.48319">
        <ele>33.3</ele>
        <time>2015-03-22T08:04:28Z</time>
      </trkpt>
      <trkpt lat="47.44681" lon="-0.48317">
        <ele>33.78</ele>
        <time>2015-03-22T08:04:29Z</time>
      </trkpt>
      <trkpt lat="47.44675" lon="-0.48318">
        <ele>32.82</ele>
        <time>2015-03-22T08:04:30Z</time>
      </trkpt>
      <trkpt lat="47.44669" lon="-0.4832">
        <ele>32.34</ele>
        <time>2015-03-22T08:04:31Z</time>
      </trkpt>
      <trkpt lat="47.44589" lon="-0.48348">
        <ele>29.94</ele>
        <time>2015-03-22T08:04:43Z</time>
      </trkpt>
      <trkpt lat="47.44567" lon="-0.48347">
        <ele>29.46</ele>
        <time>2015-03-22T08:04:46Z</time>
      </trkpt>
      <trkpt lat="47.4456" lon="-0.48345">
        <ele>28.98</ele>
        <time>2015-03-22T08:04:47Z</time>
      </trkpt>
      <trkpt lat="47.44553" lon="-0.48341">
        <ele>29.46</ele>
        <time>2015-03-22T08:04:48Z</time>
      </trkpt>
      <trkpt lat="47.44547" lon="-0.48338">
        <ele>28.98</ele>
        <time>2015-03-22T08:04:49Z</time>
      </trkpt>
      <trkpt lat="47.4454" lon="-0.48333">
        <ele>28.5</ele>
        <time>2015-03-22T08:04:50Z</time>
      </trkpt>
      <trkpt lat="47.44476" lon="-0.48288">
        <ele>28.02</ele>
        <time>2015-03-22T08:05:01Z</time>
      </trkpt>
      <trkpt lat="47.44453" lon="-0.48279">
        <ele>27.53</ele>
        <time>2015-03-22T08:05:05Z</time>
      </trkpt>
      <trkpt lat="47.44435" lon="-0.48276">
        <ele>27.53</ele>
        <time>2015-03-22T08:05:08Z</time>
      </trkpt>
      <trkpt lat="47.44429" lon="-0.48275">
        <ele>28.02</ele>
        <time>2015-03-22T08:05:09Z</time>
      </trkpt>
      <trkpt lat="47.44418" lon="-0.48272">
        <ele>28.02</ele>
        <time>2015-03-22T08:05:11Z</time>
      </trkpt>
      <trkpt lat="47.44413" lon="-0.48268">
        <ele>27.53</ele>
        <time>2015-03-22T08:05:12Z</time>
      </trkpt>
      <trkpt lat="47.44408" lon="-0.48263">
        <ele>27.53</ele>
        <time>2015-03-22T08:05:13Z</time>
      </trkpt>
      <trkpt lat="47.44403" lon="-0.48258">
        <ele>27.53</ele>
        <time>2015-03-22T08:05:14Z</time>
      </trkpt>
      <trkpt lat="47.44398" lon="-0.48253">
        <ele>27.53</ele>
        <time>2015-03-22T08:05:15Z</time>
      </trkpt>
      <trkpt lat="47.44367" lon="-0.48219">
        <ele>28.98</ele>
        <time>2015-03-22T08:05:22Z</time>
      </trkpt>
      <trkpt lat="47.44324" lon="-0.48132">
        <ele>28.5</ele>
        <time>2015-03-22T08:05:36Z</time>
      </trkpt>
      <trkpt lat="47.44321" lon="-0.48127">
        <ele>28.5</ele>
        <time>2015-03-22T08:05:37Z</time>
      </trkpt>
      <trkpt lat="47.44319" lon="-0.48121">
        <ele>28.5</ele>
        <time>2015-03-22T08:05:39Z</time>
      </trkpt>
      <trkpt lat="47.44319" lon="-0.48119">
        <ele>28.5</ele>
        <time>2015-03-22T08:05:40Z</time>
      </trkpt>
      <trkpt lat="47.4432" lon="-0.48119">
        <ele>28.02</ele>
        <time>2015-03-22T08:05:41Z</time>
      </trkpt>
      <trkpt lat="47.44321" lon="-0.48118">
        <ele>28.02</ele>
        <time>2015-03-22T08:05:42Z</time>
      </trkpt>
      <trkpt lat="47.44322" lon="-0.48118">
        <ele>28.5</ele>
        <time>2015-03-22T08:05:43Z</time>
      </trkpt>
      <trkpt lat="47.44324" lon="-0.48118">
        <ele>28.5</ele>
        <time>2015-03-22T08:05:44Z</time>
      </trkpt>
      <trkpt lat="47.44326" lon="-0.48117">
        <ele>28.02</ele>
        <time>2015-03-22T08:05:45Z</time>
      </trkpt>
      <trkpt lat="47.44327" lon="-0.48115">
        <ele>28.98</ele>
        <time>2015-03-22T08:05:46Z</time>
      </trkpt>
      <trkpt lat="47.44329" lon="-0.48114">
        <ele>29.46</ele>
        <time>2015-03-22T08:05:47Z</time>
      </trkpt>
      <trkpt lat="47.44331" lon="-0.48113">
        <ele>29.46</ele>
        <time>2015-03-22T08:05:57Z</time>
      </trkpt>
      <trkpt lat="47.44338" lon="-0.48106">
        <ele>29.94</ele>
        <time>2015-03-22T08:06:08Z</time>
      </trkpt>
      <trkpt lat="47.44362" lon="-0.48087">
        <ele>31.86</ele>
        <time>2015-03-22T08:06:18Z</time>
      </trkpt>
      <trkpt lat="47.44366" lon="-0.48084">
        <ele>32.34</ele>
        <time>2015-03-22T08:06:19Z</time>
      </trkpt>
      <trkpt lat="47.4437" lon="-0.48083">
        <ele>32.82</ele>
        <time>2015-03-22T08:06:20Z</time>
      </trkpt>
      <trkpt lat="47.44374" lon="-0.48081">
        <ele>32.82</ele>
        <time>2015-03-22T08:06:21Z</time>
      </trkpt>
      <trkpt lat="47.44383" lon="-0.48071">
        <ele>33.78</ele>
        <time>2015-03-22T08:06:24Z</time>
      </trkpt>
      <trkpt lat="47.44388" lon="-0.48021">
        <ele>36.67</ele>
        <time>2015-03-22T08:06:36Z</time>
      </trkpt>
      <trkpt lat="47.4437" lon="-0.48007">
        <ele>36.19</ele>
        <time>2015-03-22T08:06:41Z</time>
      </trkpt>
      <trkpt lat="47.44298" lon="-0.47972">
        <ele>35.23</ele>
        <time>2015-03-22T08:06:54Z</time>
      </trkpt>
      <trkpt lat="47.4428" lon="-0.47961">
        <ele>35.23</ele>
        <time>2015-03-22T08:06:57Z</time>
      </trkpt>
      <trkpt lat="47.44202" lon="-0.47891">
        <ele>33.3</ele>
        <time>2015-03-22T08:07:10Z</time>
      </trkpt>
      <trkpt lat="47.44138" lon="-0.47822">
        <ele>31.86</ele>
        <time>2015-03-22T08:07:22Z</time>
      </trkpt>
      <trkpt lat="47.44134" lon="-0.47814">
        <ele>31.86</ele>
        <time>2015-03-22T08:07:23Z</time>
      </trkpt>
      <trkpt lat="47.4413" lon="-0.47804">
        <ele>31.38</ele>
        <time>2015-03-22T08:07:24Z</time>
      </trkpt>
      <trkpt lat="47.44125" lon="-0.47785">
        <ele>31.38</ele>
        <time>2015-03-22T08:07:26Z</time>
      </trkpt>
      <trkpt lat="47.44124" lon="-0.47775">
        <ele>31.38</ele>
        <time>2015-03-22T08:07:27Z</time>
      </trkpt>
      <trkpt lat="47.44123" lon="-0.47765">
        <ele>31.86</ele>
        <time>2015-03-22T08:07:28Z</time>
      </trkpt>
      <trkpt lat="47.44121" lon="-0.47748">
        <ele>30.9</ele>
        <time>2015-03-22T08:07:30Z</time>
      </trkpt>
      <trkpt lat="47.44112" lon="-0.47745">
        <ele>30.9</ele>
        <time>2015-03-22T08:07:32Z</time>
      </trkpt>
      <trkpt lat="47.44109" lon="-0.47748">
        <ele>31.86</ele>
        <time>2015-03-22T08:07:33Z</time>
      </trkpt>
      <trkpt lat="47.44106" lon="-0.47753">
        <ele>32.34</ele>
        <time>2015-03-22T08:07:34Z</time>
      </trkpt>
      <trkpt lat="47.44103" lon="-0.47758">
        <ele>32.82</ele>
        <time>2015-03-22T08:07:35Z</time>
      </trkpt>
      <trkpt lat="47.44095" lon="-0.47773">
        <ele>33.78</ele>
        <time>2015-03-22T08:07:38Z</time>
      </trkpt>
      <trkpt lat="47.44078" lon="-0.47792">
        <ele>33.78</ele>
        <time>2015-03-22T08:07:42Z</time>
      </trkpt>
      <trkpt lat="47.44074" lon="-0.47798">
        <ele>33.78</ele>
        <time>2015-03-22T08:07:43Z</time>
      </trkpt>
      <trkpt lat="47.44024" lon="-0.47883">
        <ele>30.9</ele>
        <time>2015-03-22T08:07:54Z</time>
      </trkpt>
      <trkpt lat="47.44014" lon="-0.47898">
        <ele>30.42</ele>
        <time>2015-03-22T08:07:56Z</time>
      </trkpt>
      <trkpt lat="47.44007" lon="-0.47902">
        <ele>29.94</ele>
        <time>2015-03-22T08:07:57Z</time>
      </trkpt>
      <trkpt lat="47.43999" lon="-0.47905">
        <ele>29.46</ele>
        <time>2015-03-22T08:07:58Z</time>
      </trkpt>
      <trkpt lat="47.43991" lon="-0.47907">
        <ele>28.98</ele>
        <time>2015-03-22T08:07:59Z</time>
      </trkpt>
      <trkpt lat="47.43982" lon="-0.47908">
        <ele>28.98</ele>
        <time>2015-03-22T08:08:00Z</time>
      </trkpt>
      <trkpt lat="47.43884" lon="-0.47915">
        <ele>27.05</ele>
        <time>2015-03-22T08:08:12Z</time>
      </trkpt>
      <trkpt lat="47.43876" lon="-0.47919">
        <ele>27.05</ele>
        <time>2015-03-22T08:08:13Z</time>
      </trkpt>
      <trkpt lat="47.43869" lon="-0.47925">
        <ele>27.05</ele>
        <time>2015-03-22T08:08:14Z</time>
      </trkpt>
      <trkpt lat="47.43827" lon="-0.47956">
        <ele>27.05</ele>
        <time>2015-03-22T08:08:20Z</time>
      </trkpt>
      <trkpt lat="47.43822" lon="-0.47964">
        <ele>27.53</ele>
        <time>2015-03-22T08:08:21Z</time>
      </trkpt>
      <trkpt lat="47.43811" lon="-0.47978">
        <ele>28.02</ele>
        <time>2015-03-22T08:08:23Z</time>
      </trkpt>
      <trkpt lat="47.43805" lon="-0.47983">
        <ele>27.53</ele>
        <time>2015-03-22T08:08:24Z</time>
      </trkpt>
      <trkpt lat="47.43798" lon="-0.47987">
        <ele>28.02</ele>
        <time>2015-03-22T08:08:25Z</time>
      </trkpt>
      <trkpt lat="47.43791" lon="-0.47989">
        <ele>27.53</ele>
        <time>2015-03-22T08:08:26Z</time>
      </trkpt>
      <trkpt lat="47.43784" lon="-0.4799">
        <ele>27.53</ele>
        <time>2015-03-22T08:08:27Z</time>
      </trkpt>
      <trkpt lat="47.43777" lon="-0.47991">
        <ele>28.02</ele>
        <time>2015-03-22T08:08:28Z</time>
      </trkpt>
      <trkpt lat="47.43756" lon="-0.47989">
        <ele>28.02</ele>
        <time>2015-03-22T08:08:31Z</time>
      </trkpt>
      <trkpt lat="47.43723" lon="-0.47983">
        <ele>28.02</ele>
        <time>2015-03-22T08:08:36Z</time>
      </trkpt>
      <trkpt lat="47.43717" lon="-0.47986">
        <ele>27.53</ele>
        <time>2015-03-22T08:08:37Z</time>
      </trkpt>
      <trkpt lat="47.43711" lon="-0.47991">
        <ele>28.5</ele>
        <time>2015-03-22T08:08:38Z</time>
      </trkpt>
      <trkpt lat="47.437" lon="-0.48">
        <ele>27.53</ele>
        <time>2015-03-22T08:08:40Z</time>
      </trkpt>
      <trkpt lat="47.43694" lon="-0.48003">
        <ele>27.53</ele>
        <time>2015-03-22T08:08:41Z</time>
      </trkpt>
      <trkpt lat="47.43688" lon="-0.48004">
        <ele>27.05</ele>
        <time>2015-03-22T08:08:42Z</time>
      </trkpt>
      <trkpt lat="47.43682" lon="-0.48003">
        <ele>27.53</ele>
        <time>2015-03-22T08:08:43Z</time>
      </trkpt>
      <trkpt lat="47.43661" lon="-0.47974">
        <ele>28.5</ele>
        <time>2015-03-22T08:08:49Z</time>
      </trkpt>
      <trkpt lat="47.43657" lon="-0.47959">
        <ele>28.5</ele>
        <time>2015-03-22T08:08:51Z</time>
      </trkpt>
      <trkpt lat="47.4364" lon="-0.47925">
        <ele>29.46</ele>
        <time>2015-03-22T08:08:57Z</time>
      </trkpt>
      <trkpt lat="47.43637" lon="-0.47921">
        <ele>30.42</ele>
        <time>2015-03-22T08:08:58Z</time>
      </trkpt>
      <trkpt lat="47.43633" lon="-0.47918">
        <ele>30.42</ele>
        <time>2015-03-22T08:08:59Z</time>
      </trkpt>
      <trkpt lat="47.4363" lon="-0.47915">
        <ele>30.42</ele>
        <time>2015-03-22T08:09:00Z</time>
      </trkpt>
      <trkpt lat="47.43627" lon="-0.4791">
        <ele>31.38</ele>
        <time>2015-03-22T08:09:01Z</time>
      </trkpt>
      <trkpt lat="47.43624" lon="-0.47905">
        <ele>31.38</ele>
        <time>2015-03-22T08:09:02Z</time>
      </trkpt>
      <trkpt lat="47.43621" lon="-0.47898">
        <ele>31.38</ele>
        <time>2015-03-22T08:09:03Z</time>
      </trkpt>
      <trkpt lat="47.43619" lon="-0.47892">
        <ele>31.38</ele>
        <time>2015-03-22T08:09:04Z</time>
      </trkpt>
      <trkpt lat="47.43571" lon="-0.4777">
        <ele>28.98</ele>
        <time>2015-03-22T08:09:21Z</time>
      </trkpt>
      <trkpt lat="47.43543" lon="-0.47697">
        <ele>28.02</ele>
        <time>2015-03-22T08:09:30Z</time>
      </trkpt>
      <trkpt lat="47.43539" lon="-0.47689">
        <ele>28.02</ele>
        <time>2015-03-22T08:09:31Z</time>
      </trkpt>
      <trkpt lat="47.43537" lon="-0.47681">
        <ele>27.53</ele>
        <time>2015-03-22T08:09:32Z</time>
      </trkpt>
      <trkpt lat="47.43492" lon="-0.4758">
        <ele>28.02</ele>
        <time>2015-03-22T08:09:47Z</time>
      </trkpt>
      <trkpt lat="47.43452" lon="-0.47511">
        <ele>30.42</ele>
        <time>2015-03-22T08:10:01Z</time>
      </trkpt>
      <trkpt lat="47.43441" lon="-0.47518">
        <ele>30.42</ele>
        <time>2015-03-22T08:10:05Z</time>
      </trkpt>
      <trkpt lat="47.43438" lon="-0.47523">
        <ele>30.9</ele>
        <time>2015-03-22T08:10:06Z</time>
      </trkpt>
      <trkpt lat="47.43434" lon="-0.47527">
        <ele>30.9</ele>
        <time>2015-03-22T08:10:07Z</time>
      </trkpt>
      <trkpt lat="47.43383" lon="-0.47591">
        <ele>30.42</ele>
        <time>2015-03-22T08:10:20Z</time>
      </trkpt>
      <trkpt lat="47.43364" lon="-0.47615">
        <ele>30.42</ele>
        <time>2015-03-22T08:10:25Z</time>
      </trkpt>
      <trkpt lat="47.43337" lon="-0.47641">
        <ele>30.42</ele>
        <time>2015-03-22T08:10:35Z</time>
      </trkpt>
      <trkpt lat="47.43323" lon="-0.47636">
        <ele>30.9</ele>
        <time>2015-03-22T08:10:39Z</time>
      </trkpt>
      <trkpt lat="47.4332" lon="-0.47631">
        <ele>30.9</ele>
        <time>2015-03-22T08:10:40Z</time>
      </trkpt>
      <trkpt lat="47.43275" lon="-0.47556">
        <ele>29.46</ele>
        <time>2015-03-22T08:10:53Z</time>
      </trkpt>
      <trkpt lat="47.43272" lon="-0.47548">
        <ele>28.98</ele>
        <time>2015-03-22T08:10:54Z</time>
      </trkpt>
      <trkpt lat="47.4327" lon="-0.47541">
        <ele>28.98</ele>
        <time>2015-03-22T08:10:55Z</time>
      </trkpt>
      <trkpt lat="47.43251" lon="-0.4751">
        <ele>28.5</ele>
        <time>2015-03-22T08:11:00Z</time>
      </trkpt>
      <trkpt lat="47.43248" lon="-0.47504">
        <ele>28.5</ele>
        <time>2015-03-22T08:11:01Z</time>
      </trkpt>
      <trkpt lat="47.43214" lon="-0.4744">
        <ele>28.5</ele>
        <time>2015-03-22T08:11:14Z</time>
      </trkpt>
      <trkpt lat="47.43209" lon="-0.4743">
        <ele>28.5</ele>
        <time>2015-03-22T08:11:16Z</time>
      </trkpt>
      <trkpt lat="47.43206" lon="-0.47424">
        <ele>28.5</ele>
        <time>2015-03-22T08:11:17Z</time>
      </trkpt>
      <trkpt lat="47.432" lon="-0.47413">
        <ele>28.5</ele>
        <time>2015-03-22T08:11:19Z</time>
      </trkpt>
      <trkpt lat="47.43196" lon="-0.47408">
        <ele>28.5</ele>
        <time>2015-03-22T08:11:20Z</time>
      </trkpt>
      <trkpt lat="47.43193" lon="-0.47402">
        <ele>28.98</ele>
        <time>2015-03-22T08:11:21Z</time>
      </trkpt>
      <trkpt lat="47.43187" lon="-0.4739">
        <ele>28.5</ele>
        <time>2015-03-22T08:11:23Z</time>
      </trkpt>
      <trkpt lat="47.43173" lon="-0.47364">
        <ele>28.02</ele>
        <time>2015-03-22T08:11:28Z</time>
      </trkpt>
      <trkpt lat="47.43163" lon="-0.47348">
        <ele>28.02</ele>
        <time>2015-03-22T08:11:31Z</time>
      </trkpt>
      <trkpt lat="47.43137" lon="-0.47304">
        <ele>28.02</ele>
        <time>2015-03-22T08:11:40Z</time>
      </trkpt>
      <trkpt lat="47.43132" lon="-0.473">
        <ele>28.5</ele>
        <time>2015-03-22T08:11:41Z</time>
      </trkpt>
      <trkpt lat="47.43127" lon="-0.47296">
        <ele>28.02</ele>
        <time>2015-03-22T08:11:42Z</time>
      </trkpt>
      <trkpt lat="47.43122" lon="-0.47294">
        <ele>28.02</ele>
        <time>2015-03-22T08:11:43Z</time>
      </trkpt>
      <trkpt lat="47.43117" lon="-0.47292">
        <ele>28.02</ele>
        <time>2015-03-22T08:11:44Z</time>
      </trkpt>
      <trkpt lat="47.43113" lon="-0.47289">
        <ele>28.02</ele>
        <time>2015-03-22T08:11:45Z</time>
      </trkpt>
      <trkpt lat="47.43074" lon="-0.47262">
        <ele>29.46</ele>
        <time>2015-03-22T08:11:56Z</time>
      </trkpt>
      <trkpt lat="47.43054" lon="-0.4726">
        <ele>30.42</ele>
        <time>2015-03-22T08:12:03Z</time>
      </trkpt>
      <trkpt lat="47.4305" lon="-0.47259">
        <ele>30.42</ele>
        <time>2015-03-22T08:12:04Z</time>
      </trkpt>
      <trkpt lat="47.43046" lon="-0.47256">
        <ele>30.9</ele>
        <time>2015-03-22T08:12:05Z</time>
      </trkpt>
      <trkpt lat="47.43042" lon="-0.47253">
        <ele>30.9</ele>
        <time>2015-03-22T08:12:06Z</time>
      </trkpt>
      <trkpt lat="47.43038" lon="-0.47251">
        <ele>30.9</ele>
        <time>2015-03-22T08:12:07Z</time>
      </trkpt>
      <trkpt lat="47.42965" lon="-0.47194">
        <ele>30.9</ele>
        <time>2015-03-22T08:12:23Z</time>
      </trkpt>
      <trkpt lat="47.42918" lon="-0.47156">
        <ele>30.42</ele>
        <time>2015-03-22T08:12:33Z</time>
      </trkpt>
      <trkpt lat="47.42914" lon="-0.4715">
        <ele>30.42</ele>
        <time>2015-03-22T08:12:34Z</time>
      </trkpt>
      <trkpt lat="47.42912" lon="-0.47144">
        <ele>30.42</ele>
        <time>2015-03-22T08:12:35Z</time>
      </trkpt>
      <trkpt lat="47.42907" lon="-0.47131">
        <ele>28.5</ele>
        <time>2015-03-22T08:12:37Z</time>
      </trkpt>
      <trkpt lat="47.42907" lon="-0.47124">
        <ele>28.5</ele>
        <time>2015-03-22T08:12:38Z</time>
      </trkpt>
      <trkpt lat="47.42908" lon="-0.47118">
        <ele>27.53</ele>
        <time>2015-03-22T08:12:39Z</time>
      </trkpt>
      <trkpt lat="47.42911" lon="-0.47111">
        <ele>27.05</ele>
        <time>2015-03-22T08:12:40Z</time>
      </trkpt>
      <trkpt lat="47.42917" lon="-0.47106">
        <ele>26.57</ele>
        <time>2015-03-22T08:12:41Z</time>
      </trkpt>
      <trkpt lat="47.42923" lon="-0.47103">
        <ele>26.57</ele>
        <time>2015-03-22T08:12:42Z</time>
      </trkpt>
      <trkpt lat="47.42929" lon="-0.471">
        <ele>26.57</ele>
        <time>2015-03-22T08:12:43Z</time>
      </trkpt>
      <trkpt lat="47.42936" lon="-0.47098">
        <ele>26.09</ele>
        <time>2015-03-22T08:12:44Z</time>
      </trkpt>
      <trkpt lat="47.42986" lon="-0.47082">
        <ele>26.09</ele>
        <time>2015-03-22T08:12:53Z</time>
      </trkpt>
      <trkpt lat="47.42991" lon="-0.47084">
        <ele>25.61</ele>
        <time>2015-03-22T08:12:54Z</time>
      </trkpt>
      <trkpt lat="47.42997" lon="-0.47088">
        <ele>26.57</ele>
        <time>2015-03-22T08:12:55Z</time>
      </trkpt>
      <trkpt lat="47.43006" lon="-0.47095">
        <ele>27.53</ele>
        <time>2015-03-22T08:12:57Z</time>
      </trkpt>
      <trkpt lat="47.4301" lon="-0.47097">
        <ele>28.5</ele>
        <time>2015-03-22T08:12:58Z</time>
      </trkpt>
      <trkpt lat="47.43016" lon="-0.47096">
        <ele>28.5</ele>
        <time>2015-03-22T08:12:59Z</time>
      </trkpt>
      <trkpt lat="47.43021" lon="-0.47095">
        <ele>28.5</ele>
        <time>2015-03-22T08:13:00Z</time>
      </trkpt>
      <trkpt lat="47.43026" lon="-0.47094">
        <ele>28.5</ele>
        <time>2015-03-22T08:13:01Z</time>
      </trkpt>
      <trkpt lat="47.43049" lon="-0.47086">
        <ele>28.98</ele>
        <time>2015-03-22T08:13:06Z</time>
      </trkpt>
      <trkpt lat="47.43053" lon="-0.47084">
        <ele>28.98</ele>
        <time>2015-03-22T08:13:07Z</time>
      </trkpt>
      <trkpt lat="47.43077" lon="-0.47077">
        <ele>28.98</ele>
        <time>2015-03-22T08:13:13Z</time>
      </trkpt>
      <trkpt lat="47.43088" lon="-0.47071">
        <ele>28.5</ele>
        <time>2015-03-22T08:13:15Z</time>
      </trkpt>
      <trkpt lat="47.43184" lon="-0.47038">
        <ele>28.98</ele>
        <time>2015-03-22T08:13:33Z</time>
      </trkpt>
      <trkpt lat="47.43263" lon="-0.47008">
        <ele>28.98</ele>
        <time>2015-03-22T08:13:49Z</time>
      </trkpt>
      <trkpt lat="47.43277" lon="-0.47">
        <ele>28.98</ele>
        <time>2015-03-22T08:13:52Z</time>
      </trkpt>
      <trkpt lat="47.43337" lon="-0.46926">
        <ele>28.5</ele>
        <time>2015-03-22T08:14:08Z</time>
      </trkpt>
      <trkpt lat="47.43416" lon="-0.46831">
        <ele>28.02</ele>
        <time>2015-03-22T08:14:28Z</time>
      </trkpt>
      <trkpt lat="47.43484" lon="-0.4675">
        <ele>28.5</ele>
        <time>2015-03-22T08:14:45Z</time>
      </trkpt>
      <trkpt lat="47.43548" lon="-0.46671">
        <ele>28.5</ele>
        <time>2015-03-22T08:15:01Z</time>
      </trkpt>
      <trkpt lat="47.43566" lon="-0.4665">
        <ele>28.98</ele>
        <time>2015-03-22T08:15:05Z</time>
      </trkpt>
      <trkpt lat="47.4357" lon="-0.46645">
        <ele>28.5</ele>
        <time>2015-03-22T08:15:06Z</time>
      </trkpt>
      <trkpt lat="47.43574" lon="-0.46641">
        <ele>28.5</ele>
        <time>2015-03-22T08:15:07Z</time>
      </trkpt>
      <trkpt lat="47.43643" lon="-0.46557">
        <ele>28.5</ele>
        <time>2015-03-22T08:15:25Z</time>
      </trkpt>
      <trkpt lat="47.4371" lon="-0.46476">
        <ele>28.02</ele>
        <time>2015-03-22T08:15:42Z</time>
      </trkpt>
      <trkpt lat="47.43787" lon="-0.46383">
        <ele>28.5</ele>
        <time>2015-03-22T08:16:01Z</time>
      </trkpt>
      <trkpt lat="47.43868" lon="-0.46288">
        <ele>28.98</ele>
        <time>2015-03-22T08:16:21Z</time>
      </trkpt>
      <trkpt lat="47.43938" lon="-0.46202">
        <ele>29.46</ele>
        <time>2015-03-22T08:16:38Z</time>
      </trkpt>
      <trkpt lat="47.44011" lon="-0.46098">
        <ele>28.5</ele>
        <time>2015-03-22T08:16:58Z</time>
      </trkpt>
      <trkpt lat="47.44038" lon="-0.45991">
        <ele>28.98</ele>
        <time>2015-03-22T08:17:13Z</time>
      </trkpt>
      <trkpt lat="47.44046" lon="-0.45892">
        <ele>28.98</ele>
        <time>2015-03-22T08:17:28Z</time>
      </trkpt>
      <trkpt lat="47.44055" lon="-0.45772">
        <ele>28.98</ele>
        <time>2015-03-22T08:17:46Z</time>
      </trkpt>
      <trkpt lat="47.44064" lon="-0.45648">
        <ele>28.5</ele>
        <time>2015-03-22T08:18:04Z</time>
      </trkpt>
      <trkpt lat="47.44074" lon="-0.45515">
        <ele>29.46</ele>
        <time>2015-03-22T08:18:24Z</time>
      </trkpt>
      <trkpt lat="47.44077" lon="-0.45467">
        <ele>28.5</ele>
        <time>2015-03-22T08:18:31Z</time>
      </trkpt>
      <trkpt lat="47.44078" lon="-0.4546">
        <ele>28.5</ele>
        <time>2015-03-22T08:18:32Z</time>
      </trkpt>
      <trkpt lat="47.44088" lon="-0.45348">
        <ele>28.5</ele>
        <time>2015-03-22T08:18:49Z</time>
      </trkpt>
      <trkpt lat="47.44096" lon="-0.45241">
        <ele>28.5</ele>
        <time>2015-03-22T08:19:04Z</time>
      </trkpt>
      <trkpt lat="47.44103" lon="-0.45135">
        <ele>28.98</ele>
        <time>2015-03-22T08:19:19Z</time>
      </trkpt>
      <trkpt lat="47.4411" lon="-0.45055">
        <ele>28.98</ele>
        <time>2015-03-22T08:19:30Z</time>
      </trkpt>
      <trkpt lat="47.44112" lon="-0.45048">
        <ele>29.46</ele>
        <time>2015-03-22T08:19:31Z</time>
      </trkpt>
      <trkpt lat="47.44146" lon="-0.44962">
        <ele>28.98</ele>
        <time>2015-03-22T08:19:45Z</time>
      </trkpt>
      <trkpt lat="47.4419" lon="-0.44859">
        <ele>28.98</ele>
        <time>2015-03-22T08:20:02Z</time>
      </trkpt>
      <trkpt lat="47.44233" lon="-0.44756">
        <ele>28.98</ele>
        <time>2015-03-22T08:20:19Z</time>
      </trkpt>
      <trkpt lat="47.44269" lon="-0.44667">
        <ele>28.98</ele>
        <time>2015-03-22T08:20:33Z</time>
      </trkpt>
      <trkpt lat="47.44296" lon="-0.44561">
        <ele>28.98</ele>
        <time>2015-03-22T08:20:48Z</time>
      </trkpt>
      <trkpt lat="47.44297" lon="-0.44531">
        <ele>28.98</ele>
        <time>2015-03-22T08:20:52Z</time>
      </trkpt>
      <trkpt lat="47.44292" lon="-0.44477">
        <ele>29.46</ele>
        <time>2015-03-22T08:20:59Z</time>
      </trkpt>
      <trkpt lat="47.44275" lon="-0.44413">
        <ele>29.46</ele>
        <time>2015-03-22T08:21:08Z</time>
      </trkpt>
      <trkpt lat="47.44248" lon="-0.44321">
        <ele>29.46</ele>
        <time>2015-03-22T08:21:22Z</time>
      </trkpt>
      <trkpt lat="47.44221" lon="-0.44211">
        <ele>29.46</ele>
        <time>2015-03-22T08:21:40Z</time>
      </trkpt>
      <trkpt lat="47.44202" lon="-0.4411">
        <ele>29.46</ele>
        <time>2015-03-22T08:21:57Z</time>
      </trkpt>
      <trkpt lat="47.44199" lon="-0.44092">
        <ele>29.94</ele>
        <time>2015-03-22T08:22:00Z</time>
      </trkpt>
      <trkpt lat="47.44171" lon="-0.43976">
        <ele>29.94</ele>
        <time>2015-03-22T08:22:19Z</time>
      </trkpt>
      <trkpt lat="47.44169" lon="-0.4397">
        <ele>29.94</ele>
        <time>2015-03-22T08:22:20Z</time>
      </trkpt>
      <trkpt lat="47.44167" lon="-0.43963">
        <ele>29.94</ele>
        <time>2015-03-22T08:22:21Z</time>
      </trkpt>
      <trkpt lat="47.44142" lon="-0.43856">
        <ele>29.94</ele>
        <time>2015-03-22T08:22:38Z</time>
      </trkpt>
      <trkpt lat="47.44123" lon="-0.4376">
        <ele>30.42</ele>
        <time>2015-03-22T08:22:53Z</time>
      </trkpt>
      <trkpt lat="47.441" lon="-0.43648">
        <ele>29.94</ele>
        <time>2015-03-22T08:23:11Z</time>
      </trkpt>
      <trkpt lat="47.44084" lon="-0.43545">
        <ele>30.42</ele>
        <time>2015-03-22T08:23:25Z</time>
      </trkpt>
      <trkpt lat="47.44084" lon="-0.43537">
        <ele>29.94</ele>
        <time>2015-03-22T08:23:26Z</time>
      </trkpt>
      <trkpt lat="47.44083" lon="-0.43515">
        <ele>29.94</ele>
        <time>2015-03-22T08:23:29Z</time>
      </trkpt>
      <trkpt lat="47.44083" lon="-0.43508">
        <ele>29.94</ele>
        <time>2015-03-22T08:23:30Z</time>
      </trkpt>
      <trkpt lat="47.44079" lon="-0.43402">
        <ele>29.46</ele>
        <time>2015-03-22T08:23:44Z</time>
      </trkpt>
      <trkpt lat="47.44079" lon="-0.43387">
        <ele>28.98</ele>
        <time>2015-03-22T08:23:46Z</time>
      </trkpt>
      <trkpt lat="47.44079" lon="-0.43379">
        <ele>28.98</ele>
        <time>2015-03-22T08:23:47Z</time>
      </trkpt>
      <trkpt lat="47.44077" lon="-0.43286">
        <ele>29.46</ele>
        <time>2015-03-22T08:23:59Z</time>
      </trkpt>
      <trkpt lat="47.44077" lon="-0.43279">
        <ele>29.46</ele>
        <time>2015-03-22T08:24:00Z</time>
      </trkpt>
      <trkpt lat="47.44077" lon="-0.43265">
        <ele>29.46</ele>
        <time>2015-03-22T08:24:02Z</time>
      </trkpt>
      <trkpt lat="47.44074" lon="-0.43134">
        <ele>29.94</ele>
        <time>2015-03-22T08:24:20Z</time>
      </trkpt>
      <trkpt lat="47.44072" lon="-0.43039">
        <ele>29.46</ele>
        <time>2015-03-22T08:24:36Z</time>
      </trkpt>
      <trkpt lat="47.44071" lon="-0.43032">
        <ele>29.46</ele>
        <time>2015-03-22T08:24:47Z</time>
      </trkpt>
      <trkpt lat="47.4407" lon="-0.4303">
        <ele>29.46</ele>
        <time>2015-03-22T08:24:48Z</time>
      </trkpt>
      <trkpt lat="47.44069" lon="-0.43029">
        <ele>29.46</ele>
        <time>2015-03-22T08:24:49Z</time>
      </trkpt>
      <trkpt lat="47.44067" lon="-0.43028">
        <ele>29.46</ele>
        <time>2015-03-22T08:24:50Z</time>
      </trkpt>
      <trkpt lat="47.44065" lon="-0.43026">
        <ele>28.98</ele>
        <time>2015-03-22T08:24:51Z</time>
      </trkpt>
      <trkpt lat="47.44064" lon="-0.43024">
        <ele>28.98</ele>
        <time>2015-03-22T08:24:52Z</time>
      </trkpt>
      <trkpt lat="47.44063" lon="-0.43021">
        <ele>29.46</ele>
        <time>2015-03-22T08:24:53Z</time>
      </trkpt>
      <trkpt lat="47.44062" lon="-0.43018">
        <ele>28.98</ele>
        <time>2015-03-22T08:24:54Z</time>
      </trkpt>
      <trkpt lat="47.44064" lon="-0.43016">
        <ele>29.46</ele>
        <time>2015-03-22T08:24:55Z</time>
      </trkpt>
      <trkpt lat="47.44065" lon="-0.43016">
        <ele>29.46</ele>
        <time>2015-03-22T08:24:56Z</time>
      </trkpt>
      <trkpt lat="47.44066" lon="-0.43018">
        <ele>28.98</ele>
        <time>2015-03-22T08:24:57Z</time>
      </trkpt>
      <trkpt lat="47.44066" lon="-0.43021">
        <ele>29.46</ele>
        <time>2015-03-22T08:24:58Z</time>
      </trkpt>
      <trkpt lat="47.44065" lon="-0.43026">
        <ele>28.98</ele>
        <time>2015-03-22T08:25:09Z</time>
      </trkpt>
      <trkpt lat="47.44067" lon="-0.43034">
        <ele>29.46</ele>
        <time>2015-03-22T08:25:21Z</time>
      </trkpt>
      <trkpt lat="47.44067" lon="-0.43034">
        <ele>29.46</ele>
        <time>2015-03-22T08:25:44Z</time>
      </trkpt>
      <trkpt lat="47.44068" lon="-0.43031">
        <ele>28.98</ele>
        <time>2015-03-22T08:26:03Z</time>
      </trkpt>
      <trkpt lat="47.44067" lon="-0.43032">
        <ele>28.98</ele>
        <time>2015-03-22T08:26:35Z</time>
      </trkpt>
      <trkpt lat="47.44066" lon="-0.43033">
        <ele>28.98</ele>
        <time>2015-03-22T08:27:04Z</time>
      </trkpt>
      <trkpt lat="47.44067" lon="-0.43033">
        <ele>28.98</ele>
        <time>2015-03-22T08:27:05Z</time>
      </trkpt>
      <trkpt lat="47.44068" lon="-0.43034">
        <ele>28.98</ele>
        <time>2015-03-22T08:27:06Z</time>
      </trkpt>
      <trkpt lat="47.4407" lon="-0.43035">
        <ele>28.5</ele>
        <time>2015-03-22T08:27:07Z</time>
      </trkpt>
      <trkpt lat="47.44071" lon="-0.43036">
        <ele>28.98</ele>
        <time>2015-03-22T08:27:08Z</time>
      </trkpt>
      <trkpt lat="47.44073" lon="-0.43037">
        <ele>28.98</ele>
        <time>2015-03-22T08:27:09Z</time>
      </trkpt>
      <trkpt lat="47.44074" lon="-0.43038">
        <ele>28.98</ele>
        <time>2015-03-22T08:27:10Z</time>
      </trkpt>
      <trkpt lat="47.44096" lon="-0.43072">
        <ele>28.98</ele>
        <time>2015-03-22T08:27:21Z</time>
      </trkpt>
      <trkpt lat="47.44135" lon="-0.43129">
        <ele>28.98</ele>
        <time>2015-03-22T08:27:36Z</time>
      </trkpt>
      <trkpt lat="47.44169" lon="-0.43126">
        <ele>30.42</ele>
        <time>2015-03-22T08:27:46Z</time>
      </trkpt>
      <trkpt lat="47.44197" lon="-0.43138">
        <ele>29.46</ele>
        <time>2015-03-22T08:27:58Z</time>
      </trkpt>
      <trkpt lat="47.44227" lon="-0.43174">
        <ele>27.53</ele>
        <time>2015-03-22T08:28:07Z</time>
      </trkpt>
      <trkpt lat="47.44229" lon="-0.43173">
        <ele>28.02</ele>
        <time>2015-03-22T08:28:08Z</time>
      </trkpt>
      <trkpt lat="47.44229" lon="-0.43166">
        <ele>28.02</ele>
        <time>2015-03-22T08:28:11Z</time>
      </trkpt>
      <trkpt lat="47.44227" lon="-0.43164">
        <ele>27.53</ele>
        <time>2015-03-22T08:28:12Z</time>
      </trkpt>
      <trkpt lat="47.44202" lon="-0.43126">
        <ele>25.61</ele>
        <time>2015-03-22T08:28:20Z</time>
      </trkpt>
      <trkpt lat="47.44198" lon="-0.43123">
        <ele>26.09</ele>
        <time>2015-03-22T08:28:21Z</time>
      </trkpt>
      <trkpt lat="47.44193" lon="-0.43121">
        <ele>26.09</ele>
        <time>2015-03-22T08:28:22Z</time>
      </trkpt>
      <trkpt lat="47.44189" lon="-0.43117">
        <ele>26.09</ele>
        <time>2015-03-22T08:28:23Z</time>
      </trkpt>
      <trkpt lat="47.44184" lon="-0.43113">
        <ele>26.09</ele>
        <time>2015-03-22T08:28:24Z</time>
      </trkpt>
      <trkpt lat="47.44182" lon="-0.43108">
        <ele>26.09</ele>
        <time>2015-03-22T08:28:25Z</time>
      </trkpt>
      <trkpt lat="47.4418" lon="-0.43102">
        <ele>26.09</ele>
        <time>2015-03-22T08:28:26Z</time>
      </trkpt>
      <trkpt lat="47.4418" lon="-0.43095">
        <ele>26.57</ele>
        <time>2015-03-22T08:28:27Z</time>
      </trkpt>
      <trkpt lat="47.44179" lon="-0.43088">
        <ele>26.57</ele>
        <time>2015-03-22T08:28:28Z</time>
      </trkpt>
      <trkpt lat="47.44178" lon="-0.4308">
        <ele>27.05</ele>
        <time>2015-03-22T08:28:29Z</time>
      </trkpt>
      <trkpt lat="47.44174" lon="-0.4305">
        <ele>26.57</ele>
        <time>2015-03-22T08:28:33Z</time>
      </trkpt>
      <trkpt lat="47.44173" lon="-0.43036">
        <ele>27.05</ele>
        <time>2015-03-22T08:28:35Z</time>
      </trkpt>
      <trkpt lat="47.44167" lon="-0.42999">
        <ele>26.57</ele>
        <time>2015-03-22T08:28:40Z</time>
      </trkpt>
      <trkpt lat="47.44167" lon="-0.42992">
        <ele>27.05</ele>
        <time>2015-03-22T08:28:41Z</time>
      </trkpt>
      <trkpt lat="47.44166" lon="-0.42985">
        <ele>26.57</ele>
        <time>2015-03-22T08:28:42Z</time>
      </trkpt>
      <trkpt lat="47.44165" lon="-0.42977">
        <ele>26.09</ele>
        <time>2015-03-22T08:28:43Z</time>
      </trkpt>
      <trkpt lat="47.44164" lon="-0.4297">
        <ele>25.61</ele>
        <time>2015-03-22T08:28:44Z</time>
      </trkpt>
      <trkpt lat="47.44164" lon="-0.42963">
        <ele>25.61</ele>
        <time>2015-03-22T08:28:45Z</time>
      </trkpt>
      <trkpt lat="47.44163" lon="-0.42954">
        <ele>26.09</ele>
        <time>2015-03-22T08:28:46Z</time>
      </trkpt>
      <trkpt lat="47.44162" lon="-0.42946">
        <ele>25.61</ele>
        <time>2015-03-22T08:28:47Z</time>
      </trkpt>
      <trkpt lat="47.44155" lon="-0.4287">
        <ele>25.61</ele>
        <time>2015-03-22T08:28:58Z</time>
      </trkpt>
      <trkpt lat="47.44157" lon="-0.42866">
        <ele>25.61</ele>
        <time>2015-03-22T08:28:59Z</time>
      </trkpt>
      <trkpt lat="47.44165" lon="-0.42862">
        <ele>25.61</ele>
        <time>2015-03-22T08:29:01Z</time>
      </trkpt>
      <trkpt lat="47.44183" lon="-0.42851">
        <ele>28.02</ele>
        <time>2015-03-22T08:29:07Z</time>
      </trkpt>
      <trkpt lat="47.44193" lon="-0.42847">
        <ele>27.53</ele>
        <time>2015-03-22T08:29:11Z</time>
      </trkpt>
      <trkpt lat="47.44195" lon="-0.4284">
        <ele>26.09</ele>
        <time>2015-03-22T08:29:14Z</time>
      </trkpt>
      <trkpt lat="47.44194" lon="-0.42834">
        <ele>25.61</ele>
        <time>2015-03-22T08:29:15Z</time>
      </trkpt>
      <trkpt lat="47.44192" lon="-0.42827">
        <ele>25.13</ele>
        <time>2015-03-22T08:29:16Z</time>
      </trkpt>
      <trkpt lat="47.44185" lon="-0.42798">
        <ele>25.61</ele>
        <time>2015-03-22T08:29:20Z</time>
      </trkpt>
      <trkpt lat="47.44172" lon="-0.42749">
        <ele>24.65</ele>
        <time>2015-03-22T08:29:27Z</time>
      </trkpt>
      <trkpt lat="47.4417" lon="-0.42744">
        <ele>25.13</ele>
        <time>2015-03-22T08:29:28Z</time>
      </trkpt>
      <trkpt lat="47.4417" lon="-0.42739">
        <ele>25.13</ele>
        <time>2015-03-22T08:29:29Z</time>
      </trkpt>
      <trkpt lat="47.44171" lon="-0.42734">
        <ele>25.13</ele>
        <time>2015-03-22T08:29:30Z</time>
      </trkpt>
      <trkpt lat="47.44173" lon="-0.42732">
        <ele>24.65</ele>
        <time>2015-03-22T08:29:31Z</time>
      </trkpt>
      <trkpt lat="47.44176" lon="-0.4273">
        <ele>24.65</ele>
        <time>2015-03-22T08:29:32Z</time>
      </trkpt>
      <trkpt lat="47.44179" lon="-0.42727">
        <ele>24.65</ele>
        <time>2015-03-22T08:29:33Z</time>
      </trkpt>
      <trkpt lat="47.44183" lon="-0.42723">
        <ele>24.65</ele>
        <time>2015-03-22T08:29:34Z</time>
      </trkpt>
      <trkpt lat="47.44214" lon="-0.42647">
        <ele>26.57</ele>
        <time>2015-03-22T08:29:48Z</time>
      </trkpt>
      <trkpt lat="47.44216" lon="-0.42641">
        <ele>26.57</ele>
        <time>2015-03-22T08:29:49Z</time>
      </trkpt>
      <trkpt lat="47.44217" lon="-0.42627">
        <ele>26.57</ele>
        <time>2015-03-22T08:29:51Z</time>
      </trkpt>
      <trkpt lat="47.44218" lon="-0.42606">
        <ele>27.05</ele>
        <time>2015-03-22T08:29:54Z</time>
      </trkpt>
      <trkpt lat="47.44219" lon="-0.42511">
        <ele>26.57</ele>
        <time>2015-03-22T08:30:07Z</time>
      </trkpt>
      <trkpt lat="47.4422" lon="-0.42497">
        <ele>26.57</ele>
        <time>2015-03-22T08:30:09Z</time>
      </trkpt>
      <trkpt lat="47.44219" lon="-0.4249">
        <ele>27.05</ele>
        <time>2015-03-22T08:30:10Z</time>
      </trkpt>
      <trkpt lat="47.44219" lon="-0.42483">
        <ele>27.05</ele>
        <time>2015-03-22T08:30:11Z</time>
      </trkpt>
      <trkpt lat="47.4422" lon="-0.42476">
        <ele>26.57</ele>
        <time>2015-03-22T08:30:12Z</time>
      </trkpt>
      <trkpt lat="47.4422" lon="-0.42469">
        <ele>26.57</ele>
        <time>2015-03-22T08:30:13Z</time>
      </trkpt>
      <trkpt lat="47.4422" lon="-0.42461">
        <ele>27.05</ele>
        <time>2015-03-22T08:30:14Z</time>
      </trkpt>
      <trkpt lat="47.4422" lon="-0.42438">
        <ele>27.05</ele>
        <time>2015-03-22T08:30:17Z</time>
      </trkpt>
      <trkpt lat="47.44217" lon="-0.42401">
        <ele>27.53</ele>
        <time>2015-03-22T08:30:22Z</time>
      </trkpt>
      <trkpt lat="47.44216" lon="-0.42394">
        <ele>27.53</ele>
        <time>2015-03-22T08:30:23Z</time>
      </trkpt>
      <trkpt lat="47.44215" lon="-0.42265">
        <ele>27.05</ele>
        <time>2015-03-22T08:30:40Z</time>
      </trkpt>
      <trkpt lat="47.44224" lon="-0.42087">
        <ele>26.57</ele>
        <time>2015-03-22T08:31:04Z</time>
      </trkpt>
      <trkpt lat="47.44227" lon="-0.41994">
        <ele>27.05</ele>
        <time>2015-03-22T08:31:17Z</time>
      </trkpt>
      <trkpt lat="47.44225" lon="-0.4198">
        <ele>26.09</ele>
        <time>2015-03-22T08:31:19Z</time>
      </trkpt>
      <trkpt lat="47.44215" lon="-0.41884">
        <ele>26.57</ele>
        <time>2015-03-22T08:31:32Z</time>
      </trkpt>
      <trkpt lat="47.44211" lon="-0.41879">
        <ele>26.09</ele>
        <time>2015-03-22T08:31:33Z</time>
      </trkpt>
      <trkpt lat="47.44206" lon="-0.41877">
        <ele>26.57</ele>
        <time>2015-03-22T08:31:34Z</time>
      </trkpt>
      <trkpt lat="47.44201" lon="-0.41877">
        <ele>26.09</ele>
        <time>2015-03-22T08:31:35Z</time>
      </trkpt>
      <trkpt lat="47.44195" lon="-0.41879">
        <ele>26.09</ele>
        <time>2015-03-22T08:31:36Z</time>
      </trkpt>
      <trkpt lat="47.44116" lon="-0.41898">
        <ele>25.61</ele>
        <time>2015-03-22T08:31:51Z</time>
      </trkpt>
      <trkpt lat="47.44079" lon="-0.41906">
        <ele>24.65</ele>
        <time>2015-03-22T08:31:58Z</time>
      </trkpt>
      <trkpt lat="47.44065" lon="-0.41885">
        <ele>24.65</ele>
        <time>2015-03-22T08:32:03Z</time>
      </trkpt>
      <trkpt lat="47.44064" lon="-0.41786">
        <ele>25.61</ele>
        <time>2015-03-22T08:32:17Z</time>
      </trkpt>
      <trkpt lat="47.44066" lon="-0.41771">
        <ele>25.61</ele>
        <time>2015-03-22T08:32:19Z</time>
      </trkpt>
      <trkpt lat="47.44061" lon="-0.41712">
        <ele>25.61</ele>
        <time>2015-03-22T08:32:27Z</time>
      </trkpt>
      <trkpt lat="47.44062" lon="-0.41705">
        <ele>25.13</ele>
        <time>2015-03-22T08:32:28Z</time>
      </trkpt>
      <trkpt lat="47.44064" lon="-0.41697">
        <ele>25.61</ele>
        <time>2015-03-22T08:32:29Z</time>
      </trkpt>
      <trkpt lat="47.44067" lon="-0.4169">
        <ele>25.61</ele>
        <time>2015-03-22T08:32:30Z</time>
      </trkpt>
      <trkpt lat="47.44069" lon="-0.41683">
        <ele>26.09</ele>
        <time>2015-03-22T08:32:31Z</time>
      </trkpt>
      <trkpt lat="47.44071" lon="-0.41676">
        <ele>25.61</ele>
        <time>2015-03-22T08:32:32Z</time>
      </trkpt>
      <trkpt lat="47.44105" lon="-0.41564">
        <ele>26.09</ele>
        <time>2015-03-22T08:32:48Z</time>
      </trkpt>
      <trkpt lat="47.44109" lon="-0.4156">
        <ele>25.61</ele>
        <time>2015-03-22T08:32:49Z</time>
      </trkpt>
      <trkpt lat="47.44114" lon="-0.41558">
        <ele>25.61</ele>
        <time>2015-03-22T08:32:50Z</time>
      </trkpt>
      <trkpt lat="47.44119" lon="-0.41559">
        <ele>25.61</ele>
        <time>2015-03-22T08:32:51Z</time>
      </trkpt>
      <trkpt lat="47.44124" lon="-0.41563">
        <ele>26.09</ele>
        <time>2015-03-22T08:32:52Z</time>
      </trkpt>
      <trkpt lat="47.44129" lon="-0.41567">
        <ele>25.61</ele>
        <time>2015-03-22T08:32:53Z</time>
      </trkpt>
      <trkpt lat="47.44213" lon="-0.41623">
        <ele>26.09</ele>
        <time>2015-03-22T08:33:11Z</time>
      </trkpt>
      <trkpt lat="47.44218" lon="-0.41624">
        <ele>25.61</ele>
        <time>2015-03-22T08:33:12Z</time>
      </trkpt>
      <trkpt lat="47.44223" lon="-0.41624">
        <ele>25.61</ele>
        <time>2015-03-22T08:33:13Z</time>
      </trkpt>
      <trkpt lat="47.44228" lon="-0.41623">
        <ele>26.09</ele>
        <time>2015-03-22T08:33:14Z</time>
      </trkpt>
      <trkpt lat="47.44232" lon="-0.41618">
        <ele>26.57</ele>
        <time>2015-03-22T08:33:15Z</time>
      </trkpt>
      <trkpt lat="47.44235" lon="-0.41612">
        <ele>26.57</ele>
        <time>2015-03-22T08:33:16Z</time>
      </trkpt>
      <trkpt lat="47.44237" lon="-0.41605">
        <ele>27.05</ele>
        <time>2015-03-22T08:33:17Z</time>
      </trkpt>
      <trkpt lat="47.44238" lon="-0.41597">
        <ele>27.05</ele>
        <time>2015-03-22T08:33:18Z</time>
      </trkpt>
      <trkpt lat="47.44239" lon="-0.4159">
        <ele>27.05</ele>
        <time>2015-03-22T08:33:19Z</time>
      </trkpt>
      <trkpt lat="47.44252" lon="-0.41476">
        <ele>26.57</ele>
        <time>2015-03-22T08:33:34Z</time>
      </trkpt>
      <trkpt lat="47.44248" lon="-0.41404">
        <ele>27.05</ele>
        <time>2015-03-22T08:33:43Z</time>
      </trkpt>
      <trkpt lat="47.44279" lon="-0.41288">
        <ele>27.05</ele>
        <time>2015-03-22T08:34:00Z</time>
      </trkpt>
      <trkpt lat="47.44331" lon="-0.41177">
        <ele>26.57</ele>
        <time>2015-03-22T08:34:18Z</time>
      </trkpt>
      <trkpt lat="47.44398" lon="-0.41099">
        <ele>26.09</ele>
        <time>2015-03-22T08:34:35Z</time>
      </trkpt>
      <trkpt lat="47.44449" lon="-0.41039">
        <ele>27.05</ele>
        <time>2015-03-22T08:34:49Z</time>
      </trkpt>
      <trkpt lat="47.44448" lon="-0.41035">
        <ele>27.05</ele>
        <time>2015-03-22T08:34:50Z</time>
      </trkpt>
      <trkpt lat="47.44445" lon="-0.41031">
        <ele>27.05</ele>
        <time>2015-03-22T08:34:51Z</time>
      </trkpt>
      <trkpt lat="47.44437" lon="-0.41026">
        <ele>27.53</ele>
        <time>2015-03-22T08:34:53Z</time>
      </trkpt>
      <trkpt lat="47.44434" lon="-0.41023">
        <ele>27.53</ele>
        <time>2015-03-22T08:34:54Z</time>
      </trkpt>
      <trkpt lat="47.4443" lon="-0.41019">
        <ele>28.02</ele>
        <time>2015-03-22T08:34:55Z</time>
      </trkpt>
      <trkpt lat="47.44398" lon="-0.40987">
        <ele>30.42</ele>
        <time>2015-03-22T08:35:05Z</time>
      </trkpt>
      <trkpt lat="47.44381" lon="-0.4097">
        <ele>28.98</ele>
        <time>2015-03-22T08:35:10Z</time>
      </trkpt>
      <trkpt lat="47.44376" lon="-0.40967">
        <ele>27.53</ele>
        <time>2015-03-22T08:35:11Z</time>
      </trkpt>
      <trkpt lat="47.44372" lon="-0.40964">
        <ele>28.02</ele>
        <time>2015-03-22T08:35:12Z</time>
      </trkpt>
      <trkpt lat="47.44328" lon="-0.40921">
        <ele>26.57</ele>
        <time>2015-03-22T08:35:21Z</time>
      </trkpt>
      <trkpt lat="47.44324" lon="-0.40914">
        <ele>26.57</ele>
        <time>2015-03-22T08:35:22Z</time>
      </trkpt>
      <trkpt lat="47.44322" lon="-0.40906">
        <ele>26.09</ele>
        <time>2015-03-22T08:35:23Z</time>
      </trkpt>
      <trkpt lat="47.44321" lon="-0.40897">
        <ele>26.09</ele>
        <time>2015-03-22T08:35:24Z</time>
      </trkpt>
      <trkpt lat="47.44323" lon="-0.40889">
        <ele>26.09</ele>
        <time>2015-03-22T08:35:25Z</time>
      </trkpt>
      <trkpt lat="47.44326" lon="-0.40882">
        <ele>26.57</ele>
        <time>2015-03-22T08:35:26Z</time>
      </trkpt>
      <trkpt lat="47.44329" lon="-0.40876">
        <ele>26.57</ele>
        <time>2015-03-22T08:35:27Z</time>
      </trkpt>
      <trkpt lat="47.44332" lon="-0.40869">
        <ele>26.57</ele>
        <time>2015-03-22T08:35:28Z</time>
      </trkpt>
      <trkpt lat="47.44337" lon="-0.40856">
        <ele>26.57</ele>
        <time>2015-03-22T08:35:30Z</time>
      </trkpt>
      <trkpt lat="47.44379" lon="-0.40753">
        <ele>26.57</ele>
        <time>2015-03-22T08:35:48Z</time>
      </trkpt>
      <trkpt lat="47.444" lon="-0.40694">
        <ele>26.57</ele>
        <time>2015-03-22T08:35:57Z</time>
      </trkpt>
      <trkpt lat="47.444" lon="-0.40687">
        <ele>26.57</ele>
        <time>2015-03-22T08:35:58Z</time>
      </trkpt>
      <trkpt lat="47.444" lon="-0.4068">
        <ele>26.09</ele>
        <time>2015-03-22T08:35:59Z</time>
      </trkpt>
      <trkpt lat="47.444" lon="-0.40674">
        <ele>25.61</ele>
        <time>2015-03-22T08:36:00Z</time>
      </trkpt>
      <trkpt lat="47.44399" lon="-0.40667">
        <ele>26.09</ele>
        <time>2015-03-22T08:36:01Z</time>
      </trkpt>
      <trkpt lat="47.44398" lon="-0.40661">
        <ele>25.61</ele>
        <time>2015-03-22T08:36:02Z</time>
      </trkpt>
      <trkpt lat="47.44397" lon="-0.40654">
        <ele>25.61</ele>
        <time>2015-03-22T08:36:03Z</time>
      </trkpt>
      <trkpt lat="47.4439" lon="-0.40618">
        <ele>25.61</ele>
        <time>2015-03-22T08:36:09Z</time>
      </trkpt>
      <trkpt lat="47.44389" lon="-0.40612">
        <ele>26.09</ele>
        <time>2015-03-22T08:36:10Z</time>
      </trkpt>
      <trkpt lat="47.44375" lon="-0.40537">
        <ele>25.61</ele>
        <time>2015-03-22T08:36:21Z</time>
      </trkpt>
      <trkpt lat="47.44374" lon="-0.4053">
        <ele>25.61</ele>
        <time>2015-03-22T08:36:22Z</time>
      </trkpt>
      <trkpt lat="47.44361" lon="-0.40445">
        <ele>25.61</ele>
        <time>2015-03-22T08:36:33Z</time>
      </trkpt>
      <trkpt lat="47.4436" lon="-0.40437">
        <ele>25.61</ele>
        <time>2015-03-22T08:36:34Z</time>
      </trkpt>
      <trkpt lat="47.44351" lon="-0.4038">
        <ele>25.13</ele>
        <time>2015-03-22T08:36:41Z</time>
      </trkpt>
      <trkpt lat="47.44349" lon="-0.40372">
        <ele>25.61</ele>
        <time>2015-03-22T08:36:42Z</time>
      </trkpt>
      <trkpt lat="47.4433" lon="-0.40245">
        <ele>25.13</ele>
        <time>2015-03-22T08:36:58Z</time>
      </trkpt>
      <trkpt lat="47.44304" lon="-0.40123">
        <ele>24.65</ele>
        <time>2015-03-22T08:37:14Z</time>
      </trkpt>
      <trkpt lat="47.4428" lon="-0.40029">
        <ele>25.13</ele>
        <time>2015-03-22T08:37:26Z</time>
      </trkpt>
      <trkpt lat="47.44248" lon="-0.39908">
        <ele>25.13</ele>
        <time>2015-03-22T08:37:42Z</time>
      </trkpt>
      <trkpt lat="47.44236" lon="-0.39881">
        <ele>24.65</ele>
        <time>2015-03-22T08:37:46Z</time>
      </trkpt>
      <trkpt lat="47.44196" lon="-0.39812">
        <ele>25.13</ele>
        <time>2015-03-22T08:37:57Z</time>
      </trkpt>
      <trkpt lat="47.44188" lon="-0.39789">
        <ele>25.13</ele>
        <time>2015-03-22T08:38:00Z</time>
      </trkpt>
      <trkpt lat="47.44186" lon="-0.3978">
        <ele>25.61</ele>
        <time>2015-03-22T08:38:01Z</time>
      </trkpt>
      <trkpt lat="47.44185" lon="-0.39772">
        <ele>25.13</ele>
        <time>2015-03-22T08:38:02Z</time>
      </trkpt>
      <trkpt lat="47.44184" lon="-0.39764">
        <ele>25.13</ele>
        <time>2015-03-22T08:38:03Z</time>
      </trkpt>
      <trkpt lat="47.44184" lon="-0.39755">
        <ele>25.13</ele>
        <time>2015-03-22T08:38:04Z</time>
      </trkpt>
      <trkpt lat="47.44184" lon="-0.396">
        <ele>25.13</ele>
        <time>2015-03-22T08:38:22Z</time>
      </trkpt>
      <trkpt lat="47.44184" lon="-0.39582">
        <ele>24.65</ele>
        <time>2015-03-22T08:38:24Z</time>
      </trkpt>
      <trkpt lat="47.44181" lon="-0.39528">
        <ele>24.65</ele>
        <time>2015-03-22T08:38:30Z</time>
      </trkpt>
      <trkpt lat="47.44181" lon="-0.3951">
        <ele>24.65</ele>
        <time>2015-03-22T08:38:32Z</time>
      </trkpt>
      <trkpt lat="47.44171" lon="-0.39438">
        <ele>25.13</ele>
        <time>2015-03-22T08:38:40Z</time>
      </trkpt>
      <trkpt lat="47.44137" lon="-0.39333">
        <ele>24.65</ele>
        <time>2015-03-22T08:38:54Z</time>
      </trkpt>
      <trkpt lat="47.44136" lon="-0.39325">
        <ele>25.13</ele>
        <time>2015-03-22T08:38:55Z</time>
      </trkpt>
      <trkpt lat="47.44136" lon="-0.39317">
        <ele>25.13</ele>
        <time>2015-03-22T08:38:56Z</time>
      </trkpt>
      <trkpt lat="47.44137" lon="-0.39309">
        <ele>25.13</ele>
        <time>2015-03-22T08:38:57Z</time>
      </trkpt>
      <trkpt lat="47.44139" lon="-0.393">
        <ele>25.13</ele>
        <time>2015-03-22T08:38:58Z</time>
      </trkpt>
      <trkpt lat="47.44141" lon="-0.39292">
        <ele>25.13</ele>
        <time>2015-03-22T08:38:59Z</time>
      </trkpt>
      <trkpt lat="47.44155" lon="-0.39236">
        <ele>25.13</ele>
        <time>2015-03-22T08:39:06Z</time>
      </trkpt>
      <trkpt lat="47.44155" lon="-0.39227">
        <ele>24.17</ele>
        <time>2015-03-22T08:39:07Z</time>
      </trkpt>
      <trkpt lat="47.44153" lon="-0.39219">
        <ele>23.69</ele>
        <time>2015-03-22T08:39:08Z</time>
      </trkpt>
      <trkpt lat="47.4415" lon="-0.39212">
        <ele>22.73</ele>
        <time>2015-03-22T08:39:09Z</time>
      </trkpt>
      <trkpt lat="47.44147" lon="-0.39206">
        <ele>23.21</ele>
        <time>2015-03-22T08:39:10Z</time>
      </trkpt>
      <trkpt lat="47.44143" lon="-0.39201">
        <ele>22.73</ele>
        <time>2015-03-22T08:39:11Z</time>
      </trkpt>
      <trkpt lat="47.44138" lon="-0.39195">
        <ele>23.69</ele>
        <time>2015-03-22T08:39:12Z</time>
      </trkpt>
      <trkpt lat="47.44105" lon="-0.39155">
        <ele>23.69</ele>
        <time>2015-03-22T08:39:19Z</time>
      </trkpt>
      <trkpt lat="47.441" lon="-0.39148">
        <ele>23.69</ele>
        <time>2015-03-22T08:39:20Z</time>
      </trkpt>
      <trkpt lat="47.44097" lon="-0.3914">
        <ele>23.69</ele>
        <time>2015-03-22T08:39:21Z</time>
      </trkpt>
      <trkpt lat="47.44094" lon="-0.39131">
        <ele>23.69</ele>
        <time>2015-03-22T08:39:22Z</time>
      </trkpt>
      <trkpt lat="47.44093" lon="-0.39121">
        <ele>23.69</ele>
        <time>2015-03-22T08:39:23Z</time>
      </trkpt>
      <trkpt lat="47.44092" lon="-0.39111">
        <ele>23.69</ele>
        <time>2015-03-22T08:39:24Z</time>
      </trkpt>
      <trkpt lat="47.44092" lon="-0.39101">
        <ele>23.69</ele>
        <time>2015-03-22T08:39:25Z</time>
      </trkpt>
      <trkpt lat="47.44095" lon="-0.3901">
        <ele>24.17</ele>
        <time>2015-03-22T08:39:35Z</time>
      </trkpt>
      <trkpt lat="47.44094" lon="-0.39001">
        <ele>24.17</ele>
        <time>2015-03-22T08:39:36Z</time>
      </trkpt>
      <trkpt lat="47.4409" lon="-0.38994">
        <ele>23.69</ele>
        <time>2015-03-22T08:39:37Z</time>
      </trkpt>
      <trkpt lat="47.44086" lon="-0.38989">
        <ele>24.17</ele>
        <time>2015-03-22T08:39:38Z</time>
      </trkpt>
      <trkpt lat="47.44079" lon="-0.38985">
        <ele>24.17</ele>
        <time>2015-03-22T08:39:39Z</time>
      </trkpt>
      <trkpt lat="47.44073" lon="-0.38984">
        <ele>23.69</ele>
        <time>2015-03-22T08:39:40Z</time>
      </trkpt>
      <trkpt lat="47.44066" lon="-0.38984">
        <ele>24.17</ele>
        <time>2015-03-22T08:39:41Z</time>
      </trkpt>
      <trkpt lat="47.44041" lon="-0.38981">
        <ele>23.21</ele>
        <time>2015-03-22T08:39:45Z</time>
      </trkpt>
      <trkpt lat="47.44009" lon="-0.38977">
        <ele>23.69</ele>
        <time>2015-03-22T08:39:50Z</time>
      </trkpt>
      <trkpt lat="47.44003" lon="-0.38976">
        <ele>23.69</ele>
        <time>2015-03-22T08:39:51Z</time>
      </trkpt>
      <trkpt lat="47.43997" lon="-0.38975">
        <ele>23.69</ele>
        <time>2015-03-22T08:39:52Z</time>
      </trkpt>
      <trkpt lat="47.43991" lon="-0.38974">
        <ele>23.69</ele>
        <time>2015-03-22T08:39:53Z</time>
      </trkpt>
      <trkpt lat="47.43985" lon="-0.38974">
        <ele>24.17</ele>
        <time>2015-03-22T08:39:54Z</time>
      </trkpt>
      <trkpt lat="47.43957" lon="-0.38972">
        <ele>23.69</ele>
        <time>2015-03-22T08:39:59Z</time>
      </trkpt>
      <trkpt lat="47.43918" lon="-0.38969">
        <ele>23.69</ele>
        <time>2015-03-22T08:40:06Z</time>
      </trkpt>
      <trkpt lat="47.43907" lon="-0.38966">
        <ele>24.17</ele>
        <time>2015-03-22T08:40:08Z</time>
      </trkpt>
      <trkpt lat="47.43903" lon="-0.38962">
        <ele>24.65</ele>
        <time>2015-03-22T08:40:09Z</time>
      </trkpt>
      <trkpt lat="47.439" lon="-0.38956">
        <ele>24.65</ele>
        <time>2015-03-22T08:40:10Z</time>
      </trkpt>
      <trkpt lat="47.43899" lon="-0.38948">
        <ele>23.69</ele>
        <time>2015-03-22T08:40:11Z</time>
      </trkpt>
      <trkpt lat="47.439" lon="-0.3894">
        <ele>24.65</ele>
        <time>2015-03-22T08:40:12Z</time>
      </trkpt>
      <trkpt lat="47.43903" lon="-0.38933">
        <ele>24.17</ele>
        <time>2015-03-22T08:40:13Z</time>
      </trkpt>
      <trkpt lat="47.43905" lon="-0.38926">
        <ele>24.17</ele>
        <time>2015-03-22T08:40:14Z</time>
      </trkpt>
      <trkpt lat="47.43925" lon="-0.38852">
        <ele>23.69</ele>
        <time>2015-03-22T08:40:23Z</time>
      </trkpt>
      <trkpt lat="47.43941" lon="-0.38765">
        <ele>24.65</ele>
        <time>2015-03-22T08:40:34Z</time>
      </trkpt>
      <trkpt lat="47.43966" lon="-0.38641">
        <ele>24.65</ele>
        <time>2015-03-22T08:40:52Z</time>
      </trkpt>
      <trkpt lat="47.43975" lon="-0.386">
        <ele>24.65</ele>
        <time>2015-03-22T08:40:58Z</time>
      </trkpt>
      <trkpt lat="47.43976" lon="-0.38593">
        <ele>24.65</ele>
        <time>2015-03-22T08:40:59Z</time>
      </trkpt>
      <trkpt lat="47.43984" lon="-0.38553">
        <ele>25.13</ele>
        <time>2015-03-22T08:41:04Z</time>
      </trkpt>
      <trkpt lat="47.43984" lon="-0.38545">
        <ele>24.65</ele>
        <time>2015-03-22T08:41:05Z</time>
      </trkpt>
      <trkpt lat="47.43984" lon="-0.38529">
        <ele>24.65</ele>
        <time>2015-03-22T08:41:07Z</time>
      </trkpt>
      <trkpt lat="47.43983" lon="-0.3852">
        <ele>24.17</ele>
        <time>2015-03-22T08:41:08Z</time>
      </trkpt>
      <trkpt lat="47.4398" lon="-0.38505">
        <ele>24.65</ele>
        <time>2015-03-22T08:41:10Z</time>
      </trkpt>
      <trkpt lat="47.43974" lon="-0.38474">
        <ele>25.13</ele>
        <time>2015-03-22T08:41:14Z</time>
      </trkpt>
      <trkpt lat="47.43974" lon="-0.38466">
        <ele>24.65</ele>
        <time>2015-03-22T08:41:15Z</time>
      </trkpt>
      <trkpt lat="47.43975" lon="-0.38458">
        <ele>25.13</ele>
        <time>2015-03-22T08:41:16Z</time>
      </trkpt>
      <trkpt lat="47.43976" lon="-0.3845">
        <ele>25.13</ele>
        <time>2015-03-22T08:41:17Z</time>
      </trkpt>
      <trkpt lat="47.43977" lon="-0.38442">
        <ele>25.13</ele>
        <time>2015-03-22T08:41:18Z</time>
      </trkpt>
      <trkpt lat="47.43985" lon="-0.38412">
        <ele>25.13</ele>
        <time>2015-03-22T08:41:22Z</time>
      </trkpt>
      <trkpt lat="47.43988" lon="-0.38406">
        <ele>24.65</ele>
        <time>2015-03-22T08:41:23Z</time>
      </trkpt>
      <trkpt lat="47.44059" lon="-0.38323">
        <ele>25.61</ele>
        <time>2015-03-22T08:41:40Z</time>
      </trkpt>
      <trkpt lat="47.44067" lon="-0.38312">
        <ele>24.65</ele>
        <time>2015-03-22T08:41:42Z</time>
      </trkpt>
      <trkpt lat="47.4407" lon="-0.38306">
        <ele>24.65</ele>
        <time>2015-03-22T08:41:43Z</time>
      </trkpt>
      <trkpt lat="47.44073" lon="-0.38299">
        <ele>24.17</ele>
        <time>2015-03-22T08:41:44Z</time>
      </trkpt>
      <trkpt lat="47.44075" lon="-0.38292">
        <ele>24.65</ele>
        <time>2015-03-22T08:41:45Z</time>
      </trkpt>
      <trkpt lat="47.44077" lon="-0.38285">
        <ele>24.65</ele>
        <time>2015-03-22T08:41:46Z</time>
      </trkpt>
      <trkpt lat="47.44078" lon="-0.38277">
        <ele>25.13</ele>
        <time>2015-03-22T08:41:47Z</time>
      </trkpt>
      <trkpt lat="47.44099" lon="-0.38177">
        <ele>24.65</ele>
        <time>2015-03-22T08:42:00Z</time>
      </trkpt>
      <trkpt lat="47.44099" lon="-0.38169">
        <ele>24.65</ele>
        <time>2015-03-22T08:42:01Z</time>
      </trkpt>
      <trkpt lat="47.44099" lon="-0.3816">
        <ele>24.17</ele>
        <time>2015-03-22T08:42:02Z</time>
      </trkpt>
      <trkpt lat="47.44098" lon="-0.38152">
        <ele>24.17</ele>
        <time>2015-03-22T08:42:03Z</time>
      </trkpt>
      <trkpt lat="47.44097" lon="-0.38144">
        <ele>24.17</ele>
        <time>2015-03-22T08:42:04Z</time>
      </trkpt>
      <trkpt lat="47.44062" lon="-0.38015">
        <ele>24.17</ele>
        <time>2015-03-22T08:42:20Z</time>
      </trkpt>
      <trkpt lat="47.44031" lon="-0.37918">
        <ele>23.69</ele>
        <time>2015-03-22T08:42:33Z</time>
      </trkpt>
      <trkpt lat="47.43994" lon="-0.37832">
        <ele>24.17</ele>
        <time>2015-03-22T08:42:45Z</time>
      </trkpt>
      <trkpt lat="47.4399" lon="-0.37815">
        <ele>24.17</ele>
        <time>2015-03-22T08:42:47Z</time>
      </trkpt>
      <trkpt lat="47.43987" lon="-0.37791">
        <ele>24.65</ele>
        <time>2015-03-22T08:42:50Z</time>
      </trkpt>
      <trkpt lat="47.43987" lon="-0.37775">
        <ele>24.17</ele>
        <time>2015-03-22T08:42:52Z</time>
      </trkpt>
      <trkpt lat="47.43987" lon="-0.37767">
        <ele>25.13</ele>
        <time>2015-03-22T08:42:53Z</time>
      </trkpt>
      <trkpt lat="47.43988" lon="-0.3776">
        <ele>24.65</ele>
        <time>2015-03-22T08:42:54Z</time>
      </trkpt>
      <trkpt lat="47.4399" lon="-0.37753">
        <ele>24.65</ele>
        <time>2015-03-22T08:42:55Z</time>
      </trkpt>
      <trkpt lat="47.43992" lon="-0.37746">
        <ele>25.13</ele>
        <time>2015-03-22T08:42:56Z</time>
      </trkpt>
      <trkpt lat="47.44002" lon="-0.37711">
        <ele>25.13</ele>
        <time>2015-03-22T08:43:01Z</time>
      </trkpt>
      <trkpt lat="47.44003" lon="-0.37703">
        <ele>24.65</ele>
        <time>2015-03-22T08:43:02Z</time>
      </trkpt>
      <trkpt lat="47.44004" lon="-0.37695">
        <ele>24.65</ele>
        <time>2015-03-22T08:43:03Z</time>
      </trkpt>
      <trkpt lat="47.44009" lon="-0.3763">
        <ele>24.65</ele>
        <time>2015-03-22T08:43:11Z</time>
      </trkpt>
      <trkpt lat="47.44028" lon="-0.37548">
        <ele>24.65</ele>
        <time>2015-03-22T08:43:22Z</time>
      </trkpt>
      <trkpt lat="47.44028" lon="-0.37541">
        <ele>24.17</ele>
        <time>2015-03-22T08:43:23Z</time>
      </trkpt>
      <trkpt lat="47.44028" lon="-0.37533">
        <ele>23.69</ele>
        <time>2015-03-22T08:43:24Z</time>
      </trkpt>
      <trkpt lat="47.44027" lon="-0.37525">
        <ele>23.69</ele>
        <time>2015-03-22T08:43:25Z</time>
      </trkpt>
      <trkpt lat="47.44026" lon="-0.37517">
        <ele>24.17</ele>
        <time>2015-03-22T08:43:26Z</time>
      </trkpt>
      <trkpt lat="47.44024" lon="-0.37509">
        <ele>23.69</ele>
        <time>2015-03-22T08:43:27Z</time>
      </trkpt>
      <trkpt lat="47.43994" lon="-0.37376">
        <ele>24.17</ele>
        <time>2015-03-22T08:43:43Z</time>
      </trkpt>
      <trkpt lat="47.43982" lon="-0.37345">
        <ele>24.17</ele>
        <time>2015-03-22T08:43:47Z</time>
      </trkpt>
      <trkpt lat="47.43981" lon="-0.37338">
        <ele>24.65</ele>
        <time>2015-03-22T08:43:48Z</time>
      </trkpt>
      <trkpt lat="47.43979" lon="-0.3733">
        <ele>24.65</ele>
        <time>2015-03-22T08:43:49Z</time>
      </trkpt>
      <trkpt lat="47.43979" lon="-0.37321">
        <ele>24.17</ele>
        <time>2015-03-22T08:43:50Z</time>
      </trkpt>
      <trkpt lat="47.43979" lon="-0.37313">
        <ele>25.13</ele>
        <time>2015-03-22T08:43:51Z</time>
      </trkpt>
      <trkpt lat="47.4398" lon="-0.37305">
        <ele>25.13</ele>
        <time>2015-03-22T08:43:52Z</time>
      </trkpt>
      <trkpt lat="47.43981" lon="-0.37297">
        <ele>25.61</ele>
        <time>2015-03-22T08:43:53Z</time>
      </trkpt>
      <trkpt lat="47.43982" lon="-0.37289">
        <ele>24.65</ele>
        <time>2015-03-22T08:43:54Z</time>
      </trkpt>
      <trkpt lat="47.44" lon="-0.3716">
        <ele>24.65</ele>
        <time>2015-03-22T08:44:10Z</time>
      </trkpt>
      <trkpt lat="47.44001" lon="-0.37153">
        <ele>24.65</ele>
        <time>2015-03-22T08:44:11Z</time>
      </trkpt>
      <trkpt lat="47.44002" lon="-0.37146">
        <ele>24.17</ele>
        <time>2015-03-22T08:44:12Z</time>
      </trkpt>
      <trkpt lat="47.44022" lon="-0.36999">
        <ele>24.65</ele>
        <time>2015-03-22T08:44:31Z</time>
      </trkpt>
      <trkpt lat="47.44039" lon="-0.36861">
        <ele>23.69</ele>
        <time>2015-03-22T08:44:48Z</time>
      </trkpt>
      <trkpt lat="47.44039" lon="-0.36853">
        <ele>23.69</ele>
        <time>2015-03-22T08:44:49Z</time>
      </trkpt>
      <trkpt lat="47.44025" lon="-0.36761">
        <ele>24.17</ele>
        <time>2015-03-22T08:45:01Z</time>
      </trkpt>
      <trkpt lat="47.44023" lon="-0.36755">
        <ele>24.17</ele>
        <time>2015-03-22T08:45:02Z</time>
      </trkpt>
      <trkpt lat="47.44021" lon="-0.36748">
        <ele>23.69</ele>
        <time>2015-03-22T08:45:03Z</time>
      </trkpt>
      <trkpt lat="47.44018" lon="-0.36742">
        <ele>23.69</ele>
        <time>2015-03-22T08:45:04Z</time>
      </trkpt>
      <trkpt lat="47.44014" lon="-0.36736">
        <ele>23.69</ele>
        <time>2015-03-22T08:45:05Z</time>
      </trkpt>
      <trkpt lat="47.4401" lon="-0.36731">
        <ele>23.69</ele>
        <time>2015-03-22T08:45:06Z</time>
      </trkpt>
      <trkpt lat="47.43981" lon="-0.36672">
        <ele>24.65</ele>
        <time>2015-03-22T08:45:15Z</time>
      </trkpt>
      <trkpt lat="47.43977" lon="-0.36657">
        <ele>24.65</ele>
        <time>2015-03-22T08:45:17Z</time>
      </trkpt>
      <trkpt lat="47.43977" lon="-0.36649">
        <ele>24.17</ele>
        <time>2015-03-22T08:45:18Z</time>
      </trkpt>
      <trkpt lat="47.43976" lon="-0.36611">
        <ele>24.17</ele>
        <time>2015-03-22T08:45:23Z</time>
      </trkpt>
      <trkpt lat="47.43974" lon="-0.36603">
        <ele>24.17</ele>
        <time>2015-03-22T08:45:24Z</time>
      </trkpt>
      <trkpt lat="47.43972" lon="-0.36596">
        <ele>24.17</ele>
        <time>2015-03-22T08:45:25Z</time>
      </trkpt>
      <trkpt lat="47.43969" lon="-0.3659">
        <ele>24.17</ele>
        <time>2015-03-22T08:45:26Z</time>
      </trkpt>
      <trkpt lat="47.43966" lon="-0.36584">
        <ele>24.17</ele>
        <time>2015-03-22T08:45:27Z</time>
      </trkpt>
      <trkpt lat="47.43962" lon="-0.36579">
        <ele>24.17</ele>
        <time>2015-03-22T08:45:28Z</time>
      </trkpt>
      <trkpt lat="47.43958" lon="-0.36574">
        <ele>24.17</ele>
        <time>2015-03-22T08:45:29Z</time>
      </trkpt>
      <trkpt lat="47.43954" lon="-0.3657">
        <ele>24.17</ele>
        <time>2015-03-22T08:45:30Z</time>
      </trkpt>
      <trkpt lat="47.4391" lon="-0.36539">
        <ele>24.17</ele>
        <time>2015-03-22T08:45:39Z</time>
      </trkpt>
      <trkpt lat="47.43905" lon="-0.36534">
        <ele>24.17</ele>
        <time>2015-03-22T08:45:40Z</time>
      </trkpt>
      <trkpt lat="47.439" lon="-0.36529">
        <ele>24.65</ele>
        <time>2015-03-22T08:45:41Z</time>
      </trkpt>
      <trkpt lat="47.43896" lon="-0.36523">
        <ele>24.17</ele>
        <time>2015-03-22T08:45:42Z</time>
      </trkpt>
      <trkpt lat="47.43892" lon="-0.36516">
        <ele>24.65</ele>
        <time>2015-03-22T08:45:43Z</time>
      </trkpt>
      <trkpt lat="47.43833" lon="-0.36404">
        <ele>23.69</ele>
        <time>2015-03-22T08:45:59Z</time>
      </trkpt>
      <trkpt lat="47.43831" lon="-0.36395">
        <ele>24.65</ele>
        <time>2015-03-22T08:46:00Z</time>
      </trkpt>
      <trkpt lat="47.43831" lon="-0.36387">
        <ele>24.17</ele>
        <time>2015-03-22T08:46:01Z</time>
      </trkpt>
      <trkpt lat="47.43831" lon="-0.36379">
        <ele>24.17</ele>
        <time>2015-03-22T08:46:02Z</time>
      </trkpt>
      <trkpt lat="47.43832" lon="-0.36371">
        <ele>24.17</ele>
        <time>2015-03-22T08:46:03Z</time>
      </trkpt>
      <trkpt lat="47.43833" lon="-0.36364">
        <ele>24.17</ele>
        <time>2015-03-22T08:46:04Z</time>
      </trkpt>
      <trkpt lat="47.43836" lon="-0.36357">
        <ele>24.65</ele>
        <time>2015-03-22T08:46:05Z</time>
      </trkpt>
      <trkpt lat="47.43838" lon="-0.3635">
        <ele>25.13</ele>
        <time>2015-03-22T08:46:06Z</time>
      </trkpt>
      <trkpt lat="47.43863" lon="-0.363">
        <ele>24.17</ele>
        <time>2015-03-22T08:46:14Z</time>
      </trkpt>
      <trkpt lat="47.43878" lon="-0.3627">
        <ele>24.65</ele>
        <time>2015-03-22T08:46:19Z</time>
      </trkpt>
      <trkpt lat="47.4388" lon="-0.36262">
        <ele>24.17</ele>
        <time>2015-03-22T08:46:20Z</time>
      </trkpt>
      <trkpt lat="47.43881" lon="-0.36255">
        <ele>24.17</ele>
        <time>2015-03-22T08:46:21Z</time>
      </trkpt>
      <trkpt lat="47.43882" lon="-0.36247">
        <ele>24.65</ele>
        <time>2015-03-22T08:46:22Z</time>
      </trkpt>
      <trkpt lat="47.43881" lon="-0.36239">
        <ele>24.17</ele>
        <time>2015-03-22T08:46:23Z</time>
      </trkpt>
      <trkpt lat="47.43859" lon="-0.36148">
        <ele>24.65</ele>
        <time>2015-03-22T08:46:35Z</time>
      </trkpt>
      <trkpt lat="47.43856" lon="-0.36141">
        <ele>24.65</ele>
        <time>2015-03-22T08:46:36Z</time>
      </trkpt>
      <trkpt lat="47.43825" lon="-0.36055">
        <ele>24.17</ele>
        <time>2015-03-22T08:46:48Z</time>
      </trkpt>
      <trkpt lat="47.43821" lon="-0.36048">
        <ele>24.65</ele>
        <time>2015-03-22T08:46:49Z</time>
      </trkpt>
      <trkpt lat="47.43796" lon="-0.36009">
        <ele>24.65</ele>
        <time>2015-03-22T08:46:56Z</time>
      </trkpt>
      <trkpt lat="47.43732" lon="-0.35913">
        <ele>23.69</ele>
        <time>2015-03-22T08:47:12Z</time>
      </trkpt>
      <trkpt lat="47.43713" lon="-0.35879">
        <ele>23.69</ele>
        <time>2015-03-22T08:47:17Z</time>
      </trkpt>
      <trkpt lat="47.43711" lon="-0.35871">
        <ele>23.69</ele>
        <time>2015-03-22T08:47:18Z</time>
      </trkpt>
      <trkpt lat="47.43709" lon="-0.35863">
        <ele>24.17</ele>
        <time>2015-03-22T08:47:19Z</time>
      </trkpt>
      <trkpt lat="47.43708" lon="-0.35855">
        <ele>24.17</ele>
        <time>2015-03-22T08:47:20Z</time>
      </trkpt>
      <trkpt lat="47.43707" lon="-0.35846">
        <ele>24.17</ele>
        <time>2015-03-22T08:47:21Z</time>
      </trkpt>
      <trkpt lat="47.43694" lon="-0.35729">
        <ele>24.17</ele>
        <time>2015-03-22T08:47:36Z</time>
      </trkpt>
      <trkpt lat="47.43661" lon="-0.35607">
        <ele>24.65</ele>
        <time>2015-03-22T08:47:52Z</time>
      </trkpt>
      <trkpt lat="47.43658" lon="-0.35601">
        <ele>24.65</ele>
        <time>2015-03-22T08:47:53Z</time>
      </trkpt>
      <trkpt lat="47.43654" lon="-0.35595">
        <ele>24.65</ele>
        <time>2015-03-22T08:47:54Z</time>
      </trkpt>
      <trkpt lat="47.4365" lon="-0.3559">
        <ele>24.65</ele>
        <time>2015-03-22T08:47:55Z</time>
      </trkpt>
      <trkpt lat="47.43645" lon="-0.35584">
        <ele>24.17</ele>
        <time>2015-03-22T08:47:56Z</time>
      </trkpt>
      <trkpt lat="47.43643" lon="-0.35576">
        <ele>24.65</ele>
        <time>2015-03-22T08:47:57Z</time>
      </trkpt>
      <trkpt lat="47.43641" lon="-0.35568">
        <ele>24.65</ele>
        <time>2015-03-22T08:47:58Z</time>
      </trkpt>
      <trkpt lat="47.43641" lon="-0.3556">
        <ele>24.65</ele>
        <time>2015-03-22T08:47:59Z</time>
      </trkpt>
      <trkpt lat="47.43641" lon="-0.35551">
        <ele>24.65</ele>
        <time>2015-03-22T08:48:00Z</time>
      </trkpt>
      <trkpt lat="47.43642" lon="-0.35543">
        <ele>24.65</ele>
        <time>2015-03-22T08:48:01Z</time>
      </trkpt>
      <trkpt lat="47.43644" lon="-0.35536">
        <ele>24.17</ele>
        <time>2015-03-22T08:48:02Z</time>
      </trkpt>
      <trkpt lat="47.43646" lon="-0.35529">
        <ele>24.65</ele>
        <time>2015-03-22T08:48:03Z</time>
      </trkpt>
      <trkpt lat="47.4365" lon="-0.35523">
        <ele>25.13</ele>
        <time>2015-03-22T08:48:04Z</time>
      </trkpt>
      <trkpt lat="47.43653" lon="-0.35517">
        <ele>24.65</ele>
        <time>2015-03-22T08:48:05Z</time>
      </trkpt>
      <trkpt lat="47.43671" lon="-0.3549">
        <ele>24.65</ele>
        <time>2015-03-22T08:48:10Z</time>
      </trkpt>
      <trkpt lat="47.43673" lon="-0.35484">
        <ele>24.17</ele>
        <time>2015-03-22T08:48:11Z</time>
      </trkpt>
      <trkpt lat="47.43672" lon="-0.35478">
        <ele>24.65</ele>
        <time>2015-03-22T08:48:12Z</time>
      </trkpt>
      <trkpt lat="47.43668" lon="-0.35475">
        <ele>24.65</ele>
        <time>2015-03-22T08:48:13Z</time>
      </trkpt>
      <trkpt lat="47.43664" lon="-0.35474">
        <ele>24.65</ele>
        <time>2015-03-22T08:48:14Z</time>
      </trkpt>
      <trkpt lat="47.4366" lon="-0.35475">
        <ele>24.65</ele>
        <time>2015-03-22T08:48:15Z</time>
      </trkpt>
      <trkpt lat="47.43656" lon="-0.35477">
        <ele>24.65</ele>
        <time>2015-03-22T08:48:16Z</time>
      </trkpt>
      <trkpt lat="47.43648" lon="-0.3548">
        <ele>24.17</ele>
        <time>2015-03-22T08:48:18Z</time>
      </trkpt>
      <trkpt lat="47.43643" lon="-0.35481">
        <ele>24.17</ele>
        <time>2015-03-22T08:48:19Z</time>
      </trkpt>
      <trkpt lat="47.43638" lon="-0.3548">
        <ele>24.65</ele>
        <time>2015-03-22T08:48:20Z</time>
      </trkpt>
      <trkpt lat="47.43635" lon="-0.35478">
        <ele>24.17</ele>
        <time>2015-03-22T08:48:21Z</time>
      </trkpt>
      <trkpt lat="47.43632" lon="-0.35474">
        <ele>24.17</ele>
        <time>2015-03-22T08:48:22Z</time>
      </trkpt>
      <trkpt lat="47.43631" lon="-0.35468">
        <ele>24.17</ele>
        <time>2015-03-22T08:48:23Z</time>
      </trkpt>
      <trkpt lat="47.43631" lon="-0.35463">
        <ele>24.17</ele>
        <time>2015-03-22T08:48:24Z</time>
      </trkpt>
      <trkpt lat="47.43632" lon="-0.35457">
        <ele>24.65</ele>
        <time>2015-03-22T08:48:25Z</time>
      </trkpt>
      <trkpt lat="47.43633" lon="-0.35451">
        <ele>24.17</ele>
        <time>2015-03-22T08:48:26Z</time>
      </trkpt>
      <trkpt lat="47.43634" lon="-0.35444">
        <ele>24.65</ele>
        <time>2015-03-22T08:48:27Z</time>
      </trkpt>
      <trkpt lat="47.43635" lon="-0.35437">
        <ele>25.13</ele>
        <time>2015-03-22T08:48:28Z</time>
      </trkpt>
      <trkpt lat="47.43635" lon="-0.3543">
        <ele>24.65</ele>
        <time>2015-03-22T08:48:29Z</time>
      </trkpt>
      <trkpt lat="47.43645" lon="-0.35315">
        <ele>25.13</ele>
        <time>2015-03-22T08:48:43Z</time>
      </trkpt>
      <trkpt lat="47.43654" lon="-0.35193">
        <ele>24.65</ele>
        <time>2015-03-22T08:48:58Z</time>
      </trkpt>
      <trkpt lat="47.43653" lon="-0.35178">
        <ele>24.17</ele>
        <time>2015-03-22T08:49:00Z</time>
      </trkpt>
      <trkpt lat="47.43652" lon="-0.35162">
        <ele>24.65</ele>
        <time>2015-03-22T08:49:02Z</time>
      </trkpt>
      <trkpt lat="47.43651" lon="-0.35155">
        <ele>24.17</ele>
        <time>2015-03-22T08:49:03Z</time>
      </trkpt>
      <trkpt lat="47.43637" lon="-0.35039">
        <ele>24.17</ele>
        <time>2015-03-22T08:49:18Z</time>
      </trkpt>
      <trkpt lat="47.43626" lon="-0.34922">
        <ele>24.65</ele>
        <time>2015-03-22T08:49:33Z</time>
      </trkpt>
      <trkpt lat="47.43616" lon="-0.34815">
        <ele>24.65</ele>
        <time>2015-03-22T08:49:46Z</time>
      </trkpt>
      <trkpt lat="47.43615" lon="-0.34807">
        <ele>25.61</ele>
        <time>2015-03-22T08:49:47Z</time>
      </trkpt>
      <trkpt lat="47.43605" lon="-0.34695">
        <ele>24.65</ele>
        <time>2015-03-22T08:50:00Z</time>
      </trkpt>
      <trkpt lat="47.43594" lon="-0.34555">
        <ele>24.17</ele>
        <time>2015-03-22T08:50:16Z</time>
      </trkpt>
      <trkpt lat="47.4358" lon="-0.34412">
        <ele>24.65</ele>
        <time>2015-03-22T08:50:33Z</time>
      </trkpt>
      <trkpt lat="47.4358" lon="-0.34404">
        <ele>24.65</ele>
        <time>2015-03-22T08:50:34Z</time>
      </trkpt>
      <trkpt lat="47.43589" lon="-0.34361">
        <ele>25.61</ele>
        <time>2015-03-22T08:50:39Z</time>
      </trkpt>
      <trkpt lat="47.43591" lon="-0.34354">
        <ele>25.61</ele>
        <time>2015-03-22T08:50:40Z</time>
      </trkpt>
      <trkpt lat="47.43594" lon="-0.3434">
        <ele>25.61</ele>
        <time>2015-03-22T08:50:42Z</time>
      </trkpt>
      <trkpt lat="47.43596" lon="-0.34333">
        <ele>25.61</ele>
        <time>2015-03-22T08:50:43Z</time>
      </trkpt>
      <trkpt lat="47.43598" lon="-0.34327">
        <ele>25.61</ele>
        <time>2015-03-22T08:50:44Z</time>
      </trkpt>
      <trkpt lat="47.43599" lon="-0.34323">
        <ele>25.61</ele>
        <time>2015-03-22T08:50:45Z</time>
      </trkpt>
      <trkpt lat="47.43599" lon="-0.3432">
        <ele>24.65</ele>
        <time>2015-03-22T08:50:46Z</time>
      </trkpt>
      <trkpt lat="47.43598" lon="-0.3432">
        <ele>24.65</ele>
        <time>2015-03-22T08:50:59Z</time>
      </trkpt>
      <trkpt lat="47.43595" lon="-0.34319">
        <ele>24.65</ele>
        <time>2015-03-22T08:51:06Z</time>
      </trkpt>
      <trkpt lat="47.43559" lon="-0.34316">
        <ele>25.13</ele>
        <time>2015-03-22T08:51:15Z</time>
      </trkpt>
      <trkpt lat="47.43537" lon="-0.34317">
        <ele>24.65</ele>
        <time>2015-03-22T08:51:20Z</time>
      </trkpt>
      <trkpt lat="47.43472" lon="-0.3432">
        <ele>24.65</ele>
        <time>2015-03-22T08:51:36Z</time>
      </trkpt>
      <trkpt lat="47.4345" lon="-0.34313">
        <ele>24.65</ele>
        <time>2015-03-22T08:51:42Z</time>
      </trkpt>
      <trkpt lat="47.43448" lon="-0.34308">
        <ele>25.13</ele>
        <time>2015-03-22T08:51:43Z</time>
      </trkpt>
      <trkpt lat="47.43447" lon="-0.34301">
        <ele>24.65</ele>
        <time>2015-03-22T08:51:44Z</time>
      </trkpt>
      <trkpt lat="47.4345" lon="-0.34162">
        <ele>24.65</ele>
        <time>2015-03-22T08:52:03Z</time>
      </trkpt>
      <trkpt lat="47.43448" lon="-0.34039">
        <ele>24.65</ele>
        <time>2015-03-22T08:52:20Z</time>
      </trkpt>
      <trkpt lat="47.43444" lon="-0.33908">
        <ele>24.17</ele>
        <time>2015-03-22T08:52:37Z</time>
      </trkpt>
      <trkpt lat="47.43443" lon="-0.33779">
        <ele>24.65</ele>
        <time>2015-03-22T08:52:54Z</time>
      </trkpt>
      <trkpt lat="47.43438" lon="-0.33652">
        <ele>24.17</ele>
        <time>2015-03-22T08:53:09Z</time>
      </trkpt>
      <trkpt lat="47.43433" lon="-0.33494">
        <ele>24.65</ele>
        <time>2015-03-22T08:53:28Z</time>
      </trkpt>
      <trkpt lat="47.43425" lon="-0.33364">
        <ele>24.17</ele>
        <time>2015-03-22T08:53:45Z</time>
      </trkpt>
      <trkpt lat="47.4342" lon="-0.33273">
        <ele>23.69</ele>
        <time>2015-03-22T08:54:00Z</time>
      </trkpt>
      <trkpt lat="47.43421" lon="-0.33269">
        <ele>24.65</ele>
        <time>2015-03-22T08:54:01Z</time>
      </trkpt>
      <trkpt lat="47.43423" lon="-0.33267">
        <ele>24.65</ele>
        <time>2015-03-22T08:54:02Z</time>
      </trkpt>
      <trkpt lat="47.43426" lon="-0.33266">
        <ele>24.17</ele>
        <time>2015-03-22T08:54:03Z</time>
      </trkpt>
      <trkpt lat="47.43429" lon="-0.33266">
        <ele>24.65</ele>
        <time>2015-03-22T08:54:04Z</time>
      </trkpt>
      <trkpt lat="47.43433" lon="-0.33266">
        <ele>24.17</ele>
        <time>2015-03-22T08:54:05Z</time>
      </trkpt>
      <trkpt lat="47.43436" lon="-0.33266">
        <ele>24.17</ele>
        <time>2015-03-22T08:54:06Z</time>
      </trkpt>
      <trkpt lat="47.43492" lon="-0.33266">
        <ele>24.65</ele>
        <time>2015-03-22T08:54:19Z</time>
      </trkpt>
      <trkpt lat="47.43567" lon="-0.33266">
        <ele>24.65</ele>
        <time>2015-03-22T08:54:35Z</time>
      </trkpt>
      <trkpt lat="47.43629" lon="-0.33264">
        <ele>24.17</ele>
        <time>2015-03-22T08:54:49Z</time>
      </trkpt>
      <trkpt lat="47.43677" lon="-0.33262">
        <ele>24.17</ele>
        <time>2015-03-22T08:55:00Z</time>
      </trkpt>
      <trkpt lat="47.43755" lon="-0.33232">
        <ele>25.13</ele>
        <time>2015-03-22T08:55:15Z</time>
      </trkpt>
      <trkpt lat="47.43825" lon="-0.3321">
        <ele>24.17</ele>
        <time>2015-03-22T08:55:29Z</time>
      </trkpt>
      <trkpt lat="47.43905" lon="-0.33185">
        <ele>24.65</ele>
        <time>2015-03-22T08:55:45Z</time>
      </trkpt>
      <trkpt lat="47.4393" lon="-0.33177">
        <ele>24.65</ele>
        <time>2015-03-22T08:55:50Z</time>
      </trkpt>
      <trkpt lat="47.43935" lon="-0.33175">
        <ele>24.65</ele>
        <time>2015-03-22T08:55:51Z</time>
      </trkpt>
      <trkpt lat="47.43982" lon="-0.3316">
        <ele>24.17</ele>
        <time>2015-03-22T08:56:02Z</time>
      </trkpt>
      <trkpt lat="47.44053" lon="-0.33137">
        <ele>24.17</ele>
        <time>2015-03-22T08:56:16Z</time>
      </trkpt>
      <trkpt lat="47.44124" lon="-0.33117">
        <ele>23.69</ele>
        <time>2015-03-22T08:56:30Z</time>
      </trkpt>
      <trkpt lat="47.44214" lon="-0.33088">
        <ele>24.17</ele>
        <time>2015-03-22T08:56:47Z</time>
      </trkpt>
      <trkpt lat="47.44291" lon="-0.33064">
        <ele>24.65</ele>
        <time>2015-03-22T08:57:03Z</time>
      </trkpt>
      <trkpt lat="47.44358" lon="-0.33043">
        <ele>24.65</ele>
        <time>2015-03-22T08:57:17Z</time>
      </trkpt>
      <trkpt lat="47.44434" lon="-0.33025">
        <ele>24.65</ele>
        <time>2015-03-22T08:57:32Z</time>
      </trkpt>
      <trkpt lat="47.44511" lon="-0.33023">
        <ele>24.65</ele>
        <time>2015-03-22T08:57:46Z</time>
      </trkpt>
      <trkpt lat="47.44545" lon="-0.33022">
        <ele>25.13</ele>
        <time>2015-03-22T08:57:52Z</time>
      </trkpt>
      <trkpt lat="47.44551" lon="-0.33022">
        <ele>24.65</ele>
        <time>2015-03-22T08:57:53Z</time>
      </trkpt>
      <trkpt lat="47.44644" lon="-0.3302">
        <ele>24.65</ele>
        <time>2015-03-22T08:58:09Z</time>
      </trkpt>
      <trkpt lat="47.44718" lon="-0.33015">
        <ele>25.13</ele>
        <time>2015-03-22T08:58:22Z</time>
      </trkpt>
      <trkpt lat="47.44722" lon="-0.33012">
        <ele>24.65</ele>
        <time>2015-03-22T08:58:23Z</time>
      </trkpt>
      <trkpt lat="47.44726" lon="-0.33009">
        <ele>24.65</ele>
        <time>2015-03-22T08:58:24Z</time>
      </trkpt>
      <trkpt lat="47.44779" lon="-0.32985">
        <ele>26.09</ele>
        <time>2015-03-22T08:58:35Z</time>
      </trkpt>
      <trkpt lat="47.44843" lon="-0.32965">
        <ele>26.09</ele>
        <time>2015-03-22T08:58:48Z</time>
      </trkpt>
      <trkpt lat="47.44847" lon="-0.32964">
        <ele>26.09</ele>
        <time>2015-03-22T08:58:49Z</time>
      </trkpt>
      <trkpt lat="47.44857" lon="-0.32961">
        <ele>27.53</ele>
        <time>2015-03-22T08:58:51Z</time>
      </trkpt>
      <trkpt lat="47.449" lon="-0.3296">
        <ele>28.5</ele>
        <time>2015-03-22T08:59:01Z</time>
      </trkpt>
      <trkpt lat="47.44902" lon="-0.32963">
        <ele>27.05</ele>
        <time>2015-03-22T08:59:02Z</time>
      </trkpt>
      <trkpt lat="47.44904" lon="-0.32968">
        <ele>26.09</ele>
        <time>2015-03-22T08:59:03Z</time>
      </trkpt>
      <trkpt lat="47.44905" lon="-0.32975">
        <ele>26.57</ele>
        <time>2015-03-22T08:59:04Z</time>
      </trkpt>
      <trkpt lat="47.44905" lon="-0.32983">
        <ele>26.09</ele>
        <time>2015-03-22T08:59:05Z</time>
      </trkpt>
      <trkpt lat="47.44906" lon="-0.32991">
        <ele>25.61</ele>
        <time>2015-03-22T08:59:06Z</time>
      </trkpt>
      <trkpt lat="47.44906" lon="-0.32999">
        <ele>25.61</ele>
        <time>2015-03-22T08:59:07Z</time>
      </trkpt>
      <trkpt lat="47.44913" lon="-0.33109">
        <ele>25.13</ele>
        <time>2015-03-22T08:59:22Z</time>
      </trkpt>
      <trkpt lat="47.44922" lon="-0.33262">
        <ele>26.09</ele>
        <time>2015-03-22T08:59:41Z</time>
      </trkpt>
      <trkpt lat="47.4494" lon="-0.3339">
        <ele>26.09</ele>
        <time>2015-03-22T08:59:56Z</time>
      </trkpt>
      <trkpt lat="47.44979" lon="-0.3347">
        <ele>26.09</ele>
        <time>2015-03-22T09:00:10Z</time>
      </trkpt>
      <trkpt lat="47.45005" lon="-0.33513">
        <ele>25.13</ele>
        <time>2015-03-22T09:00:18Z</time>
      </trkpt>
      <trkpt lat="47.45012" lon="-0.33521">
        <ele>25.61</ele>
        <time>2015-03-22T09:00:20Z</time>
      </trkpt>
      <trkpt lat="47.45016" lon="-0.33524">
        <ele>26.09</ele>
        <time>2015-03-22T09:00:21Z</time>
      </trkpt>
      <trkpt lat="47.45033" lon="-0.33532">
        <ele>26.09</ele>
        <time>2015-03-22T09:00:25Z</time>
      </trkpt>
      <trkpt lat="47.45037" lon="-0.33533">
        <ele>26.57</ele>
        <time>2015-03-22T09:00:26Z</time>
      </trkpt>
      <trkpt lat="47.45108" lon="-0.33528">
        <ele>25.61</ele>
        <time>2015-03-22T09:00:40Z</time>
      </trkpt>
      <trkpt lat="47.45142" lon="-0.33522">
        <ele>25.13</ele>
        <time>2015-03-22T09:00:47Z</time>
      </trkpt>
      <trkpt lat="47.45206" lon="-0.33515">
        <ele>26.09</ele>
        <time>2015-03-22T09:01:00Z</time>
      </trkpt>
      <trkpt lat="47.45282" lon="-0.3356">
        <ele>25.61</ele>
        <time>2015-03-22T09:01:17Z</time>
      </trkpt>
      <trkpt lat="47.45357" lon="-0.3365">
        <ele>27.05</ele>
        <time>2015-03-22T09:01:36Z</time>
      </trkpt>
      <trkpt lat="47.45427" lon="-0.33757">
        <ele>26.57</ele>
        <time>2015-03-22T09:01:53Z</time>
      </trkpt>
      <trkpt lat="47.455" lon="-0.33872">
        <ele>25.61</ele>
        <time>2015-03-22T09:02:10Z</time>
      </trkpt>
      <trkpt lat="47.45589" lon="-0.34005">
        <ele>25.61</ele>
        <time>2015-03-22T09:02:30Z</time>
      </trkpt>
      <trkpt lat="47.45679" lon="-0.34142">
        <ele>24.65</ele>
        <time>2015-03-22T09:02:49Z</time>
      </trkpt>
      <trkpt lat="47.45769" lon="-0.3428">
        <ele>24.65</ele>
        <time>2015-03-22T09:03:09Z</time>
      </trkpt>
      <trkpt lat="47.45869" lon="-0.34435">
        <ele>24.65</ele>
        <time>2015-03-22T09:03:31Z</time>
      </trkpt>
      <trkpt lat="47.45894" lon="-0.34471">
        <ele>24.17</ele>
        <time>2015-03-22T09:03:37Z</time>
      </trkpt>
      <trkpt lat="47.45898" lon="-0.34473">
        <ele>24.17</ele>
        <time>2015-03-22T09:03:38Z</time>
      </trkpt>
      <trkpt lat="47.45902" lon="-0.34469">
        <ele>24.17</ele>
        <time>2015-03-22T09:03:39Z</time>
      </trkpt>
      <trkpt lat="47.45904" lon="-0.34464">
        <ele>24.17</ele>
        <time>2015-03-22T09:03:40Z</time>
      </trkpt>
      <trkpt lat="47.45905" lon="-0.34458">
        <ele>24.17</ele>
        <time>2015-03-22T09:03:41Z</time>
      </trkpt>
      <trkpt lat="47.45905" lon="-0.34452">
        <ele>24.17</ele>
        <time>2015-03-22T09:03:42Z</time>
      </trkpt>
      <trkpt lat="47.45905" lon="-0.34447">
        <ele>24.65</ele>
        <time>2015-03-22T09:03:43Z</time>
      </trkpt>
      <trkpt lat="47.45904" lon="-0.34433">
        <ele>24.17</ele>
        <time>2015-03-22T09:03:46Z</time>
      </trkpt>
      <trkpt lat="47.45906" lon="-0.34432">
        <ele>23.21</ele>
        <time>2015-03-22T09:03:56Z</time>
      </trkpt>
      <trkpt lat="47.45906" lon="-0.34434">
        <ele>24.17</ele>
        <time>2015-03-22T09:03:57Z</time>
      </trkpt>
      <trkpt lat="47.45906" lon="-0.34436">
        <ele>23.69</ele>
        <time>2015-03-22T09:03:58Z</time>
      </trkpt>
      <trkpt lat="47.45906" lon="-0.34438">
        <ele>23.69</ele>
        <time>2015-03-22T09:03:59Z</time>
      </trkpt>
      <trkpt lat="47.45905" lon="-0.34441">
        <ele>23.69</ele>
        <time>2015-03-22T09:04:00Z</time>
      </trkpt>
      <trkpt lat="47.45905" lon="-0.34444">
        <ele>23.69</ele>
        <time>2015-03-22T09:04:01Z</time>
      </trkpt>
      <trkpt lat="47.45905" lon="-0.34446">
        <ele>24.17</ele>
        <time>2015-03-22T09:04:02Z</time>
      </trkpt>
      <trkpt lat="47.45905" lon="-0.34449">
        <ele>23.69</ele>
        <time>2015-03-22T09:04:03Z</time>
      </trkpt>
      <trkpt lat="47.45905" lon="-0.34453">
        <ele>24.17</ele>
        <time>2015-03-22T09:04:04Z</time>
      </trkpt>
      <trkpt lat="47.45905" lon="-0.34455">
        <ele>23.69</ele>
        <time>2015-03-22T09:04:05Z</time>
      </trkpt>
      <trkpt lat="47.45904" lon="-0.3446">
        <ele>24.17</ele>
        <time>2015-03-22T09:04:17Z</time>
      </trkpt>
      <trkpt lat="47.45905" lon="-0.3446">
        <ele>24.17</ele>
        <time>2015-03-22T09:04:42Z</time>
      </trkpt>
      <trkpt lat="47.45906" lon="-0.3446">
        <ele>23.21</ele>
        <time>2015-03-22T09:05:03Z</time>
      </trkpt>
      <trkpt lat="47.45908" lon="-0.3446">
        <ele>23.69</ele>
        <time>2015-03-22T09:05:25Z</time>
      </trkpt>
      <trkpt lat="47.45908" lon="-0.34458">
        <ele>23.21</ele>
        <time>2015-03-22T09:05:26Z</time>
      </trkpt>
      <trkpt lat="47.45908" lon="-0.34456">
        <ele>23.21</ele>
        <time>2015-03-22T09:05:27Z</time>
      </trkpt>
      <trkpt lat="47.45908" lon="-0.34453">
        <ele>23.21</ele>
        <time>2015-03-22T09:05:28Z</time>
      </trkpt>
      <trkpt lat="47.45907" lon="-0.34449">
        <ele>22.73</ele>
        <time>2015-03-22T09:05:29Z</time>
      </trkpt>
      <trkpt lat="47.45907" lon="-0.34444">
        <ele>23.21</ele>
        <time>2015-03-22T09:05:30Z</time>
      </trkpt>
      <trkpt lat="47.45907" lon="-0.34439">
        <ele>23.21</ele>
        <time>2015-03-22T09:05:31Z</time>
      </trkpt>
      <trkpt lat="47.45907" lon="-0.34432">
        <ele>23.69</ele>
        <time>2015-03-22T09:05:32Z</time>
      </trkpt>
      <trkpt lat="47.45906" lon="-0.34358">
        <ele>24.17</ele>
        <time>2015-03-22T09:05:41Z</time>
      </trkpt>
      <trkpt lat="47.45906" lon="-0.3435">
        <ele>23.69</ele>
        <time>2015-03-22T09:05:42Z</time>
      </trkpt>
      <trkpt lat="47.45905" lon="-0.34342">
        <ele>23.69</ele>
        <time>2015-03-22T09:05:43Z</time>
      </trkpt>
      <trkpt lat="47.45899" lon="-0.34295">
        <ele>23.69</ele>
        <time>2015-03-22T09:05:50Z</time>
      </trkpt>
      <trkpt lat="47.45899" lon="-0.34265">
        <ele>23.21</ele>
        <time>2015-03-22T09:05:54Z</time>
      </trkpt>
      <trkpt lat="47.45905" lon="-0.34202">
        <ele>23.69</ele>
        <time>2015-03-22T09:06:02Z</time>
      </trkpt>
      <trkpt lat="47.45905" lon="-0.34193">
        <ele>23.69</ele>
        <time>2015-03-22T09:06:03Z</time>
      </trkpt>
      <trkpt lat="47.45906" lon="-0.34088">
        <ele>23.69</ele>
        <time>2015-03-22T09:06:16Z</time>
      </trkpt>
      <trkpt lat="47.45904" lon="-0.34014">
        <ele>23.21</ele>
        <time>2015-03-22T09:06:25Z</time>
      </trkpt>
      <trkpt lat="47.45907" lon="-0.33899">
        <ele>22.73</ele>
        <time>2015-03-22T09:06:39Z</time>
      </trkpt>
      <trkpt lat="47.45912" lon="-0.33831">
        <ele>24.17</ele>
        <time>2015-03-22T09:06:47Z</time>
      </trkpt>
      <trkpt lat="47.45925" lon="-0.33785">
        <ele>23.21</ele>
        <time>2015-03-22T09:06:53Z</time>
      </trkpt>
      <trkpt lat="47.45929" lon="-0.3378">
        <ele>22.73</ele>
        <time>2015-03-22T09:06:54Z</time>
      </trkpt>
      <trkpt lat="47.45934" lon="-0.33776">
        <ele>23.21</ele>
        <time>2015-03-22T09:06:55Z</time>
      </trkpt>
      <trkpt lat="47.45939" lon="-0.33773">
        <ele>23.21</ele>
        <time>2015-03-22T09:06:56Z</time>
      </trkpt>
      <trkpt lat="47.45944" lon="-0.33772">
        <ele>23.69</ele>
        <time>2015-03-22T09:06:57Z</time>
      </trkpt>
      <trkpt lat="47.4595" lon="-0.3377">
        <ele>23.69</ele>
        <time>2015-03-22T09:06:58Z</time>
      </trkpt>
      <trkpt lat="47.4603" lon="-0.33734">
        <ele>23.69</ele>
        <time>2015-03-22T09:07:13Z</time>
      </trkpt>
      <trkpt lat="47.46067" lon="-0.33691">
        <ele>23.69</ele>
        <time>2015-03-22T09:07:22Z</time>
      </trkpt>
      <trkpt lat="47.46099" lon="-0.33663">
        <ele>24.17</ele>
        <time>2015-03-22T09:07:29Z</time>
      </trkpt>
      <trkpt lat="47.46103" lon="-0.33658">
        <ele>23.69</ele>
        <time>2015-03-22T09:07:30Z</time>
      </trkpt>
      <trkpt lat="47.46107" lon="-0.33652">
        <ele>23.21</ele>
        <time>2015-03-22T09:07:31Z</time>
      </trkpt>
      <trkpt lat="47.4611" lon="-0.33646">
        <ele>23.69</ele>
        <time>2015-03-22T09:07:32Z</time>
      </trkpt>
      <trkpt lat="47.46114" lon="-0.33639">
        <ele>23.69</ele>
        <time>2015-03-22T09:07:33Z</time>
      </trkpt>
      <trkpt lat="47.46117" lon="-0.33633">
        <ele>23.69</ele>
        <time>2015-03-22T09:07:34Z</time>
      </trkpt>
      <trkpt lat="47.46121" lon="-0.33629">
        <ele>23.21</ele>
        <time>2015-03-22T09:07:35Z</time>
      </trkpt>
      <trkpt lat="47.46126" lon="-0.33626">
        <ele>24.17</ele>
        <time>2015-03-22T09:07:36Z</time>
      </trkpt>
      <trkpt lat="47.46131" lon="-0.33625">
        <ele>24.17</ele>
        <time>2015-03-22T09:07:37Z</time>
      </trkpt>
      <trkpt lat="47.46136" lon="-0.33624">
        <ele>24.17</ele>
        <time>2015-03-22T09:07:38Z</time>
      </trkpt>
      <trkpt lat="47.46141" lon="-0.33625">
        <ele>24.17</ele>
        <time>2015-03-22T09:07:39Z</time>
      </trkpt>
      <trkpt lat="47.46202" lon="-0.3363">
        <ele>23.69</ele>
        <time>2015-03-22T09:07:50Z</time>
      </trkpt>
      <trkpt lat="47.46206" lon="-0.33629">
        <ele>23.21</ele>
        <time>2015-03-22T09:07:51Z</time>
      </trkpt>
      <trkpt lat="47.46211" lon="-0.33625">
        <ele>23.21</ele>
        <time>2015-03-22T09:07:52Z</time>
      </trkpt>
      <trkpt lat="47.46214" lon="-0.33619">
        <ele>23.21</ele>
        <time>2015-03-22T09:07:53Z</time>
      </trkpt>
      <trkpt lat="47.46214" lon="-0.33611">
        <ele>23.21</ele>
        <time>2015-03-22T09:07:54Z</time>
      </trkpt>
      <trkpt lat="47.46214" lon="-0.33603">
        <ele>22.73</ele>
        <time>2015-03-22T09:07:55Z</time>
      </trkpt>
      <trkpt lat="47.46214" lon="-0.33594">
        <ele>22.73</ele>
        <time>2015-03-22T09:07:56Z</time>
      </trkpt>
      <trkpt lat="47.46218" lon="-0.33439">
        <ele>23.21</ele>
        <time>2015-03-22T09:08:15Z</time>
      </trkpt>
      <trkpt lat="47.46223" lon="-0.33355">
        <ele>23.69</ele>
        <time>2015-03-22T09:08:26Z</time>
      </trkpt>
      <trkpt lat="47.46224" lon="-0.33348">
        <ele>23.21</ele>
        <time>2015-03-22T09:08:27Z</time>
      </trkpt>
      <trkpt lat="47.46227" lon="-0.33342">
        <ele>23.21</ele>
        <time>2015-03-22T09:08:28Z</time>
      </trkpt>
      <trkpt lat="47.46231" lon="-0.33337">
        <ele>23.21</ele>
        <time>2015-03-22T09:08:29Z</time>
      </trkpt>
      <trkpt lat="47.46236" lon="-0.33334">
        <ele>23.69</ele>
        <time>2015-03-22T09:08:30Z</time>
      </trkpt>
      <trkpt lat="47.4624" lon="-0.33333">
        <ele>23.69</ele>
        <time>2015-03-22T09:08:31Z</time>
      </trkpt>
      <trkpt lat="47.46245" lon="-0.33332">
        <ele>23.69</ele>
        <time>2015-03-22T09:08:32Z</time>
      </trkpt>
      <trkpt lat="47.46251" lon="-0.33332">
        <ele>23.21</ele>
        <time>2015-03-22T09:08:33Z</time>
      </trkpt>
      <trkpt lat="47.46352" lon="-0.33329">
        <ele>22.73</ele>
        <time>2015-03-22T09:08:53Z</time>
      </trkpt>
      <trkpt lat="47.46362" lon="-0.33328">
        <ele>23.21</ele>
        <time>2015-03-22T09:08:55Z</time>
      </trkpt>
      <trkpt lat="47.46367" lon="-0.33327">
        <ele>23.21</ele>
        <time>2015-03-22T09:08:56Z</time>
      </trkpt>
      <trkpt lat="47.46372" lon="-0.33324">
        <ele>23.21</ele>
        <time>2015-03-22T09:08:57Z</time>
      </trkpt>
      <trkpt lat="47.46376" lon="-0.33318">
        <ele>23.21</ele>
        <time>2015-03-22T09:08:58Z</time>
      </trkpt>
      <trkpt lat="47.46378" lon="-0.33312">
        <ele>22.73</ele>
        <time>2015-03-22T09:08:59Z</time>
      </trkpt>
      <trkpt lat="47.4638" lon="-0.33305">
        <ele>23.69</ele>
        <time>2015-03-22T09:09:00Z</time>
      </trkpt>
      <trkpt lat="47.46381" lon="-0.33298">
        <ele>23.69</ele>
        <time>2015-03-22T09:09:01Z</time>
      </trkpt>
      <trkpt lat="47.46382" lon="-0.3329">
        <ele>23.69</ele>
        <time>2015-03-22T09:09:02Z</time>
      </trkpt>
      <trkpt lat="47.46404" lon="-0.33147">
        <ele>23.69</ele>
        <time>2015-03-22T09:09:20Z</time>
      </trkpt>
      <trkpt lat="47.46421" lon="-0.33023">
        <ele>24.17</ele>
        <time>2015-03-22T09:09:35Z</time>
      </trkpt>
      <trkpt lat="47.46431" lon="-0.3296">
        <ele>24.17</ele>
        <time>2015-03-22T09:09:43Z</time>
      </trkpt>
      <trkpt lat="47.46438" lon="-0.32936">
        <ele>24.65</ele>
        <time>2015-03-22T09:09:46Z</time>
      </trkpt>
      <trkpt lat="47.46441" lon="-0.3293">
        <ele>24.65</ele>
        <time>2015-03-22T09:09:47Z</time>
      </trkpt>
      <trkpt lat="47.46444" lon="-0.32923">
        <ele>24.17</ele>
        <time>2015-03-22T09:09:48Z</time>
      </trkpt>
      <trkpt lat="47.46519" lon="-0.32811">
        <ele>24.17</ele>
        <time>2015-03-22T09:10:07Z</time>
      </trkpt>
      <trkpt lat="47.4657" lon="-0.32743">
        <ele>24.17</ele>
        <time>2015-03-22T09:10:19Z</time>
      </trkpt>
      <trkpt lat="47.46645" lon="-0.32656">
        <ele>23.69</ele>
        <time>2015-03-22T09:10:35Z</time>
      </trkpt>
      <trkpt lat="47.46665" lon="-0.32637">
        <ele>23.21</ele>
        <time>2015-03-22T09:10:39Z</time>
      </trkpt>
      <trkpt lat="47.4667" lon="-0.32635">
        <ele>23.21</ele>
        <time>2015-03-22T09:10:40Z</time>
      </trkpt>
      <trkpt lat="47.46676" lon="-0.32634">
        <ele>23.69</ele>
        <time>2015-03-22T09:10:41Z</time>
      </trkpt>
      <trkpt lat="47.46682" lon="-0.32634">
        <ele>23.69</ele>
        <time>2015-03-22T09:10:42Z</time>
      </trkpt>
      <trkpt lat="47.46688" lon="-0.32635">
        <ele>23.69</ele>
        <time>2015-03-22T09:10:43Z</time>
      </trkpt>
      <trkpt lat="47.46766" lon="-0.32649">
        <ele>24.17</ele>
        <time>2015-03-22T09:10:57Z</time>
      </trkpt>
      <trkpt lat="47.46856" lon="-0.32677">
        <ele>24.65</ele>
        <time>2015-03-22T09:11:13Z</time>
      </trkpt>
      <trkpt lat="47.46955" lon="-0.32708">
        <ele>25.13</ele>
        <time>2015-03-22T09:11:30Z</time>
      </trkpt>
      <trkpt lat="47.4702" lon="-0.32705">
        <ele>25.13</ele>
        <time>2015-03-22T09:11:41Z</time>
      </trkpt>
      <trkpt lat="47.47082" lon="-0.32697">
        <ele>25.13</ele>
        <time>2015-03-22T09:11:53Z</time>
      </trkpt>
      <trkpt lat="47.47086" lon="-0.327">
        <ele>25.13</ele>
        <time>2015-03-22T09:11:54Z</time>
      </trkpt>
      <trkpt lat="47.47088" lon="-0.32705">
        <ele>25.13</ele>
        <time>2015-03-22T09:11:55Z</time>
      </trkpt>
      <trkpt lat="47.47088" lon="-0.32709">
        <ele>24.65</ele>
        <time>2015-03-22T09:11:56Z</time>
      </trkpt>
      <trkpt lat="47.47087" lon="-0.32715">
        <ele>24.65</ele>
        <time>2015-03-22T09:11:57Z</time>
      </trkpt>
      <trkpt lat="47.47086" lon="-0.3272">
        <ele>24.65</ele>
        <time>2015-03-22T09:11:58Z</time>
      </trkpt>
      <trkpt lat="47.47084" lon="-0.32726">
        <ele>25.13</ele>
        <time>2015-03-22T09:11:59Z</time>
      </trkpt>
      <trkpt lat="47.47055" lon="-0.32833">
        <ele>25.61</ele>
        <time>2015-03-22T09:12:14Z</time>
      </trkpt>
      <trkpt lat="47.47026" lon="-0.32939">
        <ele>26.09</ele>
        <time>2015-03-22T09:12:26Z</time>
      </trkpt>
      <trkpt lat="47.46974" lon="-0.331">
        <ele>26.09</ele>
        <time>2015-03-22T09:12:44Z</time>
      </trkpt>
      <trkpt lat="47.46961" lon="-0.33136">
        <ele>26.09</ele>
        <time>2015-03-22T09:12:48Z</time>
      </trkpt>
      <trkpt lat="47.46956" lon="-0.33153">
        <ele>25.61</ele>
        <time>2015-03-22T09:12:50Z</time>
      </trkpt>
      <trkpt lat="47.46956" lon="-0.33162">
        <ele>25.61</ele>
        <time>2015-03-22T09:12:51Z</time>
      </trkpt>
      <trkpt lat="47.46959" lon="-0.33169">
        <ele>25.61</ele>
        <time>2015-03-22T09:12:52Z</time>
      </trkpt>
      <trkpt lat="47.46964" lon="-0.33173">
        <ele>26.09</ele>
        <time>2015-03-22T09:12:53Z</time>
      </trkpt>
      <trkpt lat="47.4697" lon="-0.33175">
        <ele>26.09</ele>
        <time>2015-03-22T09:12:54Z</time>
      </trkpt>
      <trkpt lat="47.46976" lon="-0.33174">
        <ele>26.57</ele>
        <time>2015-03-22T09:12:55Z</time>
      </trkpt>
      <trkpt lat="47.46982" lon="-0.33173">
        <ele>26.57</ele>
        <time>2015-03-22T09:12:56Z</time>
      </trkpt>
      <trkpt lat="47.47079" lon="-0.33179">
        <ele>27.05</ele>
        <time>2015-03-22T09:13:13Z</time>
      </trkpt>
      <trkpt lat="47.47182" lon="-0.3319">
        <ele>27.53</ele>
        <time>2015-03-22T09:13:32Z</time>
      </trkpt>
      <trkpt lat="47.47271" lon="-0.33213">
        <ele>27.53</ele>
        <time>2015-03-22T09:13:49Z</time>
      </trkpt>
      <trkpt lat="47.47357" lon="-0.33273">
        <ele>28.02</ele>
        <time>2015-03-22T09:14:07Z</time>
      </trkpt>
      <trkpt lat="47.4742" lon="-0.33295">
        <ele>28.98</ele>
        <time>2015-03-22T09:14:21Z</time>
      </trkpt>
      <trkpt lat="47.47424" lon="-0.33294">
        <ele>29.46</ele>
        <time>2015-03-22T09:14:22Z</time>
      </trkpt>
      <trkpt lat="47.47427" lon="-0.33291">
        <ele>29.94</ele>
        <time>2015-03-22T09:14:23Z</time>
      </trkpt>
      <trkpt lat="47.47434" lon="-0.33286">
        <ele>29.46</ele>
        <time>2015-03-22T09:14:25Z</time>
      </trkpt>
      <trkpt lat="47.47438" lon="-0.33283">
        <ele>29.46</ele>
        <time>2015-03-22T09:14:26Z</time>
      </trkpt>
      <trkpt lat="47.47443" lon="-0.33282">
        <ele>29.46</ele>
        <time>2015-03-22T09:14:27Z</time>
      </trkpt>
      <trkpt lat="47.47447" lon="-0.33281">
        <ele>29.46</ele>
        <time>2015-03-22T09:14:28Z</time>
      </trkpt>
      <trkpt lat="47.47452" lon="-0.33281">
        <ele>29.94</ele>
        <time>2015-03-22T09:14:29Z</time>
      </trkpt>
      <trkpt lat="47.4754" lon="-0.33281">
        <ele>30.9</ele>
        <time>2015-03-22T09:14:49Z</time>
      </trkpt>
      <trkpt lat="47.47589" lon="-0.33278">
        <ele>31.38</ele>
        <time>2015-03-22T09:15:00Z</time>
      </trkpt>
      <trkpt lat="47.47593" lon="-0.33278">
        <ele>31.38</ele>
        <time>2015-03-22T09:15:01Z</time>
      </trkpt>
      <trkpt lat="47.47661" lon="-0.33274">
        <ele>31.86</ele>
        <time>2015-03-22T09:15:16Z</time>
      </trkpt>
      <trkpt lat="47.47665" lon="-0.3327">
        <ele>32.34</ele>
        <time>2015-03-22T09:15:17Z</time>
      </trkpt>
      <trkpt lat="47.47667" lon="-0.33264">
        <ele>32.34</ele>
        <time>2015-03-22T09:15:18Z</time>
      </trkpt>
      <trkpt lat="47.47667" lon="-0.33256">
        <ele>31.38</ele>
        <time>2015-03-22T09:15:19Z</time>
      </trkpt>
      <trkpt lat="47.47667" lon="-0.33249">
        <ele>31.86</ele>
        <time>2015-03-22T09:15:20Z</time>
      </trkpt>
      <trkpt lat="47.47667" lon="-0.33241">
        <ele>31.86</ele>
        <time>2015-03-22T09:15:21Z</time>
      </trkpt>
      <trkpt lat="47.47665" lon="-0.33194">
        <ele>30.9</ele>
        <time>2015-03-22T09:15:27Z</time>
      </trkpt>
      <trkpt lat="47.47667" lon="-0.33187">
        <ele>30.9</ele>
        <time>2015-03-22T09:15:28Z</time>
      </trkpt>
      <trkpt lat="47.4767" lon="-0.3318">
        <ele>30.9</ele>
        <time>2015-03-22T09:15:29Z</time>
      </trkpt>
      <trkpt lat="47.47674" lon="-0.33176">
        <ele>30.9</ele>
        <time>2015-03-22T09:15:30Z</time>
      </trkpt>
      <trkpt lat="47.47679" lon="-0.33174">
        <ele>30.9</ele>
        <time>2015-03-22T09:15:31Z</time>
      </trkpt>
      <trkpt lat="47.47684" lon="-0.33172">
        <ele>30.9</ele>
        <time>2015-03-22T09:15:32Z</time>
      </trkpt>
      <trkpt lat="47.47793" lon="-0.33141">
        <ele>30.9</ele>
        <time>2015-03-22T09:15:53Z</time>
      </trkpt>
      <trkpt lat="47.4786" lon="-0.33114">
        <ele>31.38</ele>
        <time>2015-03-22T09:16:07Z</time>
      </trkpt>
      <trkpt lat="47.47874" lon="-0.33108">
        <ele>31.38</ele>
        <time>2015-03-22T09:16:11Z</time>
      </trkpt>
      <trkpt lat="47.47877" lon="-0.33111">
        <ele>31.38</ele>
        <time>2015-03-22T09:16:12Z</time>
      </trkpt>
      <trkpt lat="47.47878" lon="-0.33116">
        <ele>31.38</ele>
        <time>2015-03-22T09:16:13Z</time>
      </trkpt>
      <trkpt lat="47.47879" lon="-0.33121">
        <ele>31.38</ele>
        <time>2015-03-22T09:16:14Z</time>
      </trkpt>
      <trkpt lat="47.47879" lon="-0.33127">
        <ele>31.86</ele>
        <time>2015-03-22T09:16:15Z</time>
      </trkpt>
      <trkpt lat="47.47879" lon="-0.33134">
        <ele>31.38</ele>
        <time>2015-03-22T09:16:16Z</time>
      </trkpt>
      <trkpt lat="47.47873" lon="-0.33235">
        <ele>32.34</ele>
        <time>2015-03-22T09:16:30Z</time>
      </trkpt>
      <trkpt lat="47.4786" lon="-0.33358">
        <ele>32.34</ele>
        <time>2015-03-22T09:16:47Z</time>
      </trkpt>
      <trkpt lat="47.47848" lon="-0.33403">
        <ele>32.34</ele>
        <time>2015-03-22T09:16:54Z</time>
      </trkpt>
      <trkpt lat="47.47846" lon="-0.3341">
        <ele>33.3</ele>
        <time>2015-03-22T09:16:55Z</time>
      </trkpt>
      <trkpt lat="47.4783" lon="-0.33519">
        <ele>34.26</ele>
        <time>2015-03-22T09:17:10Z</time>
      </trkpt>
      <trkpt lat="47.47831" lon="-0.33525">
        <ele>34.74</ele>
        <time>2015-03-22T09:17:11Z</time>
      </trkpt>
      <trkpt lat="47.47833" lon="-0.33529">
        <ele>34.74</ele>
        <time>2015-03-22T09:17:12Z</time>
      </trkpt>
      <trkpt lat="47.47835" lon="-0.3353">
        <ele>35.23</ele>
        <time>2015-03-22T09:17:13Z</time>
      </trkpt>
      <trkpt lat="47.47838" lon="-0.33529">
        <ele>35.71</ele>
        <time>2015-03-22T09:17:14Z</time>
      </trkpt>
      <trkpt lat="47.47841" lon="-0.33528">
        <ele>35.23</ele>
        <time>2015-03-22T09:17:15Z</time>
      </trkpt>
      <trkpt lat="47.47845" lon="-0.33526">
        <ele>35.71</ele>
        <time>2015-03-22T09:17:16Z</time>
      </trkpt>
      <trkpt lat="47.47849" lon="-0.33524">
        <ele>35.71</ele>
        <time>2015-03-22T09:17:17Z</time>
      </trkpt>
      <trkpt lat="47.47907" lon="-0.33499">
        <ele>36.19</ele>
        <time>2015-03-22T09:17:30Z</time>
      </trkpt>
      <trkpt lat="47.47979" lon="-0.33469">
        <ele>37.63</ele>
        <time>2015-03-22T09:17:46Z</time>
      </trkpt>
      <trkpt lat="47.48062" lon="-0.33433">
        <ele>38.11</ele>
        <time>2015-03-22T09:18:04Z</time>
      </trkpt>
      <trkpt lat="47.48101" lon="-0.33416">
        <ele>39.07</ele>
        <time>2015-03-22T09:18:13Z</time>
      </trkpt>
      <trkpt lat="47.48106" lon="-0.33414">
        <ele>39.55</ele>
        <time>2015-03-22T09:18:14Z</time>
      </trkpt>
      <trkpt lat="47.48161" lon="-0.33397">
        <ele>40.99</ele>
        <time>2015-03-22T09:18:28Z</time>
      </trkpt>
      <trkpt lat="47.48215" lon="-0.33382">
        <ele>42.92</ele>
        <time>2015-03-22T09:18:43Z</time>
      </trkpt>
      <trkpt lat="47.48275" lon="-0.33366">
        <ele>43.88</ele>
        <time>2015-03-22T09:18:59Z</time>
      </trkpt>
      <trkpt lat="47.48298" lon="-0.33354">
        <ele>45.32</ele>
        <time>2015-03-22T09:19:07Z</time>
      </trkpt>
      <trkpt lat="47.48298" lon="-0.33349">
        <ele>45.8</ele>
        <time>2015-03-22T09:19:08Z</time>
      </trkpt>
      <trkpt lat="47.48298" lon="-0.33344">
        <ele>45.32</ele>
        <time>2015-03-22T09:19:09Z</time>
      </trkpt>
      <trkpt lat="47.48293" lon="-0.33268">
        <ele>44.84</ele>
        <time>2015-03-22T09:19:23Z</time>
      </trkpt>
      <trkpt lat="47.48287" lon="-0.33247">
        <ele>44.84</ele>
        <time>2015-03-22T09:19:27Z</time>
      </trkpt>
      <trkpt lat="47.48286" lon="-0.33241">
        <ele>44.36</ele>
        <time>2015-03-22T09:19:28Z</time>
      </trkpt>
      <trkpt lat="47.48279" lon="-0.33203">
        <ele>44.84</ele>
        <time>2015-03-22T09:19:34Z</time>
      </trkpt>
      <trkpt lat="47.48278" lon="-0.33196">
        <ele>44.84</ele>
        <time>2015-03-22T09:19:35Z</time>
      </trkpt>
      <trkpt lat="47.48278" lon="-0.3319">
        <ele>44.84</ele>
        <time>2015-03-22T09:19:36Z</time>
      </trkpt>
      <trkpt lat="47.48279" lon="-0.33184">
        <ele>44.84</ele>
        <time>2015-03-22T09:19:37Z</time>
      </trkpt>
      <trkpt lat="47.48281" lon="-0.33178">
        <ele>44.84</ele>
        <time>2015-03-22T09:19:38Z</time>
      </trkpt>
      <trkpt lat="47.48283" lon="-0.33172">
        <ele>44.36</ele>
        <time>2015-03-22T09:19:39Z</time>
      </trkpt>
      <trkpt lat="47.48286" lon="-0.33166">
        <ele>44.36</ele>
        <time>2015-03-22T09:19:40Z</time>
      </trkpt>
      <trkpt lat="47.48289" lon="-0.33161">
        <ele>44.36</ele>
        <time>2015-03-22T09:19:41Z</time>
      </trkpt>
      <trkpt lat="47.48292" lon="-0.33156">
        <ele>44.36</ele>
        <time>2015-03-22T09:19:42Z</time>
      </trkpt>
      <trkpt lat="47.48295" lon="-0.33151">
        <ele>44.36</ele>
        <time>2015-03-22T09:19:43Z</time>
      </trkpt>
      <trkpt lat="47.48298" lon="-0.33147">
        <ele>44.36</ele>
        <time>2015-03-22T09:19:44Z</time>
      </trkpt>
      <trkpt lat="47.48302" lon="-0.33145">
        <ele>44.36</ele>
        <time>2015-03-22T09:19:45Z</time>
      </trkpt>
      <trkpt lat="47.48306" lon="-0.33143">
        <ele>44.36</ele>
        <time>2015-03-22T09:19:46Z</time>
      </trkpt>
      <trkpt lat="47.48321" lon="-0.33136">
        <ele>44.84</ele>
        <time>2015-03-22T09:19:51Z</time>
      </trkpt>
      <trkpt lat="47.48323" lon="-0.33132">
        <ele>44.84</ele>
        <time>2015-03-22T09:19:52Z</time>
      </trkpt>
      <trkpt lat="47.48326" lon="-0.33127">
        <ele>44.84</ele>
        <time>2015-03-22T09:19:53Z</time>
      </trkpt>
      <trkpt lat="47.48328" lon="-0.33121">
        <ele>44.84</ele>
        <time>2015-03-22T09:19:54Z</time>
      </trkpt>
      <trkpt lat="47.4833" lon="-0.33115">
        <ele>44.84</ele>
        <time>2015-03-22T09:19:55Z</time>
      </trkpt>
      <trkpt lat="47.4833" lon="-0.33109">
        <ele>44.84</ele>
        <time>2015-03-22T09:19:56Z</time>
      </trkpt>
      <trkpt lat="47.48331" lon="-0.33103">
        <ele>44.36</ele>
        <time>2015-03-22T09:19:57Z</time>
      </trkpt>
      <trkpt lat="47.4833" lon="-0.33097">
        <ele>44.36</ele>
        <time>2015-03-22T09:19:58Z</time>
      </trkpt>
      <trkpt lat="47.4833" lon="-0.3309">
        <ele>43.88</ele>
        <time>2015-03-22T09:19:59Z</time>
      </trkpt>
      <trkpt lat="47.4833" lon="-0.33083">
        <ele>43.88</ele>
        <time>2015-03-22T09:20:00Z</time>
      </trkpt>
      <trkpt lat="47.4833" lon="-0.33076">
        <ele>43.88</ele>
        <time>2015-03-22T09:20:01Z</time>
      </trkpt>
      <trkpt lat="47.4833" lon="-0.33061">
        <ele>43.4</ele>
        <time>2015-03-22T09:20:03Z</time>
      </trkpt>
      <trkpt lat="47.48334" lon="-0.33033">
        <ele>43.4</ele>
        <time>2015-03-22T09:20:07Z</time>
      </trkpt>
      <trkpt lat="47.48334" lon="-0.33026">
        <ele>44.36</ele>
        <time>2015-03-22T09:20:08Z</time>
      </trkpt>
      <trkpt lat="47.48334" lon="-0.33019">
        <ele>43.88</ele>
        <time>2015-03-22T09:20:09Z</time>
      </trkpt>
      <trkpt lat="47.48335" lon="-0.33013">
        <ele>44.36</ele>
        <time>2015-03-22T09:20:10Z</time>
      </trkpt>
      <trkpt lat="47.48337" lon="-0.33007">
        <ele>43.88</ele>
        <time>2015-03-22T09:20:11Z</time>
      </trkpt>
      <trkpt lat="47.48338" lon="-0.33002">
        <ele>43.88</ele>
        <time>2015-03-22T09:20:12Z</time>
      </trkpt>
      <trkpt lat="47.48353" lon="-0.3298">
        <ele>44.84</ele>
        <time>2015-03-22T09:20:22Z</time>
      </trkpt>
      <trkpt lat="47.48359" lon="-0.32974">
        <ele>44.84</ele>
        <time>2015-03-22T09:20:37Z</time>
      </trkpt>
      <trkpt lat="47.4836" lon="-0.32972">
        <ele>44.84</ele>
        <time>2015-03-22T09:20:38Z</time>
      </trkpt>
      <trkpt lat="47.48366" lon="-0.32963">
        <ele>45.32</ele>
        <time>2015-03-22T09:20:49Z</time>
      </trkpt>
      <trkpt lat="47.48375" lon="-0.3295">
        <ele>45.8</ele>
        <time>2015-03-22T09:21:02Z</time>
      </trkpt>
      <trkpt lat="47.48378" lon="-0.32945">
        <ele>45.32</ele>
        <time>2015-03-22T09:21:07Z</time>
      </trkpt>
      <trkpt lat="47.4838" lon="-0.32944">
        <ele>45.32</ele>
        <time>2015-03-22T09:21:08Z</time>
      </trkpt>
      <trkpt lat="47.48381" lon="-0.32944">
        <ele>45.32</ele>
        <time>2015-03-22T09:21:09Z</time>
      </trkpt>
      <trkpt lat="47.48397" lon="-0.32929">
        <ele>45.8</ele>
        <time>2015-03-22T09:21:19Z</time>
      </trkpt>
      <trkpt lat="47.4842" lon="-0.32918">
        <ele>48.68</ele>
        <time>2015-03-22T09:21:30Z</time>
      </trkpt>
      <trkpt lat="47.48452" lon="-0.32924">
        <ele>50.13</ele>
        <time>2015-03-22T09:21:43Z</time>
      </trkpt>
      <trkpt lat="47.48489" lon="-0.32932">
        <ele>52.05</ele>
        <time>2015-03-22T09:21:55Z</time>
      </trkpt>
      <trkpt lat="47.48497" lon="-0.32927">
        <ele>52.53</ele>
        <time>2015-03-22T09:21:58Z</time>
      </trkpt>
      <trkpt lat="47.48512" lon="-0.32905">
        <ele>53.01</ele>
        <time>2015-03-22T09:22:09Z</time>
      </trkpt>
      <trkpt lat="47.4852" lon="-0.3289">
        <ele>54.45</ele>
        <time>2015-03-22T09:22:15Z</time>
      </trkpt>
      <trkpt lat="47.48521" lon="-0.32887">
        <ele>54.45</ele>
        <time>2015-03-22T09:22:16Z</time>
      </trkpt>
      <trkpt lat="47.48523" lon="-0.32884">
        <ele>54.45</ele>
        <time>2015-03-22T09:22:17Z</time>
      </trkpt>
      <trkpt lat="47.48563" lon="-0.32852">
        <ele>55.89</ele>
        <time>2015-03-22T09:22:30Z</time>
      </trkpt>
      <trkpt lat="47.48581" lon="-0.32833">
        <ele>56.86</ele>
        <time>2015-03-22T09:22:42Z</time>
      </trkpt>
      <trkpt lat="47.48603" lon="-0.32802">
        <ele>57.34</ele>
        <time>2015-03-22T09:22:54Z</time>
      </trkpt>
      <trkpt lat="47.48626" lon="-0.32767">
        <ele>57.34</ele>
        <time>2015-03-22T09:23:06Z</time>
      </trkpt>
      <trkpt lat="47.48639" lon="-0.32753">
        <ele>57.82</ele>
        <time>2015-03-22T09:23:10Z</time>
      </trkpt>
      <trkpt lat="47.48677" lon="-0.3273">
        <ele>58.78</ele>
        <time>2015-03-22T09:23:22Z</time>
      </trkpt>
      <trkpt lat="47.48688" lon="-0.32724">
        <ele>59.26</ele>
        <time>2015-03-22T09:23:26Z</time>
      </trkpt>
      <trkpt lat="47.4869" lon="-0.32724">
        <ele>59.74</ele>
        <time>2015-03-22T09:23:27Z</time>
      </trkpt>
      <trkpt lat="47.48692" lon="-0.32723">
        <ele>59.26</ele>
        <time>2015-03-22T09:23:28Z</time>
      </trkpt>
      <trkpt lat="47.48695" lon="-0.32722">
        <ele>59.26</ele>
        <time>2015-03-22T09:23:29Z</time>
      </trkpt>
      <trkpt lat="47.48697" lon="-0.32721">
        <ele>59.26</ele>
        <time>2015-03-22T09:23:30Z</time>
      </trkpt>
      <trkpt lat="47.487" lon="-0.32721">
        <ele>59.74</ele>
        <time>2015-03-22T09:23:31Z</time>
      </trkpt>
      <trkpt lat="47.48737" lon="-0.32712">
        <ele>61.18</ele>
        <time>2015-03-22T09:23:42Z</time>
      </trkpt>
      <trkpt lat="47.48777" lon="-0.327">
        <ele>63.58</ele>
        <time>2015-03-22T09:23:57Z</time>
      </trkpt>
      <trkpt lat="47.48812" lon="-0.32689">
        <ele>64.07</ele>
        <time>2015-03-22T09:24:08Z</time>
      </trkpt>
      <trkpt lat="47.48873" lon="-0.3268">
        <ele>65.99</ele>
        <time>2015-03-22T09:24:21Z</time>
      </trkpt>
      <trkpt lat="47.48922" lon="-0.3267">
        <ele>65.99</ele>
        <time>2015-03-22T09:24:36Z</time>
      </trkpt>
      <trkpt lat="47.48945" lon="-0.32676">
        <ele>64.55</ele>
        <time>2015-03-22T09:24:46Z</time>
      </trkpt>
      <trkpt lat="47.48947" lon="-0.32676">
        <ele>65.03</ele>
        <time>2015-03-22T09:24:47Z</time>
      </trkpt>
      <trkpt lat="47.48949" lon="-0.32676">
        <ele>65.03</ele>
        <time>2015-03-22T09:24:48Z</time>
      </trkpt>
      <trkpt lat="47.48971" lon="-0.32687">
        <ele>64.55</ele>
        <time>2015-03-22T09:25:00Z</time>
      </trkpt>
      <trkpt lat="47.48975" lon="-0.32689">
        <ele>63.58</ele>
        <time>2015-03-22T09:25:14Z</time>
      </trkpt>
      <trkpt lat="47.48976" lon="-0.32681">
        <ele>64.07</ele>
        <time>2015-03-22T09:25:45Z</time>
      </trkpt>
      <trkpt lat="47.48987" lon="-0.32694">
        <ele>63.58</ele>
        <time>2015-03-22T09:26:10Z</time>
      </trkpt>
      <trkpt lat="47.49025" lon="-0.3271">
        <ele>62.62</ele>
        <time>2015-03-22T09:26:23Z</time>
      </trkpt>
      <trkpt lat="47.49067" lon="-0.32699">
        <ele>61.66</ele>
        <time>2015-03-22T09:26:34Z</time>
      </trkpt>
      <trkpt lat="47.49071" lon="-0.32697">
        <ele>61.18</ele>
        <time>2015-03-22T09:26:35Z</time>
      </trkpt>
      <trkpt lat="47.49145" lon="-0.32654">
        <ele>57.82</ele>
        <time>2015-03-22T09:26:48Z</time>
      </trkpt>
      <trkpt lat="47.49162" lon="-0.32645">
        <ele>56.86</ele>
        <time>2015-03-22T09:26:51Z</time>
      </trkpt>
      <trkpt lat="47.49168" lon="-0.3264">
        <ele>55.89</ele>
        <time>2015-03-22T09:26:52Z</time>
      </trkpt>
      <trkpt lat="47.49174" lon="-0.32634">
        <ele>55.89</ele>
        <time>2015-03-22T09:26:53Z</time>
      </trkpt>
      <trkpt lat="47.49178" lon="-0.32626">
        <ele>55.89</ele>
        <time>2015-03-22T09:26:54Z</time>
      </trkpt>
      <trkpt lat="47.49182" lon="-0.32619">
        <ele>55.41</ele>
        <time>2015-03-22T09:26:55Z</time>
      </trkpt>
      <trkpt lat="47.49212" lon="-0.32565">
        <ele>53.49</ele>
        <time>2015-03-22T09:27:02Z</time>
      </trkpt>
      <trkpt lat="47.49274" lon="-0.32503">
        <ele>50.61</ele>
        <time>2015-03-22T09:27:13Z</time>
      </trkpt>
      <trkpt lat="47.49325" lon="-0.32459">
        <ele>49.16</ele>
        <time>2015-03-22T09:27:22Z</time>
      </trkpt>
      <trkpt lat="47.49409" lon="-0.32417">
        <ele>48.2</ele>
        <time>2015-03-22T09:27:37Z</time>
      </trkpt>
      <trkpt lat="47.49511" lon="-0.32353">
        <ele>45.32</ele>
        <time>2015-03-22T09:27:55Z</time>
      </trkpt>
      <trkpt lat="47.49529" lon="-0.32342">
        <ele>44.84</ele>
        <time>2015-03-22T09:27:58Z</time>
      </trkpt>
      <trkpt lat="47.49554" lon="-0.32328">
        <ele>43.88</ele>
        <time>2015-03-22T09:28:02Z</time>
      </trkpt>
      <trkpt lat="47.49559" lon="-0.32322">
        <ele>43.4</ele>
        <time>2015-03-22T09:28:03Z</time>
      </trkpt>
      <trkpt lat="47.49563" lon="-0.32315">
        <ele>43.4</ele>
        <time>2015-03-22T09:28:04Z</time>
      </trkpt>
      <trkpt lat="47.49567" lon="-0.32307">
        <ele>43.4</ele>
        <time>2015-03-22T09:28:05Z</time>
      </trkpt>
      <trkpt lat="47.49569" lon="-0.32298">
        <ele>42.44</ele>
        <time>2015-03-22T09:28:06Z</time>
      </trkpt>
      <trkpt lat="47.49571" lon="-0.32289">
        <ele>42.44</ele>
        <time>2015-03-22T09:28:07Z</time>
      </trkpt>
      <trkpt lat="47.49573" lon="-0.3228">
        <ele>41.95</ele>
        <time>2015-03-22T09:28:08Z</time>
      </trkpt>
      <trkpt lat="47.49575" lon="-0.32271">
        <ele>42.44</ele>
        <time>2015-03-22T09:28:09Z</time>
      </trkpt>
      <trkpt lat="47.49578" lon="-0.32263">
        <ele>42.44</ele>
        <time>2015-03-22T09:28:10Z</time>
      </trkpt>
      <trkpt lat="47.49582" lon="-0.32255">
        <ele>41.95</ele>
        <time>2015-03-22T09:28:11Z</time>
      </trkpt>
      <trkpt lat="47.49587" lon="-0.32249">
        <ele>41.95</ele>
        <time>2015-03-22T09:28:12Z</time>
      </trkpt>
      <trkpt lat="47.49593" lon="-0.32245">
        <ele>41.95</ele>
        <time>2015-03-22T09:28:13Z</time>
      </trkpt>
      <trkpt lat="47.496" lon="-0.32242">
        <ele>41.95</ele>
        <time>2015-03-22T09:28:14Z</time>
      </trkpt>
      <trkpt lat="47.49607" lon="-0.32239">
        <ele>41.47</ele>
        <time>2015-03-22T09:28:15Z</time>
      </trkpt>
      <trkpt lat="47.49613" lon="-0.32238">
        <ele>41.47</ele>
        <time>2015-03-22T09:28:16Z</time>
      </trkpt>
      <trkpt lat="47.49648" lon="-0.32226">
        <ele>40.99</ele>
        <time>2015-03-22T09:28:22Z</time>
      </trkpt>
      <trkpt lat="47.49651" lon="-0.32222">
        <ele>40.51</ele>
        <time>2015-03-22T09:28:23Z</time>
      </trkpt>
      <trkpt lat="47.49653" lon="-0.32216">
        <ele>40.03</ele>
        <time>2015-03-22T09:28:24Z</time>
      </trkpt>
      <trkpt lat="47.49654" lon="-0.32209">
        <ele>39.55</ele>
        <time>2015-03-22T09:28:25Z</time>
      </trkpt>
      <trkpt lat="47.49654" lon="-0.32201">
        <ele>39.55</ele>
        <time>2015-03-22T09:28:26Z</time>
      </trkpt>
      <trkpt lat="47.49662" lon="-0.32095">
        <ele>38.11</ele>
        <time>2015-03-22T09:28:39Z</time>
      </trkpt>
      <trkpt lat="47.49671" lon="-0.32024">
        <ele>38.11</ele>
        <time>2015-03-22T09:28:48Z</time>
      </trkpt>
      <trkpt lat="47.49673" lon="-0.32017">
        <ele>37.63</ele>
        <time>2015-03-22T09:28:49Z</time>
      </trkpt>
      <trkpt lat="47.49677" lon="-0.32003">
        <ele>37.15</ele>
        <time>2015-03-22T09:28:51Z</time>
      </trkpt>
      <trkpt lat="47.49677" lon="-0.31995">
        <ele>37.15</ele>
        <time>2015-03-22T09:28:52Z</time>
      </trkpt>
      <trkpt lat="47.49674" lon="-0.3195">
        <ele>35.71</ele>
        <time>2015-03-22T09:28:59Z</time>
      </trkpt>
      <trkpt lat="47.49677" lon="-0.3194">
        <ele>34.26</ele>
        <time>2015-03-22T09:29:10Z</time>
      </trkpt>
      <trkpt lat="47.49679" lon="-0.31939">
        <ele>34.26</ele>
        <time>2015-03-22T09:29:11Z</time>
      </trkpt>
      <trkpt lat="47.49682" lon="-0.31939">
        <ele>34.26</ele>
        <time>2015-03-22T09:29:12Z</time>
      </trkpt>
      <trkpt lat="47.49686" lon="-0.31939">
        <ele>34.26</ele>
        <time>2015-03-22T09:29:13Z</time>
      </trkpt>
      <trkpt lat="47.4969" lon="-0.31938">
        <ele>34.74</ele>
        <time>2015-03-22T09:29:14Z</time>
      </trkpt>
      <trkpt lat="47.49694" lon="-0.31937">
        <ele>34.74</ele>
        <time>2015-03-22T09:29:15Z</time>
      </trkpt>
      <trkpt lat="47.49749" lon="-0.31913">
        <ele>34.74</ele>
        <time>2015-03-22T09:29:26Z</time>
      </trkpt>
      <trkpt lat="47.49786" lon="-0.31904">
        <ele>34.26</ele>
        <time>2015-03-22T09:29:33Z</time>
      </trkpt>
      <trkpt lat="47.4981" lon="-0.31901">
        <ele>33.78</ele>
        <time>2015-03-22T09:29:42Z</time>
      </trkpt>
      <trkpt lat="47.49812" lon="-0.31903">
        <ele>33.3</ele>
        <time>2015-03-22T09:29:44Z</time>
      </trkpt>
      <trkpt lat="47.49813" lon="-0.31902">
        <ele>33.78</ele>
        <time>2015-03-22T09:29:45Z</time>
      </trkpt>
      <trkpt lat="47.49815" lon="-0.31902">
        <ele>33.3</ele>
        <time>2015-03-22T09:29:46Z</time>
      </trkpt>
      <trkpt lat="47.49816" lon="-0.31904">
        <ele>33.3</ele>
        <time>2015-03-22T09:29:47Z</time>
      </trkpt>
      <trkpt lat="47.49815" lon="-0.31911">
        <ele>33.78</ele>
        <time>2015-03-22T09:29:57Z</time>
      </trkpt>
      <trkpt lat="47.49819" lon="-0.31916">
        <ele>33.3</ele>
        <time>2015-03-22T09:30:09Z</time>
      </trkpt>
      <trkpt lat="47.4982" lon="-0.31915">
        <ele>32.82</ele>
        <time>2015-03-22T09:30:41Z</time>
      </trkpt>
      <trkpt lat="47.49818" lon="-0.31915">
        <ele>32.82</ele>
        <time>2015-03-22T09:31:16Z</time>
      </trkpt>
      <trkpt lat="47.49818" lon="-0.31917">
        <ele>33.3</ele>
        <time>2015-03-22T09:31:50Z</time>
      </trkpt>
      <trkpt lat="47.49819" lon="-0.31917">
        <ele>32.34</ele>
        <time>2015-03-22T09:32:31Z</time>
      </trkpt>
      <trkpt lat="47.49819" lon="-0.31916">
        <ele>32.82</ele>
        <time>2015-03-22T09:33:06Z</time>
      </trkpt>
      <trkpt lat="47.49818" lon="-0.31919">
        <ele>33.3</ele>
        <time>2015-03-22T09:33:12Z</time>
      </trkpt>
      <trkpt lat="47.49817" lon="-0.31921">
        <ele>33.3</ele>
        <time>2015-03-22T09:33:13Z</time>
      </trkpt>
      <trkpt lat="47.49816" lon="-0.31923">
        <ele>33.3</ele>
        <time>2015-03-22T09:33:14Z</time>
      </trkpt>
      <trkpt lat="47.49815" lon="-0.31933">
        <ele>33.3</ele>
        <time>2015-03-22T09:33:18Z</time>
      </trkpt>
      <trkpt lat="47.49826" lon="-0.31923">
        <ele>33.78</ele>
        <time>2015-03-22T09:33:25Z</time>
      </trkpt>
      <trkpt lat="47.49826" lon="-0.31918">
        <ele>33.3</ele>
        <time>2015-03-22T09:33:26Z</time>
      </trkpt>
      <trkpt lat="47.49826" lon="-0.31908">
        <ele>33.3</ele>
        <time>2015-03-22T09:33:29Z</time>
      </trkpt>
      <trkpt lat="47.49851" lon="-0.31893">
        <ele>33.3</ele>
        <time>2015-03-22T09:33:40Z</time>
      </trkpt>
      <trkpt lat="47.49873" lon="-0.3189">
        <ele>33.78</ele>
        <time>2015-03-22T09:33:45Z</time>
      </trkpt>
      <trkpt lat="47.49929" lon="-0.319">
        <ele>35.23</ele>
        <time>2015-03-22T09:33:59Z</time>
      </trkpt>
      <trkpt lat="47.49931" lon="-0.31901">
        <ele>34.74</ele>
        <time>2015-03-22T09:34:00Z</time>
      </trkpt>
      <trkpt lat="47.49933" lon="-0.31904">
        <ele>34.74</ele>
        <time>2015-03-22T09:34:01Z</time>
      </trkpt>
      <trkpt lat="47.49939" lon="-0.31971">
        <ele>34.74</ele>
        <time>2015-03-22T09:34:13Z</time>
      </trkpt>
      <trkpt lat="47.49939" lon="-0.31977">
        <ele>35.23</ele>
        <time>2015-03-22T09:34:14Z</time>
      </trkpt>
      <trkpt lat="47.4994" lon="-0.31983">
        <ele>34.74</ele>
        <time>2015-03-22T09:34:15Z</time>
      </trkpt>
      <trkpt lat="47.49947" lon="-0.32045">
        <ele>34.74</ele>
        <time>2015-03-22T09:34:25Z</time>
      </trkpt>
      <trkpt lat="47.49944" lon="-0.32174">
        <ele>36.67</ele>
        <time>2015-03-22T09:34:45Z</time>
      </trkpt>
      <trkpt lat="47.49936" lon="-0.32284">
        <ele>38.59</ele>
        <time>2015-03-22T09:35:02Z</time>
      </trkpt>
      <trkpt lat="47.49907" lon="-0.32413">
        <ele>41.47</ele>
        <time>2015-03-22T09:35:20Z</time>
      </trkpt>
      <trkpt lat="47.49893" lon="-0.32469">
        <ele>42.44</ele>
        <time>2015-03-22T09:35:29Z</time>
      </trkpt>
      <trkpt lat="47.49891" lon="-0.32474">
        <ele>42.44</ele>
        <time>2015-03-22T09:35:30Z</time>
      </trkpt>
      <trkpt lat="47.49888" lon="-0.32479">
        <ele>42.44</ele>
        <time>2015-03-22T09:35:31Z</time>
      </trkpt>
      <trkpt lat="47.49886" lon="-0.32484">
        <ele>42.44</ele>
        <time>2015-03-22T09:35:32Z</time>
      </trkpt>
      <trkpt lat="47.49882" lon="-0.32487">
        <ele>42.44</ele>
        <time>2015-03-22T09:35:33Z</time>
      </trkpt>
      <trkpt lat="47.49877" lon="-0.32489">
        <ele>42.44</ele>
        <time>2015-03-22T09:35:34Z</time>
      </trkpt>
      <trkpt lat="47.49872" lon="-0.3249">
        <ele>41.95</ele>
        <time>2015-03-22T09:35:35Z</time>
      </trkpt>
      <trkpt lat="47.49867" lon="-0.32489">
        <ele>41.47</ele>
        <time>2015-03-22T09:35:36Z</time>
      </trkpt>
      <trkpt lat="47.49861" lon="-0.32488">
        <ele>40.51</ele>
        <time>2015-03-22T09:35:37Z</time>
      </trkpt>
      <trkpt lat="47.49855" lon="-0.32487">
        <ele>40.51</ele>
        <time>2015-03-22T09:35:38Z</time>
      </trkpt>
      <trkpt lat="47.49836" lon="-0.32484">
        <ele>39.07</ele>
        <time>2015-03-22T09:35:41Z</time>
      </trkpt>
      <trkpt lat="47.49753" lon="-0.32485">
        <ele>37.63</ele>
        <time>2015-03-22T09:35:53Z</time>
      </trkpt>
      <trkpt lat="47.49748" lon="-0.32487">
        <ele>38.11</ele>
        <time>2015-03-22T09:35:54Z</time>
      </trkpt>
      <trkpt lat="47.49743" lon="-0.32487">
        <ele>38.11</ele>
        <time>2015-03-22T09:35:55Z</time>
      </trkpt>
      <trkpt lat="47.49737" lon="-0.32488">
        <ele>38.11</ele>
        <time>2015-03-22T09:35:56Z</time>
      </trkpt>
      <trkpt lat="47.49732" lon="-0.32489">
        <ele>38.59</ele>
        <time>2015-03-22T09:35:57Z</time>
      </trkpt>
      <trkpt lat="47.49722" lon="-0.32492">
        <ele>38.59</ele>
        <time>2015-03-22T09:35:59Z</time>
      </trkpt>
      <trkpt lat="47.49717" lon="-0.32493">
        <ele>39.07</ele>
        <time>2015-03-22T09:36:00Z</time>
      </trkpt>
      <trkpt lat="47.49651" lon="-0.32504">
        <ele>41.95</ele>
        <time>2015-03-22T09:36:12Z</time>
      </trkpt>
      <trkpt lat="47.49559" lon="-0.32525">
        <ele>45.32</ele>
        <time>2015-03-22T09:36:30Z</time>
      </trkpt>
      <trkpt lat="47.4954" lon="-0.32531">
        <ele>46.28</ele>
        <time>2015-03-22T09:36:34Z</time>
      </trkpt>
      <trkpt lat="47.49536" lon="-0.32534">
        <ele>45.8</ele>
        <time>2015-03-22T09:36:35Z</time>
      </trkpt>
      <trkpt lat="47.49532" lon="-0.32538">
        <ele>46.28</ele>
        <time>2015-03-22T09:36:36Z</time>
      </trkpt>
      <trkpt lat="47.4953" lon="-0.32544">
        <ele>46.28</ele>
        <time>2015-03-22T09:36:37Z</time>
      </trkpt>
      <trkpt lat="47.49529" lon="-0.3255">
        <ele>46.28</ele>
        <time>2015-03-22T09:36:38Z</time>
      </trkpt>
      <trkpt lat="47.49529" lon="-0.32557">
        <ele>46.76</ele>
        <time>2015-03-22T09:36:39Z</time>
      </trkpt>
      <trkpt lat="47.4953" lon="-0.32564">
        <ele>46.76</ele>
        <time>2015-03-22T09:36:40Z</time>
      </trkpt>
      <trkpt lat="47.4953" lon="-0.32571">
        <ele>47.24</ele>
        <time>2015-03-22T09:36:41Z</time>
      </trkpt>
      <trkpt lat="47.49531" lon="-0.32578">
        <ele>46.76</ele>
        <time>2015-03-22T09:36:42Z</time>
      </trkpt>
      <trkpt lat="47.49534" lon="-0.32711">
        <ele>45.32</ele>
        <time>2015-03-22T09:36:59Z</time>
      </trkpt>
      <trkpt lat="47.49538" lon="-0.32827">
        <ele>44.84</ele>
        <time>2015-03-22T09:37:14Z</time>
      </trkpt>
      <trkpt lat="47.49534" lon="-0.32916">
        <ele>44.36</ele>
        <time>2015-03-22T09:37:25Z</time>
      </trkpt>
      <trkpt lat="47.49534" lon="-0.32932">
        <ele>44.84</ele>
        <time>2015-03-22T09:37:27Z</time>
      </trkpt>
      <trkpt lat="47.49531" lon="-0.33021">
        <ele>46.28</ele>
        <time>2015-03-22T09:37:40Z</time>
      </trkpt>
      <trkpt lat="47.49531" lon="-0.33027">
        <ele>46.76</ele>
        <time>2015-03-22T09:37:41Z</time>
      </trkpt>
      <trkpt lat="47.49531" lon="-0.33034">
        <ele>46.76</ele>
        <time>2015-03-22T09:37:42Z</time>
      </trkpt>
      <trkpt lat="47.4953" lon="-0.33039">
        <ele>46.76</ele>
        <time>2015-03-22T09:37:43Z</time>
      </trkpt>
      <trkpt lat="47.49529" lon="-0.33045">
        <ele>47.24</ele>
        <time>2015-03-22T09:37:44Z</time>
      </trkpt>
      <trkpt lat="47.49528" lon="-0.33051">
        <ele>47.24</ele>
        <time>2015-03-22T09:37:45Z</time>
      </trkpt>
      <trkpt lat="47.49522" lon="-0.33165">
        <ele>48.2</ele>
        <time>2015-03-22T09:38:03Z</time>
      </trkpt>
      <trkpt lat="47.49521" lon="-0.33239">
        <ele>48.2</ele>
        <time>2015-03-22T09:38:14Z</time>
      </trkpt>
      <trkpt lat="47.49521" lon="-0.33245">
        <ele>48.2</ele>
        <time>2015-03-22T09:38:15Z</time>
      </trkpt>
      <trkpt lat="47.49526" lon="-0.33277">
        <ele>47.72</ele>
        <time>2015-03-22T09:38:24Z</time>
      </trkpt>
      <trkpt lat="47.49532" lon="-0.33318">
        <ele>46.76</ele>
        <time>2015-03-22T09:38:32Z</time>
      </trkpt>
      <trkpt lat="47.49531" lon="-0.33324">
        <ele>46.76</ele>
        <time>2015-03-22T09:38:33Z</time>
      </trkpt>
      <trkpt lat="47.49515" lon="-0.33389">
        <ele>46.28</ele>
        <time>2015-03-22T09:38:44Z</time>
      </trkpt>
      <trkpt lat="47.49502" lon="-0.33462">
        <ele>47.24</ele>
        <time>2015-03-22T09:38:57Z</time>
      </trkpt>
      <trkpt lat="47.495" lon="-0.33474">
        <ele>47.24</ele>
        <time>2015-03-22T09:38:59Z</time>
      </trkpt>
      <trkpt lat="47.49498" lon="-0.33487">
        <ele>47.24</ele>
        <time>2015-03-22T09:39:01Z</time>
      </trkpt>
      <trkpt lat="47.49497" lon="-0.33493">
        <ele>46.76</ele>
        <time>2015-03-22T09:39:02Z</time>
      </trkpt>
      <trkpt lat="47.49496" lon="-0.335">
        <ele>46.76</ele>
        <time>2015-03-22T09:39:03Z</time>
      </trkpt>
      <trkpt lat="47.49492" lon="-0.33552">
        <ele>46.76</ele>
        <time>2015-03-22T09:39:14Z</time>
      </trkpt>
      <trkpt lat="47.49488" lon="-0.33568">
        <ele>46.76</ele>
        <time>2015-03-22T09:39:19Z</time>
      </trkpt>
      <trkpt lat="47.49488" lon="-0.33572">
        <ele>46.76</ele>
        <time>2015-03-22T09:39:20Z</time>
      </trkpt>
      <trkpt lat="47.49487" lon="-0.33576">
        <ele>46.76</ele>
        <time>2015-03-22T09:39:21Z</time>
      </trkpt>
      <trkpt lat="47.49486" lon="-0.33578">
        <ele>45.8</ele>
        <time>2015-03-22T09:39:22Z</time>
      </trkpt>
      <trkpt lat="47.49485" lon="-0.33581">
        <ele>46.28</ele>
        <time>2015-03-22T09:39:23Z</time>
      </trkpt>
      <trkpt lat="47.49484" lon="-0.33583">
        <ele>46.28</ele>
        <time>2015-03-22T09:39:24Z</time>
      </trkpt>
      <trkpt lat="47.49482" lon="-0.33586">
        <ele>46.28</ele>
        <time>2015-03-22T09:39:25Z</time>
      </trkpt>
      <trkpt lat="47.49481" lon="-0.33588">
        <ele>46.76</ele>
        <time>2015-03-22T09:39:26Z</time>
      </trkpt>
      <trkpt lat="47.4948" lon="-0.33592">
        <ele>45.8</ele>
        <time>2015-03-22T09:39:27Z</time>
      </trkpt>
      <trkpt lat="47.49479" lon="-0.33596">
        <ele>46.28</ele>
        <time>2015-03-22T09:39:28Z</time>
      </trkpt>
      <trkpt lat="47.49477" lon="-0.336">
        <ele>46.28</ele>
        <time>2015-03-22T09:39:29Z</time>
      </trkpt>
      <trkpt lat="47.49476" lon="-0.33605">
        <ele>46.28</ele>
        <time>2015-03-22T09:39:30Z</time>
      </trkpt>
      <trkpt lat="47.49474" lon="-0.3361">
        <ele>45.8</ele>
        <time>2015-03-22T09:39:31Z</time>
      </trkpt>
      <trkpt lat="47.49471" lon="-0.33622">
        <ele>46.76</ele>
        <time>2015-03-22T09:39:33Z</time>
      </trkpt>
      <trkpt lat="47.49458" lon="-0.33676">
        <ele>47.24</ele>
        <time>2015-03-22T09:39:44Z</time>
      </trkpt>
      <trkpt lat="47.49456" lon="-0.337">
        <ele>46.76</ele>
        <time>2015-03-22T09:39:55Z</time>
      </trkpt>
      <trkpt lat="47.49453" lon="-0.33709">
        <ele>46.76</ele>
        <time>2015-03-22T09:40:02Z</time>
      </trkpt>
      <trkpt lat="47.49453" lon="-0.3371">
        <ele>46.76</ele>
        <time>2015-03-22T09:40:03Z</time>
      </trkpt>
      <trkpt lat="47.49445" lon="-0.33724">
        <ele>46.76</ele>
        <time>2015-03-22T09:40:16Z</time>
      </trkpt>
      <trkpt lat="47.49441" lon="-0.33733">
        <ele>46.76</ele>
        <time>2015-03-22T09:40:27Z</time>
      </trkpt>
      <trkpt lat="47.49438" lon="-0.33742">
        <ele>47.24</ele>
        <time>2015-03-22T09:40:39Z</time>
      </trkpt>
      <trkpt lat="47.49434" lon="-0.33749">
        <ele>47.24</ele>
        <time>2015-03-22T09:40:43Z</time>
      </trkpt>
      <trkpt lat="47.49432" lon="-0.3375">
        <ele>47.72</ele>
        <time>2015-03-22T09:40:44Z</time>
      </trkpt>
      <trkpt lat="47.49431" lon="-0.33752">
        <ele>47.72</ele>
        <time>2015-03-22T09:40:45Z</time>
      </trkpt>
      <trkpt lat="47.4943" lon="-0.33755">
        <ele>47.72</ele>
        <time>2015-03-22T09:40:46Z</time>
      </trkpt>
      <trkpt lat="47.49428" lon="-0.33758">
        <ele>47.72</ele>
        <time>2015-03-22T09:40:47Z</time>
      </trkpt>
      <trkpt lat="47.49427" lon="-0.33761">
        <ele>48.2</ele>
        <time>2015-03-22T09:40:48Z</time>
      </trkpt>
      <trkpt lat="47.49425" lon="-0.33764">
        <ele>47.72</ele>
        <time>2015-03-22T09:40:49Z</time>
      </trkpt>
      <trkpt lat="47.49423" lon="-0.33767">
        <ele>47.72</ele>
        <time>2015-03-22T09:40:50Z</time>
      </trkpt>
      <trkpt lat="47.49422" lon="-0.3377">
        <ele>47.24</ele>
        <time>2015-03-22T09:40:51Z</time>
      </trkpt>
      <trkpt lat="47.49421" lon="-0.33773">
        <ele>47.24</ele>
        <time>2015-03-22T09:40:52Z</time>
      </trkpt>
      <trkpt lat="47.49419" lon="-0.33776">
        <ele>46.76</ele>
        <time>2015-03-22T09:40:53Z</time>
      </trkpt>
      <trkpt lat="47.49417" lon="-0.3378">
        <ele>47.24</ele>
        <time>2015-03-22T09:40:54Z</time>
      </trkpt>
      <trkpt lat="47.49415" lon="-0.33784">
        <ele>47.24</ele>
        <time>2015-03-22T09:40:55Z</time>
      </trkpt>
      <trkpt lat="47.49397" lon="-0.33831">
        <ele>46.76</ele>
        <time>2015-03-22T09:41:07Z</time>
      </trkpt>
      <trkpt lat="47.49388" lon="-0.3386">
        <ele>46.76</ele>
        <time>2015-03-22T09:41:17Z</time>
      </trkpt>
      <trkpt lat="47.49384" lon="-0.33875">
        <ele>46.76</ele>
        <time>2015-03-22T09:41:27Z</time>
      </trkpt>
      <trkpt lat="47.49378" lon="-0.33884">
        <ele>47.24</ele>
        <time>2015-03-22T09:41:35Z</time>
      </trkpt>
      <trkpt lat="47.49378" lon="-0.33886">
        <ele>47.24</ele>
        <time>2015-03-22T09:41:36Z</time>
      </trkpt>
      <trkpt lat="47.49377" lon="-0.33889">
        <ele>47.72</ele>
        <time>2015-03-22T09:41:37Z</time>
      </trkpt>
      <trkpt lat="47.49376" lon="-0.33891">
        <ele>47.24</ele>
        <time>2015-03-22T09:41:38Z</time>
      </trkpt>
      <trkpt lat="47.49376" lon="-0.33894">
        <ele>46.76</ele>
        <time>2015-03-22T09:41:39Z</time>
      </trkpt>
      <trkpt lat="47.49369" lon="-0.33932">
        <ele>47.24</ele>
        <time>2015-03-22T09:41:50Z</time>
      </trkpt>
      <trkpt lat="47.49368" lon="-0.33951">
        <ele>46.76</ele>
        <time>2015-03-22T09:41:54Z</time>
      </trkpt>
      <trkpt lat="47.49367" lon="-0.33955">
        <ele>46.76</ele>
        <time>2015-03-22T09:41:55Z</time>
      </trkpt>
      <trkpt lat="47.49366" lon="-0.3396">
        <ele>46.76</ele>
        <time>2015-03-22T09:41:56Z</time>
      </trkpt>
      <trkpt lat="47.49354" lon="-0.34027">
        <ele>45.32</ele>
        <time>2015-03-22T09:42:09Z</time>
      </trkpt>
      <trkpt lat="47.4934" lon="-0.34103">
        <ele>44.84</ele>
        <time>2015-03-22T09:42:21Z</time>
      </trkpt>
      <trkpt lat="47.49333" lon="-0.34178">
        <ele>44.84</ele>
        <time>2015-03-22T09:42:34Z</time>
      </trkpt>
      <trkpt lat="47.49338" lon="-0.34233">
        <ele>45.32</ele>
        <time>2015-03-22T09:42:44Z</time>
      </trkpt>
      <trkpt lat="47.49338" lon="-0.34287">
        <ele>45.8</ele>
        <time>2015-03-22T09:42:55Z</time>
      </trkpt>
      <trkpt lat="47.49342" lon="-0.3433">
        <ele>46.28</ele>
        <time>2015-03-22T09:43:05Z</time>
      </trkpt>
      <trkpt lat="47.49349" lon="-0.34346">
        <ele>46.76</ele>
        <time>2015-03-22T09:43:09Z</time>
      </trkpt>
      <trkpt lat="47.49362" lon="-0.3441">
        <ele>48.2</ele>
        <time>2015-03-22T09:43:22Z</time>
      </trkpt>
      <trkpt lat="47.49369" lon="-0.34457">
        <ele>48.2</ele>
        <time>2015-03-22T09:43:33Z</time>
      </trkpt>
      <trkpt lat="47.49376" lon="-0.34519">
        <ele>48.68</ele>
        <time>2015-03-22T09:43:44Z</time>
      </trkpt>
      <trkpt lat="47.49368" lon="-0.34584">
        <ele>50.13</ele>
        <time>2015-03-22T09:43:56Z</time>
      </trkpt>
      <trkpt lat="47.4937" lon="-0.34664">
        <ele>51.09</ele>
        <time>2015-03-22T09:44:08Z</time>
      </trkpt>
      <trkpt lat="47.49372" lon="-0.34713">
        <ele>51.57</ele>
        <time>2015-03-22T09:44:19Z</time>
      </trkpt>
      <trkpt lat="47.49376" lon="-0.34741">
        <ele>52.53</ele>
        <time>2015-03-22T09:44:30Z</time>
      </trkpt>
      <trkpt lat="47.49371" lon="-0.34773">
        <ele>53.97</ele>
        <time>2015-03-22T09:44:41Z</time>
      </trkpt>
      <trkpt lat="47.49353" lon="-0.34816">
        <ele>55.41</ele>
        <time>2015-03-22T09:44:54Z</time>
      </trkpt>
      <trkpt lat="47.49342" lon="-0.34851">
        <ele>56.86</ele>
        <time>2015-03-22T09:45:06Z</time>
      </trkpt>
      <trkpt lat="47.49328" lon="-0.34894">
        <ele>57.34</ele>
        <time>2015-03-22T09:45:20Z</time>
      </trkpt>
      <trkpt lat="47.49319" lon="-0.34943">
        <ele>58.78</ele>
        <time>2015-03-22T09:45:34Z</time>
      </trkpt>
      <trkpt lat="47.49312" lon="-0.34993">
        <ele>60.22</ele>
        <time>2015-03-22T09:45:47Z</time>
      </trkpt>
      <trkpt lat="47.49301" lon="-0.35039">
        <ele>61.18</ele>
        <time>2015-03-22T09:45:59Z</time>
      </trkpt>
      <trkpt lat="47.49291" lon="-0.35083">
        <ele>62.62</ele>
        <time>2015-03-22T09:46:11Z</time>
      </trkpt>
      <trkpt lat="47.49286" lon="-0.35131">
        <ele>64.07</ele>
        <time>2015-03-22T09:46:24Z</time>
      </trkpt>
      <trkpt lat="47.4927" lon="-0.35176">
        <ele>66.47</ele>
        <time>2015-03-22T09:46:37Z</time>
      </trkpt>
      <trkpt lat="47.49229" lon="-0.35188">
        <ele>64.55</ele>
        <time>2015-03-22T09:46:47Z</time>
      </trkpt>
      <trkpt lat="47.49217" lon="-0.35191">
        <ele>60.22</ele>
        <time>2015-03-22T09:46:49Z</time>
      </trkpt>
      <trkpt lat="47.49211" lon="-0.35192">
        <ele>65.51</ele>
        <time>2015-03-22T09:46:50Z</time>
      </trkpt>
      <trkpt lat="47.49185" lon="-0.35199">
        <ele>62.62</ele>
        <time>2015-03-22T09:46:54Z</time>
      </trkpt>
      <trkpt lat="47.49126" lon="-0.35218">
        <ele>60.22</ele>
        <time>2015-03-22T09:47:02Z</time>
      </trkpt>
      <trkpt lat="47.49118" lon="-0.35222">
        <ele>59.26</ele>
        <time>2015-03-22T09:47:03Z</time>
      </trkpt>
      <trkpt lat="47.49111" lon="-0.35229">
        <ele>59.26</ele>
        <time>2015-03-22T09:47:04Z</time>
      </trkpt>
      <trkpt lat="47.49105" lon="-0.35236">
        <ele>59.26</ele>
        <time>2015-03-22T09:47:05Z</time>
      </trkpt>
      <trkpt lat="47.49102" lon="-0.35245">
        <ele>58.78</ele>
        <time>2015-03-22T09:47:06Z</time>
      </trkpt>
      <trkpt lat="47.49099" lon="-0.35254">
        <ele>58.3</ele>
        <time>2015-03-22T09:47:07Z</time>
      </trkpt>
      <trkpt lat="47.49096" lon="-0.35261">
        <ele>58.3</ele>
        <time>2015-03-22T09:47:08Z</time>
      </trkpt>
      <trkpt lat="47.49089" lon="-0.35279">
        <ele>57.82</ele>
        <time>2015-03-22T09:47:11Z</time>
      </trkpt>
      <trkpt lat="47.49086" lon="-0.35283">
        <ele>57.82</ele>
        <time>2015-03-22T09:47:12Z</time>
      </trkpt>
      <trkpt lat="47.49083" lon="-0.35286">
        <ele>57.34</ele>
        <time>2015-03-22T09:47:13Z</time>
      </trkpt>
      <trkpt lat="47.49079" lon="-0.35289">
        <ele>57.82</ele>
        <time>2015-03-22T09:47:14Z</time>
      </trkpt>
      <trkpt lat="47.49075" lon="-0.35291">
        <ele>57.82</ele>
        <time>2015-03-22T09:47:15Z</time>
      </trkpt>
      <trkpt lat="47.49071" lon="-0.35293">
        <ele>57.34</ele>
        <time>2015-03-22T09:47:16Z</time>
      </trkpt>
      <trkpt lat="47.49066" lon="-0.35295">
        <ele>57.34</ele>
        <time>2015-03-22T09:47:17Z</time>
      </trkpt>
      <trkpt lat="47.49061" lon="-0.35296">
        <ele>57.34</ele>
        <time>2015-03-22T09:47:18Z</time>
      </trkpt>
      <trkpt lat="47.49056" lon="-0.35296">
        <ele>56.37</ele>
        <time>2015-03-22T09:47:19Z</time>
      </trkpt>
      <trkpt lat="47.48949" lon="-0.35311">
        <ele>53.01</ele>
        <time>2015-03-22T09:47:36Z</time>
      </trkpt>
      <trkpt lat="47.48841" lon="-0.35328">
        <ele>49.65</ele>
        <time>2015-03-22T09:47:50Z</time>
      </trkpt>
      <trkpt lat="47.4873" lon="-0.3535">
        <ele>47.24</ele>
        <time>2015-03-22T09:48:04Z</time>
      </trkpt>
      <trkpt lat="47.48723" lon="-0.35355">
        <ele>46.76</ele>
        <time>2015-03-22T09:48:05Z</time>
      </trkpt>
      <trkpt lat="47.48716" lon="-0.35361">
        <ele>46.76</ele>
        <time>2015-03-22T09:48:06Z</time>
      </trkpt>
      <trkpt lat="47.4871" lon="-0.35368">
        <ele>46.76</ele>
        <time>2015-03-22T09:48:07Z</time>
      </trkpt>
      <trkpt lat="47.48705" lon="-0.35377">
        <ele>47.24</ele>
        <time>2015-03-22T09:48:08Z</time>
      </trkpt>
      <trkpt lat="47.48701" lon="-0.35387">
        <ele>45.8</ele>
        <time>2015-03-22T09:48:09Z</time>
      </trkpt>
      <trkpt lat="47.48697" lon="-0.35397">
        <ele>45.8</ele>
        <time>2015-03-22T09:48:10Z</time>
      </trkpt>
      <trkpt lat="47.48694" lon="-0.35407">
        <ele>45.8</ele>
        <time>2015-03-22T09:48:11Z</time>
      </trkpt>
      <trkpt lat="47.48649" lon="-0.35525">
        <ele>44.84</ele>
        <time>2015-03-22T09:48:23Z</time>
      </trkpt>
      <trkpt lat="47.48583" lon="-0.35628">
        <ele>43.88</ele>
        <time>2015-03-22T09:48:36Z</time>
      </trkpt>
      <trkpt lat="47.48571" lon="-0.35652">
        <ele>43.88</ele>
        <time>2015-03-22T09:48:39Z</time>
      </trkpt>
      <trkpt lat="47.48568" lon="-0.35661">
        <ele>43.88</ele>
        <time>2015-03-22T09:48:40Z</time>
      </trkpt>
      <trkpt lat="47.48566" lon="-0.3567">
        <ele>43.88</ele>
        <time>2015-03-22T09:48:41Z</time>
      </trkpt>
      <trkpt lat="47.48565" lon="-0.35679">
        <ele>44.36</ele>
        <time>2015-03-22T09:48:42Z</time>
      </trkpt>
      <trkpt lat="47.48563" lon="-0.35688">
        <ele>43.88</ele>
        <time>2015-03-22T09:48:43Z</time>
      </trkpt>
      <trkpt lat="47.48561" lon="-0.35711">
        <ele>43.88</ele>
        <time>2015-03-22T09:48:46Z</time>
      </trkpt>
      <trkpt lat="47.48563" lon="-0.35716">
        <ele>43.4</ele>
        <time>2015-03-22T09:48:47Z</time>
      </trkpt>
      <trkpt lat="47.48566" lon="-0.35719">
        <ele>43.4</ele>
        <time>2015-03-22T09:48:48Z</time>
      </trkpt>
      <trkpt lat="47.48571" lon="-0.35718">
        <ele>43.4</ele>
        <time>2015-03-22T09:48:49Z</time>
      </trkpt>
      <trkpt lat="47.48575" lon="-0.35716">
        <ele>43.4</ele>
        <time>2015-03-22T09:48:50Z</time>
      </trkpt>
      <trkpt lat="47.48623" lon="-0.35699">
        <ele>44.36</ele>
        <time>2015-03-22T09:49:01Z</time>
      </trkpt>
      <trkpt lat="47.48666" lon="-0.3569">
        <ele>44.84</ele>
        <time>2015-03-22T09:49:11Z</time>
      </trkpt>
      <trkpt lat="47.48671" lon="-0.35691">
        <ele>44.84</ele>
        <time>2015-03-22T09:49:12Z</time>
      </trkpt>
      <trkpt lat="47.48754" lon="-0.35707">
        <ele>46.76</ele>
        <time>2015-03-22T09:49:31Z</time>
      </trkpt>
      <trkpt lat="47.48831" lon="-0.35743">
        <ele>47.72</ele>
        <time>2015-03-22T09:49:49Z</time>
      </trkpt>
      <trkpt lat="47.4884" lon="-0.35748">
        <ele>47.72</ele>
        <time>2015-03-22T09:49:51Z</time>
      </trkpt>
      <trkpt lat="47.48845" lon="-0.3575">
        <ele>48.2</ele>
        <time>2015-03-22T09:49:52Z</time>
      </trkpt>
      <trkpt lat="47.48849" lon="-0.35752">
        <ele>47.72</ele>
        <time>2015-03-22T09:49:53Z</time>
      </trkpt>
      <trkpt lat="47.48921" lon="-0.35751">
        <ele>49.16</ele>
        <time>2015-03-22T09:50:08Z</time>
      </trkpt>
      <trkpt lat="47.48925" lon="-0.35751">
        <ele>49.16</ele>
        <time>2015-03-22T09:50:09Z</time>
      </trkpt>
      <trkpt lat="47.48929" lon="-0.35752">
        <ele>49.65</ele>
        <time>2015-03-22T09:50:10Z</time>
      </trkpt>
      <trkpt lat="47.48933" lon="-0.35753">
        <ele>49.65</ele>
        <time>2015-03-22T09:50:11Z</time>
      </trkpt>
      <trkpt lat="47.48937" lon="-0.35756">
        <ele>49.65</ele>
        <time>2015-03-22T09:50:12Z</time>
      </trkpt>
      <trkpt lat="47.4894" lon="-0.3576">
        <ele>49.65</ele>
        <time>2015-03-22T09:50:13Z</time>
      </trkpt>
      <trkpt lat="47.48943" lon="-0.35765">
        <ele>50.13</ele>
        <time>2015-03-22T09:50:14Z</time>
      </trkpt>
      <trkpt lat="47.48945" lon="-0.35771">
        <ele>50.13</ele>
        <time>2015-03-22T09:50:15Z</time>
      </trkpt>
      <trkpt lat="47.48947" lon="-0.35777">
        <ele>50.61</ele>
        <time>2015-03-22T09:50:16Z</time>
      </trkpt>
      <trkpt lat="47.48955" lon="-0.35801">
        <ele>50.61</ele>
        <time>2015-03-22T09:50:20Z</time>
      </trkpt>
      <trkpt lat="47.48959" lon="-0.35805">
        <ele>50.61</ele>
        <time>2015-03-22T09:50:21Z</time>
      </trkpt>
      <trkpt lat="47.48963" lon="-0.35808">
        <ele>50.61</ele>
        <time>2015-03-22T09:50:22Z</time>
      </trkpt>
      <trkpt lat="47.48968" lon="-0.3581">
        <ele>50.13</ele>
        <time>2015-03-22T09:50:23Z</time>
      </trkpt>
      <trkpt lat="47.48972" lon="-0.3581">
        <ele>51.09</ele>
        <time>2015-03-22T09:50:24Z</time>
      </trkpt>
      <trkpt lat="47.48977" lon="-0.3581">
        <ele>50.61</ele>
        <time>2015-03-22T09:50:25Z</time>
      </trkpt>
      <trkpt lat="47.48982" lon="-0.35809">
        <ele>51.09</ele>
        <time>2015-03-22T09:50:26Z</time>
      </trkpt>
      <trkpt lat="47.48986" lon="-0.35807">
        <ele>50.61</ele>
        <time>2015-03-22T09:50:27Z</time>
      </trkpt>
      <trkpt lat="47.49036" lon="-0.35793">
        <ele>51.09</ele>
        <time>2015-03-22T09:50:38Z</time>
      </trkpt>
      <trkpt lat="47.4904" lon="-0.35794">
        <ele>50.61</ele>
        <time>2015-03-22T09:50:39Z</time>
      </trkpt>
      <trkpt lat="47.49045" lon="-0.35796">
        <ele>50.61</ele>
        <time>2015-03-22T09:50:40Z</time>
      </trkpt>
      <trkpt lat="47.49049" lon="-0.358">
        <ele>50.61</ele>
        <time>2015-03-22T09:50:41Z</time>
      </trkpt>
      <trkpt lat="47.49052" lon="-0.35805">
        <ele>50.61</ele>
        <time>2015-03-22T09:50:42Z</time>
      </trkpt>
      <trkpt lat="47.49055" lon="-0.35811">
        <ele>50.13</ele>
        <time>2015-03-22T09:50:43Z</time>
      </trkpt>
      <trkpt lat="47.49057" lon="-0.35817">
        <ele>50.61</ele>
        <time>2015-03-22T09:50:44Z</time>
      </trkpt>
      <trkpt lat="47.4906" lon="-0.35824">
        <ele>50.61</ele>
        <time>2015-03-22T09:50:45Z</time>
      </trkpt>
      <trkpt lat="47.49069" lon="-0.3585">
        <ele>50.61</ele>
        <time>2015-03-22T09:50:49Z</time>
      </trkpt>
      <trkpt lat="47.49072" lon="-0.35855">
        <ele>50.61</ele>
        <time>2015-03-22T09:50:50Z</time>
      </trkpt>
      <trkpt lat="47.49076" lon="-0.35861">
        <ele>50.61</ele>
        <time>2015-03-22T09:50:51Z</time>
      </trkpt>
      <trkpt lat="47.4908" lon="-0.35865">
        <ele>50.61</ele>
        <time>2015-03-22T09:50:52Z</time>
      </trkpt>
      <trkpt lat="47.49085" lon="-0.35869">
        <ele>50.61</ele>
        <time>2015-03-22T09:50:53Z</time>
      </trkpt>
      <trkpt lat="47.49089" lon="-0.35871">
        <ele>50.61</ele>
        <time>2015-03-22T09:50:54Z</time>
      </trkpt>
      <trkpt lat="47.49095" lon="-0.35872">
        <ele>50.13</ele>
        <time>2015-03-22T09:50:55Z</time>
      </trkpt>
      <trkpt lat="47.491" lon="-0.35872">
        <ele>51.09</ele>
        <time>2015-03-22T09:50:56Z</time>
      </trkpt>
      <trkpt lat="47.49105" lon="-0.35871">
        <ele>51.09</ele>
        <time>2015-03-22T09:50:57Z</time>
      </trkpt>
      <trkpt lat="47.4911" lon="-0.35869">
        <ele>51.09</ele>
        <time>2015-03-22T09:50:58Z</time>
      </trkpt>
      <trkpt lat="47.49175" lon="-0.35843">
        <ele>53.01</ele>
        <time>2015-03-22T09:51:12Z</time>
      </trkpt>
      <trkpt lat="47.49229" lon="-0.35814">
        <ele>56.37</ele>
        <time>2015-03-22T09:51:26Z</time>
      </trkpt>
      <trkpt lat="47.4926" lon="-0.35833">
        <ele>57.34</ele>
        <time>2015-03-22T09:51:36Z</time>
      </trkpt>
      <trkpt lat="47.49265" lon="-0.35852">
        <ele>57.34</ele>
        <time>2015-03-22T09:51:39Z</time>
      </trkpt>
      <trkpt lat="47.49297" lon="-0.35965">
        <ele>57.82</ele>
        <time>2015-03-22T09:51:56Z</time>
      </trkpt>
      <trkpt lat="47.49327" lon="-0.36087">
        <ele>58.3</ele>
        <time>2015-03-22T09:52:14Z</time>
      </trkpt>
      <trkpt lat="47.49336" lon="-0.36119">
        <ele>57.82</ele>
        <time>2015-03-22T09:52:19Z</time>
      </trkpt>
      <trkpt lat="47.49338" lon="-0.36125">
        <ele>57.82</ele>
        <time>2015-03-22T09:52:20Z</time>
      </trkpt>
      <trkpt lat="47.49365" lon="-0.36205">
        <ele>58.3</ele>
        <time>2015-03-22T09:52:32Z</time>
      </trkpt>
      <trkpt lat="47.49395" lon="-0.36294">
        <ele>56.86</ele>
        <time>2015-03-22T09:52:42Z</time>
      </trkpt>
      <trkpt lat="47.49428" lon="-0.36435">
        <ele>53.97</ele>
        <time>2015-03-22T09:52:56Z</time>
      </trkpt>
      <trkpt lat="47.4944" lon="-0.36478">
        <ele>53.01</ele>
        <time>2015-03-22T09:53:00Z</time>
      </trkpt>
      <trkpt lat="47.49444" lon="-0.36488">
        <ele>52.53</ele>
        <time>2015-03-22T09:53:01Z</time>
      </trkpt>
      <trkpt lat="47.49449" lon="-0.36497">
        <ele>52.53</ele>
        <time>2015-03-22T09:53:02Z</time>
      </trkpt>
      <trkpt lat="47.49458" lon="-0.36514">
        <ele>52.05</ele>
        <time>2015-03-22T09:53:04Z</time>
      </trkpt>
      <trkpt lat="47.49462" lon="-0.36523">
        <ele>51.09</ele>
        <time>2015-03-22T09:53:05Z</time>
      </trkpt>
      <trkpt lat="47.49467" lon="-0.3653">
        <ele>50.61</ele>
        <time>2015-03-22T09:53:06Z</time>
      </trkpt>
      <trkpt lat="47.49472" lon="-0.36536">
        <ele>50.61</ele>
        <time>2015-03-22T09:53:07Z</time>
      </trkpt>
      <trkpt lat="47.49478" lon="-0.36539">
        <ele>50.13</ele>
        <time>2015-03-22T09:53:08Z</time>
      </trkpt>
      <trkpt lat="47.49485" lon="-0.36542">
        <ele>50.13</ele>
        <time>2015-03-22T09:53:09Z</time>
      </trkpt>
      <trkpt lat="47.49492" lon="-0.36543">
        <ele>50.61</ele>
        <time>2015-03-22T09:53:10Z</time>
      </trkpt>
      <trkpt lat="47.49499" lon="-0.36543">
        <ele>50.61</ele>
        <time>2015-03-22T09:53:11Z</time>
      </trkpt>
      <trkpt lat="47.49544" lon="-0.36545">
        <ele>53.01</ele>
        <time>2015-03-22T09:53:18Z</time>
      </trkpt>
      <trkpt lat="47.4955" lon="-0.36547">
        <ele>53.49</ele>
        <time>2015-03-22T09:53:19Z</time>
      </trkpt>
      <trkpt lat="47.49556" lon="-0.36547">
        <ele>53.49</ele>
        <time>2015-03-22T09:53:20Z</time>
      </trkpt>
      <trkpt lat="47.49594" lon="-0.36548">
        <ele>55.89</ele>
        <time>2015-03-22T09:53:27Z</time>
      </trkpt>
      <trkpt lat="47.49634" lon="-0.36553">
        <ele>57.82</ele>
        <time>2015-03-22T09:53:36Z</time>
      </trkpt>
      <trkpt lat="47.49638" lon="-0.36554">
        <ele>57.34</ele>
        <time>2015-03-22T09:53:37Z</time>
      </trkpt>
      <trkpt lat="47.49713" lon="-0.36577">
        <ele>59.74</ele>
        <time>2015-03-22T09:53:55Z</time>
      </trkpt>
      <trkpt lat="47.49717" lon="-0.36579">
        <ele>59.74</ele>
        <time>2015-03-22T09:53:56Z</time>
      </trkpt>
      <trkpt lat="47.49721" lon="-0.36581">
        <ele>60.22</ele>
        <time>2015-03-22T09:53:57Z</time>
      </trkpt>
      <trkpt lat="47.49739" lon="-0.36596">
        <ele>59.74</ele>
        <time>2015-03-22T09:54:02Z</time>
      </trkpt>
      <trkpt lat="47.49743" lon="-0.36597">
        <ele>59.74</ele>
        <time>2015-03-22T09:54:03Z</time>
      </trkpt>
      <trkpt lat="47.49747" lon="-0.36598">
        <ele>60.22</ele>
        <time>2015-03-22T09:54:04Z</time>
      </trkpt>
      <trkpt lat="47.49751" lon="-0.36599">
        <ele>60.22</ele>
        <time>2015-03-22T09:54:05Z</time>
      </trkpt>
      <trkpt lat="47.49755" lon="-0.36598">
        <ele>60.22</ele>
        <time>2015-03-22T09:54:06Z</time>
      </trkpt>
      <trkpt lat="47.49759" lon="-0.36598">
        <ele>60.22</ele>
        <time>2015-03-22T09:54:07Z</time>
      </trkpt>
      <trkpt lat="47.49763" lon="-0.36597">
        <ele>60.22</ele>
        <time>2015-03-22T09:54:08Z</time>
      </trkpt>
      <trkpt lat="47.49814" lon="-0.36587">
        <ele>59.74</ele>
        <time>2015-03-22T09:54:20Z</time>
      </trkpt>
      <trkpt lat="47.4984" lon="-0.36578">
        <ele>58.78</ele>
        <time>2015-03-22T09:54:25Z</time>
      </trkpt>
      <trkpt lat="47.49846" lon="-0.36578">
        <ele>58.3</ele>
        <time>2015-03-22T09:54:26Z</time>
      </trkpt>
      <trkpt lat="47.49893" lon="-0.36579">
        <ele>56.86</ele>
        <time>2015-03-22T09:54:34Z</time>
      </trkpt>
      <trkpt lat="47.49898" lon="-0.36578">
        <ele>57.34</ele>
        <time>2015-03-22T09:54:35Z</time>
      </trkpt>
      <trkpt lat="47.49934" lon="-0.36578">
        <ele>56.86</ele>
        <time>2015-03-22T09:54:41Z</time>
      </trkpt>
      <trkpt lat="47.49947" lon="-0.36578">
        <ele>57.34</ele>
        <time>2015-03-22T09:54:43Z</time>
      </trkpt>
      <trkpt lat="47.50022" lon="-0.36572">
        <ele>55.41</ele>
        <time>2015-03-22T09:54:55Z</time>
      </trkpt>
      <trkpt lat="47.50027" lon="-0.36571">
        <ele>55.41</ele>
        <time>2015-03-22T09:54:56Z</time>
      </trkpt>
      <trkpt lat="47.50059" lon="-0.3657">
        <ele>53.97</ele>
        <time>2015-03-22T09:55:01Z</time>
      </trkpt>
      <trkpt lat="47.50074" lon="-0.36572">
        <ele>53.01</ele>
        <time>2015-03-22T09:55:03Z</time>
      </trkpt>
      <trkpt lat="47.50103" lon="-0.36575">
        <ele>53.01</ele>
        <time>2015-03-22T09:55:07Z</time>
      </trkpt>
      <trkpt lat="47.50109" lon="-0.36577">
        <ele>52.53</ele>
        <time>2015-03-22T09:55:08Z</time>
      </trkpt>
      <trkpt lat="47.50116" lon="-0.36581">
        <ele>52.53</ele>
        <time>2015-03-22T09:55:09Z</time>
      </trkpt>
      <trkpt lat="47.50122" lon="-0.36586">
        <ele>52.53</ele>
        <time>2015-03-22T09:55:10Z</time>
      </trkpt>
      <trkpt lat="47.50127" lon="-0.36592">
        <ele>52.53</ele>
        <time>2015-03-22T09:55:11Z</time>
      </trkpt>
      <trkpt lat="47.50132" lon="-0.36599">
        <ele>53.01</ele>
        <time>2015-03-22T09:55:12Z</time>
      </trkpt>
      <trkpt lat="47.50136" lon="-0.36607">
        <ele>53.01</ele>
        <time>2015-03-22T09:55:13Z</time>
      </trkpt>
      <trkpt lat="47.5014" lon="-0.36615">
        <ele>53.01</ele>
        <time>2015-03-22T09:55:14Z</time>
      </trkpt>
      <trkpt lat="47.50157" lon="-0.36653">
        <ele>53.97</ele>
        <time>2015-03-22T09:55:19Z</time>
      </trkpt>
      <trkpt lat="47.50159" lon="-0.3666">
        <ele>53.97</ele>
        <time>2015-03-22T09:55:20Z</time>
      </trkpt>
      <trkpt lat="47.50162" lon="-0.36666">
        <ele>54.93</ele>
        <time>2015-03-22T09:55:21Z</time>
      </trkpt>
      <trkpt lat="47.50165" lon="-0.36671">
        <ele>54.93</ele>
        <time>2015-03-22T09:55:22Z</time>
      </trkpt>
      <trkpt lat="47.50168" lon="-0.36675">
        <ele>54.93</ele>
        <time>2015-03-22T09:55:23Z</time>
      </trkpt>
      <trkpt lat="47.50172" lon="-0.36678">
        <ele>55.41</ele>
        <time>2015-03-22T09:55:24Z</time>
      </trkpt>
      <trkpt lat="47.50175" lon="-0.36681">
        <ele>54.93</ele>
        <time>2015-03-22T09:55:25Z</time>
      </trkpt>
      <trkpt lat="47.50179" lon="-0.36683">
        <ele>54.93</ele>
        <time>2015-03-22T09:55:26Z</time>
      </trkpt>
      <trkpt lat="47.50182" lon="-0.36684">
        <ele>55.41</ele>
        <time>2015-03-22T09:55:27Z</time>
      </trkpt>
      <trkpt lat="47.50227" lon="-0.36708">
        <ele>55.89</ele>
        <time>2015-03-22T09:55:39Z</time>
      </trkpt>
      <trkpt lat="47.50269" lon="-0.36733">
        <ele>56.37</ele>
        <time>2015-03-22T09:55:51Z</time>
      </trkpt>
      <trkpt lat="47.50307" lon="-0.36753">
        <ele>57.82</ele>
        <time>2015-03-22T09:56:02Z</time>
      </trkpt>
      <trkpt lat="47.50339" lon="-0.36777">
        <ele>58.78</ele>
        <time>2015-03-22T09:56:11Z</time>
      </trkpt>
      <trkpt lat="47.5034" lon="-0.36781">
        <ele>59.26</ele>
        <time>2015-03-22T09:56:12Z</time>
      </trkpt>
      <trkpt lat="47.50341" lon="-0.36786">
        <ele>59.26</ele>
        <time>2015-03-22T09:56:13Z</time>
      </trkpt>
      <trkpt lat="47.50342" lon="-0.36791">
        <ele>59.74</ele>
        <time>2015-03-22T09:56:14Z</time>
      </trkpt>
      <trkpt lat="47.50343" lon="-0.36796">
        <ele>59.26</ele>
        <time>2015-03-22T09:56:15Z</time>
      </trkpt>
      <trkpt lat="47.50343" lon="-0.36801">
        <ele>60.22</ele>
        <time>2015-03-22T09:56:16Z</time>
      </trkpt>
      <trkpt lat="47.50345" lon="-0.36865">
        <ele>61.18</ele>
        <time>2015-03-22T09:56:28Z</time>
      </trkpt>
      <trkpt lat="47.50345" lon="-0.36883">
        <ele>61.18</ele>
        <time>2015-03-22T09:56:31Z</time>
      </trkpt>
      <trkpt lat="47.50344" lon="-0.36888">
        <ele>61.18</ele>
        <time>2015-03-22T09:56:32Z</time>
      </trkpt>
      <trkpt lat="47.50341" lon="-0.36891">
        <ele>61.18</ele>
        <time>2015-03-22T09:56:33Z</time>
      </trkpt>
      <trkpt lat="47.50326" lon="-0.36905">
        <ele>60.7</ele>
        <time>2015-03-22T09:56:37Z</time>
      </trkpt>
      <trkpt lat="47.50322" lon="-0.36908">
        <ele>61.18</ele>
        <time>2015-03-22T09:56:38Z</time>
      </trkpt>
      <trkpt lat="47.50312" lon="-0.36915">
        <ele>61.18</ele>
        <time>2015-03-22T09:56:40Z</time>
      </trkpt>
      <trkpt lat="47.50286" lon="-0.36938">
        <ele>60.7</ele>
        <time>2015-03-22T09:56:46Z</time>
      </trkpt>
      <trkpt lat="47.50282" lon="-0.36941">
        <ele>60.7</ele>
        <time>2015-03-22T09:56:47Z</time>
      </trkpt>
      <trkpt lat="47.50272" lon="-0.36946">
        <ele>60.7</ele>
        <time>2015-03-22T09:56:49Z</time>
      </trkpt>
      <trkpt lat="47.50216" lon="-0.36996">
        <ele>57.82</ele>
        <time>2015-03-22T09:57:01Z</time>
      </trkpt>
      <trkpt lat="47.50176" lon="-0.3703">
        <ele>56.86</ele>
        <time>2015-03-22T09:57:09Z</time>
      </trkpt>
      <trkpt lat="47.50174" lon="-0.37035">
        <ele>56.86</ele>
        <time>2015-03-22T09:57:10Z</time>
      </trkpt>
      <trkpt lat="47.50173" lon="-0.37041">
        <ele>55.89</ele>
        <time>2015-03-22T09:57:11Z</time>
      </trkpt>
      <trkpt lat="47.50175" lon="-0.37047">
        <ele>56.37</ele>
        <time>2015-03-22T09:57:12Z</time>
      </trkpt>
      <trkpt lat="47.50178" lon="-0.37053">
        <ele>56.37</ele>
        <time>2015-03-22T09:57:13Z</time>
      </trkpt>
      <trkpt lat="47.50181" lon="-0.37059">
        <ele>56.37</ele>
        <time>2015-03-22T09:57:14Z</time>
      </trkpt>
      <trkpt lat="47.50187" lon="-0.37071">
        <ele>56.37</ele>
        <time>2015-03-22T09:57:16Z</time>
      </trkpt>
      <trkpt lat="47.5019" lon="-0.37077">
        <ele>55.89</ele>
        <time>2015-03-22T09:57:17Z</time>
      </trkpt>
      <trkpt lat="47.50193" lon="-0.37083">
        <ele>55.89</ele>
        <time>2015-03-22T09:57:18Z</time>
      </trkpt>
      <trkpt lat="47.50198" lon="-0.37095">
        <ele>56.37</ele>
        <time>2015-03-22T09:57:20Z</time>
      </trkpt>
      <trkpt lat="47.50199" lon="-0.37102">
        <ele>55.89</ele>
        <time>2015-03-22T09:57:21Z</time>
      </trkpt>
      <trkpt lat="47.50198" lon="-0.37109">
        <ele>55.41</ele>
        <time>2015-03-22T09:57:22Z</time>
      </trkpt>
      <trkpt lat="47.50196" lon="-0.37117">
        <ele>54.93</ele>
        <time>2015-03-22T09:57:23Z</time>
      </trkpt>
      <trkpt lat="47.50193" lon="-0.37125">
        <ele>55.41</ele>
        <time>2015-03-22T09:57:24Z</time>
      </trkpt>
      <trkpt lat="47.50189" lon="-0.37133">
        <ele>54.93</ele>
        <time>2015-03-22T09:57:25Z</time>
      </trkpt>
      <trkpt lat="47.50185" lon="-0.3714">
        <ele>54.93</ele>
        <time>2015-03-22T09:57:26Z</time>
      </trkpt>
      <trkpt lat="47.50181" lon="-0.37147">
        <ele>54.93</ele>
        <time>2015-03-22T09:57:27Z</time>
      </trkpt>
      <trkpt lat="47.50136" lon="-0.37233">
        <ele>51.57</ele>
        <time>2015-03-22T09:57:38Z</time>
      </trkpt>
      <trkpt lat="47.50081" lon="-0.37353">
        <ele>50.13</ele>
        <time>2015-03-22T09:57:53Z</time>
      </trkpt>
      <trkpt lat="47.50044" lon="-0.37389">
        <ele>49.65</ele>
        <time>2015-03-22T09:58:00Z</time>
      </trkpt>
      <trkpt lat="47.50021" lon="-0.37401">
        <ele>50.13</ele>
        <time>2015-03-22T09:58:04Z</time>
      </trkpt>
      <trkpt lat="47.50017" lon="-0.37407">
        <ele>50.13</ele>
        <time>2015-03-22T09:58:05Z</time>
      </trkpt>
      <trkpt lat="47.50016" lon="-0.37414">
        <ele>50.61</ele>
        <time>2015-03-22T09:58:06Z</time>
      </trkpt>
      <trkpt lat="47.50015" lon="-0.37422">
        <ele>50.13</ele>
        <time>2015-03-22T09:58:07Z</time>
      </trkpt>
      <trkpt lat="47.50016" lon="-0.37431">
        <ele>50.61</ele>
        <time>2015-03-22T09:58:08Z</time>
      </trkpt>
      <trkpt lat="47.5002" lon="-0.37533">
        <ele>47.72</ele>
        <time>2015-03-22T09:58:18Z</time>
      </trkpt>
      <trkpt lat="47.50015" lon="-0.37616">
        <ele>44.84</ele>
        <time>2015-03-22T09:58:27Z</time>
      </trkpt>
      <trkpt lat="47.50013" lon="-0.37618">
        <ele>44.84</ele>
        <time>2015-03-22T09:58:28Z</time>
      </trkpt>
      <trkpt lat="47.50011" lon="-0.37619">
        <ele>44.36</ele>
        <time>2015-03-22T09:58:29Z</time>
      </trkpt>
      <trkpt lat="47.50008" lon="-0.37617">
        <ele>44.84</ele>
        <time>2015-03-22T09:58:30Z</time>
      </trkpt>
      <trkpt lat="47.50006" lon="-0.37615">
        <ele>45.32</ele>
        <time>2015-03-22T09:58:31Z</time>
      </trkpt>
      <trkpt lat="47.50004" lon="-0.37612">
        <ele>45.32</ele>
        <time>2015-03-22T09:58:32Z</time>
      </trkpt>
      <trkpt lat="47.49966" lon="-0.37573">
        <ele>47.24</ele>
        <time>2015-03-22T09:58:45Z</time>
      </trkpt>
      <trkpt lat="47.49928" lon="-0.3756">
        <ele>49.65</ele>
        <time>2015-03-22T09:58:54Z</time>
      </trkpt>
      <trkpt lat="47.49924" lon="-0.37558">
        <ele>49.65</ele>
        <time>2015-03-22T09:58:55Z</time>
      </trkpt>
      <trkpt lat="47.4992" lon="-0.37555">
        <ele>49.16</ele>
        <time>2015-03-22T09:58:56Z</time>
      </trkpt>
      <trkpt lat="47.49908" lon="-0.37545">
        <ele>49.65</ele>
        <time>2015-03-22T09:58:59Z</time>
      </trkpt>
      <trkpt lat="47.49904" lon="-0.37541">
        <ele>48.68</ele>
        <time>2015-03-22T09:59:00Z</time>
      </trkpt>
      <trkpt lat="47.499" lon="-0.37536">
        <ele>49.65</ele>
        <time>2015-03-22T09:59:01Z</time>
      </trkpt>
      <trkpt lat="47.49897" lon="-0.37531">
        <ele>49.65</ele>
        <time>2015-03-22T09:59:02Z</time>
      </trkpt>
      <trkpt lat="47.49894" lon="-0.37526">
        <ele>50.13</ele>
        <time>2015-03-22T09:59:03Z</time>
      </trkpt>
      <trkpt lat="47.49892" lon="-0.37521">
        <ele>50.13</ele>
        <time>2015-03-22T09:59:04Z</time>
      </trkpt>
      <trkpt lat="47.49845" lon="-0.37452">
        <ele>48.2</ele>
        <time>2015-03-22T09:59:16Z</time>
      </trkpt>
      <trkpt lat="47.49809" lon="-0.37419">
        <ele>45.32</ele>
        <time>2015-03-22T09:59:22Z</time>
      </trkpt>
      <trkpt lat="47.49704" lon="-0.37369">
        <ele>44.36</ele>
        <time>2015-03-22T09:59:37Z</time>
      </trkpt>
      <trkpt lat="47.49634" lon="-0.37364">
        <ele>44.84</ele>
        <time>2015-03-22T09:59:47Z</time>
      </trkpt>
      <trkpt lat="47.49627" lon="-0.37366">
        <ele>44.84</ele>
        <time>2015-03-22T09:59:48Z</time>
      </trkpt>
      <trkpt lat="47.49621" lon="-0.37369">
        <ele>45.32</ele>
        <time>2015-03-22T09:59:49Z</time>
      </trkpt>
      <trkpt lat="47.49614" lon="-0.37373">
        <ele>45.32</ele>
        <time>2015-03-22T09:59:50Z</time>
      </trkpt>
      <trkpt lat="47.49608" lon="-0.37378">
        <ele>45.8</ele>
        <time>2015-03-22T09:59:51Z</time>
      </trkpt>
      <trkpt lat="47.49603" lon="-0.37383">
        <ele>46.28</ele>
        <time>2015-03-22T09:59:52Z</time>
      </trkpt>
      <trkpt lat="47.49597" lon="-0.37389">
        <ele>46.28</ele>
        <time>2015-03-22T09:59:53Z</time>
      </trkpt>
      <trkpt lat="47.49557" lon="-0.37435">
        <ele>49.65</ele>
        <time>2015-03-22T10:00:01Z</time>
      </trkpt>
      <trkpt lat="47.49548" lon="-0.37444">
        <ele>49.65</ele>
        <time>2015-03-22T10:00:03Z</time>
      </trkpt>
      <trkpt lat="47.49543" lon="-0.37447">
        <ele>50.13</ele>
        <time>2015-03-22T10:00:04Z</time>
      </trkpt>
      <trkpt lat="47.49474" lon="-0.37469">
        <ele>50.61</ele>
        <time>2015-03-22T10:00:18Z</time>
      </trkpt>
      <trkpt lat="47.49443" lon="-0.37479">
        <ele>50.61</ele>
        <time>2015-03-22T10:00:24Z</time>
      </trkpt>
      <trkpt lat="47.49439" lon="-0.37483">
        <ele>50.61</ele>
        <time>2015-03-22T10:00:25Z</time>
      </trkpt>
      <trkpt lat="47.49437" lon="-0.3749">
        <ele>50.61</ele>
        <time>2015-03-22T10:00:26Z</time>
      </trkpt>
      <trkpt lat="47.49437" lon="-0.37497">
        <ele>51.09</ele>
        <time>2015-03-22T10:00:27Z</time>
      </trkpt>
      <trkpt lat="47.49438" lon="-0.37505">
        <ele>51.09</ele>
        <time>2015-03-22T10:00:28Z</time>
      </trkpt>
      <trkpt lat="47.4944" lon="-0.37513">
        <ele>51.09</ele>
        <time>2015-03-22T10:00:29Z</time>
      </trkpt>
      <trkpt lat="47.49451" lon="-0.37571">
        <ele>49.65</ele>
        <time>2015-03-22T10:00:36Z</time>
      </trkpt>
      <trkpt lat="47.49481" lon="-0.37727">
        <ele>47.72</ele>
        <time>2015-03-22T10:00:53Z</time>
      </trkpt>
      <trkpt lat="47.49492" lon="-0.37769">
        <ele>45.8</ele>
        <time>2015-03-22T10:00:58Z</time>
      </trkpt>
      <trkpt lat="47.49492" lon="-0.37777">
        <ele>45.32</ele>
        <time>2015-03-22T10:00:59Z</time>
      </trkpt>
      <trkpt lat="47.49489" lon="-0.37784">
        <ele>46.28</ele>
        <time>2015-03-22T10:01:00Z</time>
      </trkpt>
      <trkpt lat="47.49485" lon="-0.3779">
        <ele>45.8</ele>
        <time>2015-03-22T10:01:01Z</time>
      </trkpt>
      <trkpt lat="47.4948" lon="-0.37794">
        <ele>46.28</ele>
        <time>2015-03-22T10:01:02Z</time>
      </trkpt>
      <trkpt lat="47.49475" lon="-0.37797">
        <ele>46.28</ele>
        <time>2015-03-22T10:01:03Z</time>
      </trkpt>
      <trkpt lat="47.4947" lon="-0.378">
        <ele>45.8</ele>
        <time>2015-03-22T10:01:04Z</time>
      </trkpt>
      <trkpt lat="47.49435" lon="-0.3782">
        <ele>43.88</ele>
        <time>2015-03-22T10:01:10Z</time>
      </trkpt>
      <trkpt lat="47.49421" lon="-0.37829">
        <ele>43.88</ele>
        <time>2015-03-22T10:01:12Z</time>
      </trkpt>
      <trkpt lat="47.49414" lon="-0.37835">
        <ele>42.44</ele>
        <time>2015-03-22T10:01:13Z</time>
      </trkpt>
      <trkpt lat="47.49408" lon="-0.37842">
        <ele>41.95</ele>
        <time>2015-03-22T10:01:14Z</time>
      </trkpt>
      <trkpt lat="47.49402" lon="-0.3785">
        <ele>42.44</ele>
        <time>2015-03-22T10:01:15Z</time>
      </trkpt>
      <trkpt lat="47.49397" lon="-0.37859">
        <ele>41.95</ele>
        <time>2015-03-22T10:01:16Z</time>
      </trkpt>
      <trkpt lat="47.49372" lon="-0.37909">
        <ele>40.03</ele>
        <time>2015-03-22T10:01:22Z</time>
      </trkpt>
      <trkpt lat="47.49369" lon="-0.37919">
        <ele>39.55</ele>
        <time>2015-03-22T10:01:23Z</time>
      </trkpt>
      <trkpt lat="47.49366" lon="-0.37929">
        <ele>39.07</ele>
        <time>2015-03-22T10:01:24Z</time>
      </trkpt>
      <trkpt lat="47.49364" lon="-0.3794">
        <ele>39.07</ele>
        <time>2015-03-22T10:01:25Z</time>
      </trkpt>
      <trkpt lat="47.49361" lon="-0.3795">
        <ele>38.59</ele>
        <time>2015-03-22T10:01:26Z</time>
      </trkpt>
      <trkpt lat="47.49357" lon="-0.3796">
        <ele>39.07</ele>
        <time>2015-03-22T10:01:27Z</time>
      </trkpt>
      <trkpt lat="47.49352" lon="-0.37968">
        <ele>38.11</ele>
        <time>2015-03-22T10:01:28Z</time>
      </trkpt>
      <trkpt lat="47.49347" lon="-0.37976">
        <ele>38.11</ele>
        <time>2015-03-22T10:01:29Z</time>
      </trkpt>
      <trkpt lat="47.49316" lon="-0.38026">
        <ele>35.71</ele>
        <time>2015-03-22T10:01:35Z</time>
      </trkpt>
      <trkpt lat="47.49307" lon="-0.38058">
        <ele>36.19</ele>
        <time>2015-03-22T10:01:38Z</time>
      </trkpt>
      <trkpt lat="47.49306" lon="-0.38069">
        <ele>35.71</ele>
        <time>2015-03-22T10:01:39Z</time>
      </trkpt>
      <trkpt lat="47.49307" lon="-0.38081">
        <ele>35.71</ele>
        <time>2015-03-22T10:01:40Z</time>
      </trkpt>
      <trkpt lat="47.49309" lon="-0.38092">
        <ele>35.23</ele>
        <time>2015-03-22T10:01:41Z</time>
      </trkpt>
      <trkpt lat="47.49313" lon="-0.38103">
        <ele>35.71</ele>
        <time>2015-03-22T10:01:42Z</time>
      </trkpt>
      <trkpt lat="47.49316" lon="-0.38114">
        <ele>35.71</ele>
        <time>2015-03-22T10:01:43Z</time>
      </trkpt>
      <trkpt lat="47.49319" lon="-0.38125">
        <ele>35.23</ele>
        <time>2015-03-22T10:01:44Z</time>
      </trkpt>
      <trkpt lat="47.4932" lon="-0.38136">
        <ele>35.23</ele>
        <time>2015-03-22T10:01:45Z</time>
      </trkpt>
      <trkpt lat="47.49319" lon="-0.38147">
        <ele>34.74</ele>
        <time>2015-03-22T10:01:46Z</time>
      </trkpt>
      <trkpt lat="47.49315" lon="-0.38157">
        <ele>35.23</ele>
        <time>2015-03-22T10:01:47Z</time>
      </trkpt>
      <trkpt lat="47.49309" lon="-0.38165">
        <ele>35.23</ele>
        <time>2015-03-22T10:01:48Z</time>
      </trkpt>
      <trkpt lat="47.49302" lon="-0.38171">
        <ele>34.74</ele>
        <time>2015-03-22T10:01:49Z</time>
      </trkpt>
      <trkpt lat="47.49294" lon="-0.38177">
        <ele>34.74</ele>
        <time>2015-03-22T10:01:50Z</time>
      </trkpt>
      <trkpt lat="47.49287" lon="-0.38183">
        <ele>34.26</ele>
        <time>2015-03-22T10:01:51Z</time>
      </trkpt>
      <trkpt lat="47.49169" lon="-0.38289">
        <ele>31.86</ele>
        <time>2015-03-22T10:02:06Z</time>
      </trkpt>
      <trkpt lat="47.4915" lon="-0.38311">
        <ele>30.9</ele>
        <time>2015-03-22T10:02:09Z</time>
      </trkpt>
      <trkpt lat="47.49147" lon="-0.3832">
        <ele>30.42</ele>
        <time>2015-03-22T10:02:10Z</time>
      </trkpt>
      <trkpt lat="47.49147" lon="-0.38331">
        <ele>30.42</ele>
        <time>2015-03-22T10:02:11Z</time>
      </trkpt>
      <trkpt lat="47.49148" lon="-0.38343">
        <ele>30.9</ele>
        <time>2015-03-22T10:02:12Z</time>
      </trkpt>
      <trkpt lat="47.49151" lon="-0.38354">
        <ele>30.9</ele>
        <time>2015-03-22T10:02:13Z</time>
      </trkpt>
      <trkpt lat="47.49174" lon="-0.38467">
        <ele>32.82</ele>
        <time>2015-03-22T10:02:23Z</time>
      </trkpt>
      <trkpt lat="47.4918" lon="-0.38517">
        <ele>32.82</ele>
        <time>2015-03-22T10:02:28Z</time>
      </trkpt>
      <trkpt lat="47.49179" lon="-0.38525">
        <ele>32.82</ele>
        <time>2015-03-22T10:02:29Z</time>
      </trkpt>
      <trkpt lat="47.49176" lon="-0.38532">
        <ele>32.82</ele>
        <time>2015-03-22T10:02:30Z</time>
      </trkpt>
      <trkpt lat="47.49172" lon="-0.38535">
        <ele>32.34</ele>
        <time>2015-03-22T10:02:31Z</time>
      </trkpt>
      <trkpt lat="47.49166" lon="-0.38536">
        <ele>31.86</ele>
        <time>2015-03-22T10:02:32Z</time>
      </trkpt>
      <trkpt lat="47.49161" lon="-0.38535">
        <ele>32.34</ele>
        <time>2015-03-22T10:02:33Z</time>
      </trkpt>
      <trkpt lat="47.49118" lon="-0.38525">
        <ele>29.94</ele>
        <time>2015-03-22T10:02:40Z</time>
      </trkpt>
      <trkpt lat="47.49112" lon="-0.38523">
        <ele>30.42</ele>
        <time>2015-03-22T10:02:41Z</time>
      </trkpt>
      <trkpt lat="47.49106" lon="-0.38521">
        <ele>30.42</ele>
        <time>2015-03-22T10:02:42Z</time>
      </trkpt>
      <trkpt lat="47.49089" lon="-0.38514">
        <ele>29.46</ele>
        <time>2015-03-22T10:02:45Z</time>
      </trkpt>
      <trkpt lat="47.49084" lon="-0.3851">
        <ele>29.46</ele>
        <time>2015-03-22T10:02:46Z</time>
      </trkpt>
      <trkpt lat="47.49079" lon="-0.38505">
        <ele>29.46</ele>
        <time>2015-03-22T10:02:47Z</time>
      </trkpt>
      <trkpt lat="47.49075" lon="-0.38499">
        <ele>28.98</ele>
        <time>2015-03-22T10:02:48Z</time>
      </trkpt>
      <trkpt lat="47.49071" lon="-0.38492">
        <ele>29.46</ele>
        <time>2015-03-22T10:02:49Z</time>
      </trkpt>
      <trkpt lat="47.49067" lon="-0.38485">
        <ele>28.98</ele>
        <time>2015-03-22T10:02:50Z</time>
      </trkpt>
      <trkpt lat="47.49064" lon="-0.38477">
        <ele>28.98</ele>
        <time>2015-03-22T10:02:51Z</time>
      </trkpt>
      <trkpt lat="47.49061" lon="-0.38469">
        <ele>29.94</ele>
        <time>2015-03-22T10:02:52Z</time>
      </trkpt>
      <trkpt lat="47.49042" lon="-0.38427">
        <ele>28.98</ele>
        <time>2015-03-22T10:02:58Z</time>
      </trkpt>
      <trkpt lat="47.49038" lon="-0.38421">
        <ele>28.98</ele>
        <time>2015-03-22T10:02:59Z</time>
      </trkpt>
      <trkpt lat="47.49033" lon="-0.38416">
        <ele>28.98</ele>
        <time>2015-03-22T10:03:00Z</time>
      </trkpt>
      <trkpt lat="47.49028" lon="-0.38411">
        <ele>28.98</ele>
        <time>2015-03-22T10:03:01Z</time>
      </trkpt>
      <trkpt lat="47.49022" lon="-0.38408">
        <ele>28.98</ele>
        <time>2015-03-22T10:03:02Z</time>
      </trkpt>
      <trkpt lat="47.49" lon="-0.38392">
        <ele>28.5</ele>
        <time>2015-03-22T10:03:06Z</time>
      </trkpt>
      <trkpt lat="47.48995" lon="-0.38386">
        <ele>28.5</ele>
        <time>2015-03-22T10:03:07Z</time>
      </trkpt>
      <trkpt lat="47.48991" lon="-0.3838">
        <ele>28.98</ele>
        <time>2015-03-22T10:03:08Z</time>
      </trkpt>
      <trkpt lat="47.48926" lon="-0.38262">
        <ele>29.46</ele>
        <time>2015-03-22T10:03:24Z</time>
      </trkpt>
      <trkpt lat="47.48842" lon="-0.38141">
        <ele>28.5</ele>
        <time>2015-03-22T10:03:41Z</time>
      </trkpt>
      <trkpt lat="47.488" lon="-0.3808">
        <ele>28.02</ele>
        <time>2015-03-22T10:03:50Z</time>
      </trkpt>
      <trkpt lat="47.48797" lon="-0.38072">
        <ele>27.53</ele>
        <time>2015-03-22T10:03:51Z</time>
      </trkpt>
      <trkpt lat="47.48794" lon="-0.38064">
        <ele>28.02</ele>
        <time>2015-03-22T10:03:52Z</time>
      </trkpt>
      <trkpt lat="47.4876" lon="-0.37929">
        <ele>28.5</ele>
        <time>2015-03-22T10:04:09Z</time>
      </trkpt>
      <trkpt lat="47.48745" lon="-0.37861">
        <ele>28.02</ele>
        <time>2015-03-22T10:04:18Z</time>
      </trkpt>
      <trkpt lat="47.48744" lon="-0.37852">
        <ele>28.02</ele>
        <time>2015-03-22T10:04:19Z</time>
      </trkpt>
      <trkpt lat="47.48741" lon="-0.37812">
        <ele>28.02</ele>
        <time>2015-03-22T10:04:24Z</time>
      </trkpt>
      <trkpt lat="47.48734" lon="-0.37705">
        <ele>28.98</ele>
        <time>2015-03-22T10:04:37Z</time>
      </trkpt>
      <trkpt lat="47.48736" lon="-0.37698">
        <ele>29.46</ele>
        <time>2015-03-22T10:04:38Z</time>
      </trkpt>
      <trkpt lat="47.4874" lon="-0.37692">
        <ele>29.46</ele>
        <time>2015-03-22T10:04:39Z</time>
      </trkpt>
      <trkpt lat="47.48745" lon="-0.37689">
        <ele>29.46</ele>
        <time>2015-03-22T10:04:40Z</time>
      </trkpt>
      <trkpt lat="47.48749" lon="-0.37686">
        <ele>29.94</ele>
        <time>2015-03-22T10:04:41Z</time>
      </trkpt>
      <trkpt lat="47.48754" lon="-0.37683">
        <ele>29.46</ele>
        <time>2015-03-22T10:04:42Z</time>
      </trkpt>
      <trkpt lat="47.48759" lon="-0.3768">
        <ele>29.46</ele>
        <time>2015-03-22T10:04:43Z</time>
      </trkpt>
      <trkpt lat="47.48764" lon="-0.37678">
        <ele>29.46</ele>
        <time>2015-03-22T10:04:44Z</time>
      </trkpt>
      <trkpt lat="47.48769" lon="-0.37674">
        <ele>30.42</ele>
        <time>2015-03-22T10:04:45Z</time>
      </trkpt>
      <trkpt lat="47.48772" lon="-0.37668">
        <ele>29.94</ele>
        <time>2015-03-22T10:04:46Z</time>
      </trkpt>
      <trkpt lat="47.48774" lon="-0.37661">
        <ele>30.42</ele>
        <time>2015-03-22T10:04:47Z</time>
      </trkpt>
      <trkpt lat="47.48774" lon="-0.37653">
        <ele>30.9</ele>
        <time>2015-03-22T10:04:48Z</time>
      </trkpt>
      <trkpt lat="47.48774" lon="-0.37646">
        <ele>30.9</ele>
        <time>2015-03-22T10:04:49Z</time>
      </trkpt>
      <trkpt lat="47.48773" lon="-0.37638">
        <ele>29.46</ele>
        <time>2015-03-22T10:04:50Z</time>
      </trkpt>
      <trkpt lat="47.48772" lon="-0.37631">
        <ele>29.94</ele>
        <time>2015-03-22T10:04:51Z</time>
      </trkpt>
      <trkpt lat="47.48745" lon="-0.375">
        <ele>30.42</ele>
        <time>2015-03-22T10:05:09Z</time>
      </trkpt>
      <trkpt lat="47.48738" lon="-0.37445">
        <ele>30.42</ele>
        <time>2015-03-22T10:05:16Z</time>
      </trkpt>
      <trkpt lat="47.48736" lon="-0.37421">
        <ele>30.42</ele>
        <time>2015-03-22T10:05:19Z</time>
      </trkpt>
      <trkpt lat="47.48734" lon="-0.37413">
        <ele>30.42</ele>
        <time>2015-03-22T10:05:20Z</time>
      </trkpt>
      <trkpt lat="47.48731" lon="-0.37405">
        <ele>29.94</ele>
        <time>2015-03-22T10:05:21Z</time>
      </trkpt>
      <trkpt lat="47.48728" lon="-0.37398">
        <ele>30.42</ele>
        <time>2015-03-22T10:05:22Z</time>
      </trkpt>
      <trkpt lat="47.48723" lon="-0.37393">
        <ele>29.94</ele>
        <time>2015-03-22T10:05:23Z</time>
      </trkpt>
      <trkpt lat="47.48718" lon="-0.37389">
        <ele>30.42</ele>
        <time>2015-03-22T10:05:24Z</time>
      </trkpt>
      <trkpt lat="47.48713" lon="-0.37385">
        <ele>30.9</ele>
        <time>2015-03-22T10:05:25Z</time>
      </trkpt>
      <trkpt lat="47.48638" lon="-0.37332">
        <ele>30.9</ele>
        <time>2015-03-22T10:05:39Z</time>
      </trkpt>
      <trkpt lat="47.48632" lon="-0.37329">
        <ele>31.38</ele>
        <time>2015-03-22T10:05:40Z</time>
      </trkpt>
      <trkpt lat="47.48626" lon="-0.37327">
        <ele>31.38</ele>
        <time>2015-03-22T10:05:41Z</time>
      </trkpt>
      <trkpt lat="47.4862" lon="-0.37327">
        <ele>30.9</ele>
        <time>2015-03-22T10:05:42Z</time>
      </trkpt>
      <trkpt lat="47.48614" lon="-0.37326">
        <ele>31.38</ele>
        <time>2015-03-22T10:05:43Z</time>
      </trkpt>
      <trkpt lat="47.48608" lon="-0.37327">
        <ele>31.38</ele>
        <time>2015-03-22T10:05:44Z</time>
      </trkpt>
      <trkpt lat="47.48589" lon="-0.37327">
        <ele>31.38</ele>
        <time>2015-03-22T10:05:47Z</time>
      </trkpt>
      <trkpt lat="47.48583" lon="-0.37326">
        <ele>30.9</ele>
        <time>2015-03-22T10:05:48Z</time>
      </trkpt>
      <trkpt lat="47.48577" lon="-0.37323">
        <ele>31.38</ele>
        <time>2015-03-22T10:05:49Z</time>
      </trkpt>
      <trkpt lat="47.48572" lon="-0.37318">
        <ele>31.86</ele>
        <time>2015-03-22T10:05:50Z</time>
      </trkpt>
      <trkpt lat="47.48568" lon="-0.37312">
        <ele>31.38</ele>
        <time>2015-03-22T10:05:51Z</time>
      </trkpt>
      <trkpt lat="47.48564" lon="-0.37306">
        <ele>31.38</ele>
        <time>2015-03-22T10:05:52Z</time>
      </trkpt>
      <trkpt lat="47.4856" lon="-0.373">
        <ele>31.38</ele>
        <time>2015-03-22T10:05:53Z</time>
      </trkpt>
      <trkpt lat="47.48557" lon="-0.37292">
        <ele>31.38</ele>
        <time>2015-03-22T10:05:54Z</time>
      </trkpt>
      <trkpt lat="47.48554" lon="-0.37285">
        <ele>31.86</ele>
        <time>2015-03-22T10:05:55Z</time>
      </trkpt>
      <trkpt lat="47.4854" lon="-0.37258">
        <ele>31.86</ele>
        <time>2015-03-22T10:05:59Z</time>
      </trkpt>
      <trkpt lat="47.48536" lon="-0.37252">
        <ele>31.86</ele>
        <time>2015-03-22T10:06:00Z</time>
      </trkpt>
      <trkpt lat="47.4853" lon="-0.37248">
        <ele>31.38</ele>
        <time>2015-03-22T10:06:01Z</time>
      </trkpt>
      <trkpt lat="47.48525" lon="-0.37246">
        <ele>31.38</ele>
        <time>2015-03-22T10:06:02Z</time>
      </trkpt>
      <trkpt lat="47.48519" lon="-0.37244">
        <ele>30.9</ele>
        <time>2015-03-22T10:06:03Z</time>
      </trkpt>
      <trkpt lat="47.48513" lon="-0.37244">
        <ele>30.9</ele>
        <time>2015-03-22T10:06:04Z</time>
      </trkpt>
      <trkpt lat="47.48424" lon="-0.37229">
        <ele>31.38</ele>
        <time>2015-03-22T10:06:18Z</time>
      </trkpt>
      <trkpt lat="47.48329" lon="-0.37189">
        <ele>31.38</ele>
        <time>2015-03-22T10:06:34Z</time>
      </trkpt>
      <trkpt lat="47.48318" lon="-0.37183">
        <ele>30.9</ele>
        <time>2015-03-22T10:06:36Z</time>
      </trkpt>
      <trkpt lat="47.48316" lon="-0.37178">
        <ele>30.9</ele>
        <time>2015-03-22T10:06:37Z</time>
      </trkpt>
      <trkpt lat="47.48316" lon="-0.37172">
        <ele>30.9</ele>
        <time>2015-03-22T10:06:38Z</time>
      </trkpt>
      <trkpt lat="47.48318" lon="-0.37166">
        <ele>30.9</ele>
        <time>2015-03-22T10:06:39Z</time>
      </trkpt>
      <trkpt lat="47.48321" lon="-0.37162">
        <ele>30.9</ele>
        <time>2015-03-22T10:06:40Z</time>
      </trkpt>
      <trkpt lat="47.48325" lon="-0.37158">
        <ele>30.9</ele>
        <time>2015-03-22T10:06:41Z</time>
      </trkpt>
      <trkpt lat="47.4833" lon="-0.37154">
        <ele>31.38</ele>
        <time>2015-03-22T10:06:42Z</time>
      </trkpt>
      <trkpt lat="47.4834" lon="-0.37146">
        <ele>30.9</ele>
        <time>2015-03-22T10:06:44Z</time>
      </trkpt>
      <trkpt lat="47.48424" lon="-0.37097">
        <ele>32.34</ele>
        <time>2015-03-22T10:07:00Z</time>
      </trkpt>
      <trkpt lat="47.48428" lon="-0.37092">
        <ele>32.34</ele>
        <time>2015-03-22T10:07:01Z</time>
      </trkpt>
      <trkpt lat="47.48432" lon="-0.37087">
        <ele>32.34</ele>
        <time>2015-03-22T10:07:02Z</time>
      </trkpt>
      <trkpt lat="47.48468" lon="-0.37024">
        <ele>32.82</ele>
        <time>2015-03-22T10:07:13Z</time>
      </trkpt>
      <trkpt lat="47.4847" lon="-0.37017">
        <ele>32.82</ele>
        <time>2015-03-22T10:07:14Z</time>
      </trkpt>
      <trkpt lat="47.48471" lon="-0.3701">
        <ele>32.82</ele>
        <time>2015-03-22T10:07:15Z</time>
      </trkpt>
      <trkpt lat="47.48471" lon="-0.37003">
        <ele>32.82</ele>
        <time>2015-03-22T10:07:16Z</time>
      </trkpt>
      <trkpt lat="47.4847" lon="-0.36996">
        <ele>32.34</ele>
        <time>2015-03-22T10:07:17Z</time>
      </trkpt>
      <trkpt lat="47.48469" lon="-0.3699">
        <ele>32.34</ele>
        <time>2015-03-22T10:07:18Z</time>
      </trkpt>
      <trkpt lat="47.48468" lon="-0.36983">
        <ele>32.34</ele>
        <time>2015-03-22T10:07:19Z</time>
      </trkpt>
      <trkpt lat="47.48468" lon="-0.36976">
        <ele>32.34</ele>
        <time>2015-03-22T10:07:20Z</time>
      </trkpt>
      <trkpt lat="47.48468" lon="-0.36968">
        <ele>32.34</ele>
        <time>2015-03-22T10:07:21Z</time>
      </trkpt>
      <trkpt lat="47.4847" lon="-0.36961">
        <ele>32.34</ele>
        <time>2015-03-22T10:07:22Z</time>
      </trkpt>
      <trkpt lat="47.48472" lon="-0.36954">
        <ele>32.82</ele>
        <time>2015-03-22T10:07:23Z</time>
      </trkpt>
      <trkpt lat="47.48475" lon="-0.36948">
        <ele>32.82</ele>
        <time>2015-03-22T10:07:24Z</time>
      </trkpt>
      <trkpt lat="47.48479" lon="-0.36942">
        <ele>32.82</ele>
        <time>2015-03-22T10:07:25Z</time>
      </trkpt>
      <trkpt lat="47.48483" lon="-0.36937">
        <ele>32.34</ele>
        <time>2015-03-22T10:07:26Z</time>
      </trkpt>
      <trkpt lat="47.48487" lon="-0.36932">
        <ele>32.82</ele>
        <time>2015-03-22T10:07:27Z</time>
      </trkpt>
      <trkpt lat="47.48492" lon="-0.36929">
        <ele>33.78</ele>
        <time>2015-03-22T10:07:28Z</time>
      </trkpt>
      <trkpt lat="47.48497" lon="-0.36925">
        <ele>33.3</ele>
        <time>2015-03-22T10:07:29Z</time>
      </trkpt>
      <trkpt lat="47.48574" lon="-0.36883">
        <ele>33.3</ele>
        <time>2015-03-22T10:07:45Z</time>
      </trkpt>
      <trkpt lat="47.48588" lon="-0.36877">
        <ele>33.78</ele>
        <time>2015-03-22T10:07:48Z</time>
      </trkpt>
      <trkpt lat="47.48661" lon="-0.36845">
        <ele>35.23</ele>
        <time>2015-03-22T10:08:05Z</time>
      </trkpt>
      <trkpt lat="47.48741" lon="-0.36824">
        <ele>36.19</ele>
        <time>2015-03-22T10:08:23Z</time>
      </trkpt>
      <trkpt lat="47.48795" lon="-0.368">
        <ele>36.19</ele>
        <time>2015-03-22T10:08:36Z</time>
      </trkpt>
      <trkpt lat="47.48797" lon="-0.36795">
        <ele>36.19</ele>
        <time>2015-03-22T10:08:37Z</time>
      </trkpt>
      <trkpt lat="47.48798" lon="-0.36789">
        <ele>35.71</ele>
        <time>2015-03-22T10:08:38Z</time>
      </trkpt>
      <trkpt lat="47.48798" lon="-0.36782">
        <ele>35.71</ele>
        <time>2015-03-22T10:08:39Z</time>
      </trkpt>
      <trkpt lat="47.48797" lon="-0.36776">
        <ele>35.71</ele>
        <time>2015-03-22T10:08:40Z</time>
      </trkpt>
      <trkpt lat="47.48796" lon="-0.36769">
        <ele>35.23</ele>
        <time>2015-03-22T10:08:41Z</time>
      </trkpt>
      <trkpt lat="47.48795" lon="-0.36762">
        <ele>35.71</ele>
        <time>2015-03-22T10:08:42Z</time>
      </trkpt>
      <trkpt lat="47.48787" lon="-0.36636">
        <ele>36.19</ele>
        <time>2015-03-22T10:09:00Z</time>
      </trkpt>
      <trkpt lat="47.48788" lon="-0.36554">
        <ele>36.67</ele>
        <time>2015-03-22T10:09:12Z</time>
      </trkpt>
      <trkpt lat="47.48786" lon="-0.36547">
        <ele>36.67</ele>
        <time>2015-03-22T10:09:13Z</time>
      </trkpt>
      <trkpt lat="47.48784" lon="-0.36542">
        <ele>36.67</ele>
        <time>2015-03-22T10:09:14Z</time>
      </trkpt>
      <trkpt lat="47.4878" lon="-0.36538">
        <ele>36.67</ele>
        <time>2015-03-22T10:09:15Z</time>
      </trkpt>
      <trkpt lat="47.48776" lon="-0.36537">
        <ele>37.15</ele>
        <time>2015-03-22T10:09:16Z</time>
      </trkpt>
      <trkpt lat="47.48771" lon="-0.36537">
        <ele>37.15</ele>
        <time>2015-03-22T10:09:17Z</time>
      </trkpt>
      <trkpt lat="47.48766" lon="-0.36537">
        <ele>36.67</ele>
        <time>2015-03-22T10:09:18Z</time>
      </trkpt>
      <trkpt lat="47.48761" lon="-0.36537">
        <ele>36.67</ele>
        <time>2015-03-22T10:09:19Z</time>
      </trkpt>
      <trkpt lat="47.4869" lon="-0.36545">
        <ele>37.15</ele>
        <time>2015-03-22T10:09:32Z</time>
      </trkpt>
      <trkpt lat="47.48685" lon="-0.36542">
        <ele>36.67</ele>
        <time>2015-03-22T10:09:33Z</time>
      </trkpt>
      <trkpt lat="47.48681" lon="-0.36537">
        <ele>37.15</ele>
        <time>2015-03-22T10:09:34Z</time>
      </trkpt>
      <trkpt lat="47.48678" lon="-0.36531">
        <ele>37.15</ele>
        <time>2015-03-22T10:09:35Z</time>
      </trkpt>
      <trkpt lat="47.48676" lon="-0.36524">
        <ele>37.63</ele>
        <time>2015-03-22T10:09:36Z</time>
      </trkpt>
      <trkpt lat="47.48675" lon="-0.36516">
        <ele>37.15</ele>
        <time>2015-03-22T10:09:37Z</time>
      </trkpt>
      <trkpt lat="47.48674" lon="-0.36508">
        <ele>37.63</ele>
        <time>2015-03-22T10:09:38Z</time>
      </trkpt>
      <trkpt lat="47.48665" lon="-0.36392">
        <ele>40.51</ele>
        <time>2015-03-22T10:09:54Z</time>
      </trkpt>
      <trkpt lat="47.48665" lon="-0.36268">
        <ele>42.44</ele>
        <time>2015-03-22T10:10:11Z</time>
      </trkpt>
      <trkpt lat="47.48661" lon="-0.36207">
        <ele>43.4</ele>
        <time>2015-03-22T10:10:20Z</time>
      </trkpt>
      <trkpt lat="47.48658" lon="-0.36102">
        <ele>43.88</ele>
        <time>2015-03-22T10:10:37Z</time>
      </trkpt>
      <trkpt lat="47.48657" lon="-0.36097">
        <ele>43.88</ele>
        <time>2015-03-22T10:10:38Z</time>
      </trkpt>
      <trkpt lat="47.48654" lon="-0.36094">
        <ele>43.4</ele>
        <time>2015-03-22T10:10:39Z</time>
      </trkpt>
      <trkpt lat="47.4865" lon="-0.36093">
        <ele>44.36</ele>
        <time>2015-03-22T10:10:40Z</time>
      </trkpt>
      <trkpt lat="47.48646" lon="-0.36093">
        <ele>44.36</ele>
        <time>2015-03-22T10:10:41Z</time>
      </trkpt>
      <trkpt lat="47.48642" lon="-0.36093">
        <ele>43.88</ele>
        <time>2015-03-22T10:10:42Z</time>
      </trkpt>
      <trkpt lat="47.48638" lon="-0.36092">
        <ele>43.88</ele>
        <time>2015-03-22T10:10:43Z</time>
      </trkpt>
      <trkpt lat="47.48634" lon="-0.3609">
        <ele>43.88</ele>
        <time>2015-03-22T10:10:44Z</time>
      </trkpt>
      <trkpt lat="47.48555" lon="-0.36057">
        <ele>43.88</ele>
        <time>2015-03-22T10:11:00Z</time>
      </trkpt>
      <trkpt lat="47.4855" lon="-0.36055">
        <ele>43.88</ele>
        <time>2015-03-22T10:11:01Z</time>
      </trkpt>
      <trkpt lat="47.48469" lon="-0.36008">
        <ele>43.4</ele>
        <time>2015-03-22T10:11:17Z</time>
      </trkpt>
      <trkpt lat="47.48393" lon="-0.35961">
        <ele>42.92</ele>
        <time>2015-03-22T10:11:33Z</time>
      </trkpt>
      <trkpt lat="47.48363" lon="-0.35945">
        <ele>42.44</ele>
        <time>2015-03-22T10:11:39Z</time>
      </trkpt>
      <trkpt lat="47.48357" lon="-0.35945">
        <ele>42.92</ele>
        <time>2015-03-22T10:11:40Z</time>
      </trkpt>
      <trkpt lat="47.48352" lon="-0.35946">
        <ele>42.92</ele>
        <time>2015-03-22T10:11:41Z</time>
      </trkpt>
      <trkpt lat="47.48259" lon="-0.35991">
        <ele>41.47</ele>
        <time>2015-03-22T10:11:58Z</time>
      </trkpt>
      <trkpt lat="47.48176" lon="-0.3601">
        <ele>42.44</ele>
        <time>2015-03-22T10:12:13Z</time>
      </trkpt>
      <trkpt lat="47.48131" lon="-0.36008">
        <ele>42.44</ele>
        <time>2015-03-22T10:12:21Z</time>
      </trkpt>
      <trkpt lat="47.48125" lon="-0.36008">
        <ele>41.95</ele>
        <time>2015-03-22T10:12:22Z</time>
      </trkpt>
      <trkpt lat="47.48034" lon="-0.36001">
        <ele>40.03</ele>
        <time>2015-03-22T10:12:37Z</time>
      </trkpt>
      <trkpt lat="47.48" lon="-0.35994">
        <ele>37.63</ele>
        <time>2015-03-22T10:12:42Z</time>
      </trkpt>
      <trkpt lat="47.47921" lon="-0.35944">
        <ele>34.74</ele>
        <time>2015-03-22T10:12:54Z</time>
      </trkpt>
      <trkpt lat="47.47834" lon="-0.35878">
        <ele>31.38</ele>
        <time>2015-03-22T10:13:08Z</time>
      </trkpt>
      <trkpt lat="47.47773" lon="-0.35819">
        <ele>30.9</ele>
        <time>2015-03-22T10:13:19Z</time>
      </trkpt>
      <trkpt lat="47.47767" lon="-0.35816">
        <ele>30.9</ele>
        <time>2015-03-22T10:13:20Z</time>
      </trkpt>
      <trkpt lat="47.47682" lon="-0.35752">
        <ele>30.9</ele>
        <time>2015-03-22T10:13:35Z</time>
      </trkpt>
      <trkpt lat="47.47645" lon="-0.3569">
        <ele>30.42</ele>
        <time>2015-03-22T10:13:44Z</time>
      </trkpt>
      <trkpt lat="47.47616" lon="-0.35629">
        <ele>30.42</ele>
        <time>2015-03-22T10:13:53Z</time>
      </trkpt>
      <trkpt lat="47.47599" lon="-0.35597">
        <ele>29.94</ele>
        <time>2015-03-22T10:14:00Z</time>
      </trkpt>
      <trkpt lat="47.47595" lon="-0.35595">
        <ele>30.42</ele>
        <time>2015-03-22T10:14:01Z</time>
      </trkpt>
      <trkpt lat="47.47591" lon="-0.35593">
        <ele>30.42</ele>
        <time>2015-03-22T10:14:02Z</time>
      </trkpt>
      <trkpt lat="47.47583" lon="-0.35591">
        <ele>30.42</ele>
        <time>2015-03-22T10:14:04Z</time>
      </trkpt>
      <trkpt lat="47.47575" lon="-0.35587">
        <ele>30.9</ele>
        <time>2015-03-22T10:14:06Z</time>
      </trkpt>
      <trkpt lat="47.47534" lon="-0.3557">
        <ele>30.9</ele>
        <time>2015-03-22T10:14:15Z</time>
      </trkpt>
      <trkpt lat="47.4753" lon="-0.35571">
        <ele>31.38</ele>
        <time>2015-03-22T10:14:16Z</time>
      </trkpt>
      <trkpt lat="47.47526" lon="-0.35572">
        <ele>30.9</ele>
        <time>2015-03-22T10:14:17Z</time>
      </trkpt>
      <trkpt lat="47.47517" lon="-0.35575">
        <ele>31.86</ele>
        <time>2015-03-22T10:14:19Z</time>
      </trkpt>
      <trkpt lat="47.47512" lon="-0.35576">
        <ele>31.38</ele>
        <time>2015-03-22T10:14:20Z</time>
      </trkpt>
      <trkpt lat="47.47508" lon="-0.35576">
        <ele>31.86</ele>
        <time>2015-03-22T10:14:21Z</time>
      </trkpt>
      <trkpt lat="47.47503" lon="-0.35574">
        <ele>31.86</ele>
        <time>2015-03-22T10:14:22Z</time>
      </trkpt>
      <trkpt lat="47.47499" lon="-0.3557">
        <ele>31.86</ele>
        <time>2015-03-22T10:14:23Z</time>
      </trkpt>
      <trkpt lat="47.47495" lon="-0.35565">
        <ele>31.86</ele>
        <time>2015-03-22T10:14:24Z</time>
      </trkpt>
      <trkpt lat="47.47492" lon="-0.35559">
        <ele>31.86</ele>
        <time>2015-03-22T10:14:25Z</time>
      </trkpt>
      <trkpt lat="47.47489" lon="-0.35552">
        <ele>31.86</ele>
        <time>2015-03-22T10:14:26Z</time>
      </trkpt>
      <trkpt lat="47.47487" lon="-0.35544">
        <ele>31.86</ele>
        <time>2015-03-22T10:14:27Z</time>
      </trkpt>
      <trkpt lat="47.47485" lon="-0.35537">
        <ele>31.86</ele>
        <time>2015-03-22T10:14:28Z</time>
      </trkpt>
      <trkpt lat="47.47482" lon="-0.35529">
        <ele>31.86</ele>
        <time>2015-03-22T10:14:29Z</time>
      </trkpt>
      <trkpt lat="47.47478" lon="-0.35523">
        <ele>31.38</ele>
        <time>2015-03-22T10:14:30Z</time>
      </trkpt>
      <trkpt lat="47.47474" lon="-0.35517">
        <ele>31.86</ele>
        <time>2015-03-22T10:14:31Z</time>
      </trkpt>
      <trkpt lat="47.47469" lon="-0.35512">
        <ele>31.86</ele>
        <time>2015-03-22T10:14:32Z</time>
      </trkpt>
      <trkpt lat="47.47412" lon="-0.35475">
        <ele>33.3</ele>
        <time>2015-03-22T10:14:44Z</time>
      </trkpt>
      <trkpt lat="47.47407" lon="-0.35474">
        <ele>32.82</ele>
        <time>2015-03-22T10:14:45Z</time>
      </trkpt>
      <trkpt lat="47.47317" lon="-0.3547">
        <ele>32.34</ele>
        <time>2015-03-22T10:15:01Z</time>
      </trkpt>
      <trkpt lat="47.47215" lon="-0.35464">
        <ele>31.38</ele>
        <time>2015-03-22T10:15:19Z</time>
      </trkpt>
      <trkpt lat="47.47212" lon="-0.35466">
        <ele>31.38</ele>
        <time>2015-03-22T10:15:20Z</time>
      </trkpt>
      <trkpt lat="47.4721" lon="-0.35469">
        <ele>31.38</ele>
        <time>2015-03-22T10:15:21Z</time>
      </trkpt>
      <trkpt lat="47.4721" lon="-0.35474">
        <ele>31.38</ele>
        <time>2015-03-22T10:15:22Z</time>
      </trkpt>
      <trkpt lat="47.4721" lon="-0.35481">
        <ele>30.9</ele>
        <time>2015-03-22T10:15:23Z</time>
      </trkpt>
      <trkpt lat="47.47211" lon="-0.35487">
        <ele>30.9</ele>
        <time>2015-03-22T10:15:24Z</time>
      </trkpt>
      <trkpt lat="47.47212" lon="-0.35493">
        <ele>30.9</ele>
        <time>2015-03-22T10:15:25Z</time>
      </trkpt>
      <trkpt lat="47.47213" lon="-0.355">
        <ele>30.42</ele>
        <time>2015-03-22T10:15:26Z</time>
      </trkpt>
      <trkpt lat="47.47213" lon="-0.35506">
        <ele>30.42</ele>
        <time>2015-03-22T10:15:27Z</time>
      </trkpt>
      <trkpt lat="47.47211" lon="-0.35512">
        <ele>30.42</ele>
        <time>2015-03-22T10:15:28Z</time>
      </trkpt>
      <trkpt lat="47.47207" lon="-0.35515">
        <ele>30.42</ele>
        <time>2015-03-22T10:15:29Z</time>
      </trkpt>
      <trkpt lat="47.47202" lon="-0.35518">
        <ele>29.94</ele>
        <time>2015-03-22T10:15:30Z</time>
      </trkpt>
      <trkpt lat="47.47198" lon="-0.35521">
        <ele>30.42</ele>
        <time>2015-03-22T10:15:31Z</time>
      </trkpt>
      <trkpt lat="47.47125" lon="-0.35555">
        <ele>28.98</ele>
        <time>2015-03-22T10:15:44Z</time>
      </trkpt>
      <trkpt lat="47.47108" lon="-0.3556">
        <ele>28.98</ele>
        <time>2015-03-22T10:15:47Z</time>
      </trkpt>
      <trkpt lat="47.47103" lon="-0.35564">
        <ele>28.5</ele>
        <time>2015-03-22T10:15:48Z</time>
      </trkpt>
      <trkpt lat="47.471" lon="-0.35571">
        <ele>28.98</ele>
        <time>2015-03-22T10:15:49Z</time>
      </trkpt>
      <trkpt lat="47.47099" lon="-0.35578">
        <ele>29.46</ele>
        <time>2015-03-22T10:15:50Z</time>
      </trkpt>
      <trkpt lat="47.47098" lon="-0.35586">
        <ele>29.46</ele>
        <time>2015-03-22T10:15:51Z</time>
      </trkpt>
      <trkpt lat="47.47099" lon="-0.35594">
        <ele>29.46</ele>
        <time>2015-03-22T10:15:52Z</time>
      </trkpt>
      <trkpt lat="47.471" lon="-0.35601">
        <ele>29.94</ele>
        <time>2015-03-22T10:15:53Z</time>
      </trkpt>
      <trkpt lat="47.47126" lon="-0.35749">
        <ele>29.46</ele>
        <time>2015-03-22T10:16:10Z</time>
      </trkpt>
      <trkpt lat="47.47139" lon="-0.35837">
        <ele>29.94</ele>
        <time>2015-03-22T10:16:19Z</time>
      </trkpt>
      <trkpt lat="47.47139" lon="-0.35848">
        <ele>29.94</ele>
        <time>2015-03-22T10:16:20Z</time>
      </trkpt>
      <trkpt lat="47.47138" lon="-0.35858">
        <ele>30.42</ele>
        <time>2015-03-22T10:16:21Z</time>
      </trkpt>
      <trkpt lat="47.47104" lon="-0.3603">
        <ele>28.02</ele>
        <time>2015-03-22T10:16:38Z</time>
      </trkpt>
      <trkpt lat="47.47084" lon="-0.36131">
        <ele>28.02</ele>
        <time>2015-03-22T10:16:48Z</time>
      </trkpt>
      <trkpt lat="47.47081" lon="-0.3614">
        <ele>28.02</ele>
        <time>2015-03-22T10:16:49Z</time>
      </trkpt>
      <trkpt lat="47.47073" lon="-0.36158">
        <ele>28.02</ele>
        <time>2015-03-22T10:16:51Z</time>
      </trkpt>
      <trkpt lat="47.47069" lon="-0.36168">
        <ele>28.02</ele>
        <time>2015-03-22T10:16:52Z</time>
      </trkpt>
      <trkpt lat="47.47067" lon="-0.36179">
        <ele>27.53</ele>
        <time>2015-03-22T10:16:53Z</time>
      </trkpt>
      <trkpt lat="47.47041" lon="-0.36303">
        <ele>26.57</ele>
        <time>2015-03-22T10:17:06Z</time>
      </trkpt>
      <trkpt lat="47.47037" lon="-0.36306">
        <ele>26.57</ele>
        <time>2015-03-22T10:17:07Z</time>
      </trkpt>
      <trkpt lat="47.47033" lon="-0.36307">
        <ele>26.09</ele>
        <time>2015-03-22T10:17:08Z</time>
      </trkpt>
      <trkpt lat="47.47029" lon="-0.36307">
        <ele>26.57</ele>
        <time>2015-03-22T10:17:09Z</time>
      </trkpt>
      <trkpt lat="47.47024" lon="-0.36306">
        <ele>26.57</ele>
        <time>2015-03-22T10:17:10Z</time>
      </trkpt>
      <trkpt lat="47.47019" lon="-0.36304">
        <ele>26.09</ele>
        <time>2015-03-22T10:17:11Z</time>
      </trkpt>
      <trkpt lat="47.46935" lon="-0.36278">
        <ele>27.05</ele>
        <time>2015-03-22T10:17:25Z</time>
      </trkpt>
      <trkpt lat="47.46826" lon="-0.3625">
        <ele>27.05</ele>
        <time>2015-03-22T10:17:41Z</time>
      </trkpt>
      <trkpt lat="47.46795" lon="-0.36231">
        <ele>27.05</ele>
        <time>2015-03-22T10:17:46Z</time>
      </trkpt>
      <trkpt lat="47.4675" lon="-0.36182">
        <ele>27.53</ele>
        <time>2015-03-22T10:17:54Z</time>
      </trkpt>
      <trkpt lat="47.46746" lon="-0.36175">
        <ele>27.53</ele>
        <time>2015-03-22T10:17:55Z</time>
      </trkpt>
      <trkpt lat="47.46742" lon="-0.36167">
        <ele>27.53</ele>
        <time>2015-03-22T10:17:56Z</time>
      </trkpt>
      <trkpt lat="47.46739" lon="-0.36158">
        <ele>27.53</ele>
        <time>2015-03-22T10:17:57Z</time>
      </trkpt>
      <trkpt lat="47.46736" lon="-0.36149">
        <ele>28.02</ele>
        <time>2015-03-22T10:17:58Z</time>
      </trkpt>
      <trkpt lat="47.46734" lon="-0.3614">
        <ele>27.53</ele>
        <time>2015-03-22T10:17:59Z</time>
      </trkpt>
      <trkpt lat="47.46732" lon="-0.36131">
        <ele>27.53</ele>
        <time>2015-03-22T10:18:00Z</time>
      </trkpt>
      <trkpt lat="47.46718" lon="-0.36021">
        <ele>27.53</ele>
        <time>2015-03-22T10:18:12Z</time>
      </trkpt>
      <trkpt lat="47.46717" lon="-0.36013">
        <ele>27.53</ele>
        <time>2015-03-22T10:18:13Z</time>
      </trkpt>
      <trkpt lat="47.46714" lon="-0.36006">
        <ele>27.53</ele>
        <time>2015-03-22T10:18:14Z</time>
      </trkpt>
      <trkpt lat="47.46709" lon="-0.36002">
        <ele>27.05</ele>
        <time>2015-03-22T10:18:15Z</time>
      </trkpt>
      <trkpt lat="47.46703" lon="-0.36001">
        <ele>26.57</ele>
        <time>2015-03-22T10:18:16Z</time>
      </trkpt>
      <trkpt lat="47.46697" lon="-0.36001">
        <ele>26.57</ele>
        <time>2015-03-22T10:18:17Z</time>
      </trkpt>
      <trkpt lat="47.46597" lon="-0.35996">
        <ele>27.05</ele>
        <time>2015-03-22T10:18:31Z</time>
      </trkpt>
      <trkpt lat="47.46488" lon="-0.35992">
        <ele>26.57</ele>
        <time>2015-03-22T10:18:47Z</time>
      </trkpt>
      <trkpt lat="47.4645" lon="-0.35997">
        <ele>26.57</ele>
        <time>2015-03-22T10:18:57Z</time>
      </trkpt>
      <trkpt lat="47.46452" lon="-0.35996">
        <ele>26.09</ele>
        <time>2015-03-22T10:19:07Z</time>
      </trkpt>
      <trkpt lat="47.46454" lon="-0.35994">
        <ele>26.57</ele>
        <time>2015-03-22T10:19:17Z</time>
      </trkpt>
      <trkpt lat="47.46452" lon="-0.35991">
        <ele>26.57</ele>
        <time>2015-03-22T10:19:48Z</time>
      </trkpt>
      <trkpt lat="47.46454" lon="-0.35991">
        <ele>26.57</ele>
        <time>2015-03-22T10:20:24Z</time>
      </trkpt>
      <trkpt lat="47.46455" lon="-0.35994">
        <ele>26.57</ele>
        <time>2015-03-22T10:21:04Z</time>
      </trkpt>
      <trkpt lat="47.46454" lon="-0.35993">
        <ele>26.09</ele>
        <time>2015-03-22T10:21:31Z</time>
      </trkpt>
      <trkpt lat="47.46453" lon="-0.35996">
        <ele>26.57</ele>
        <time>2015-03-22T10:22:02Z</time>
      </trkpt>
      <trkpt lat="47.46453" lon="-0.36">
        <ele>27.05</ele>
        <time>2015-03-22T10:22:06Z</time>
      </trkpt>
      <trkpt lat="47.46453" lon="-0.36002">
        <ele>26.57</ele>
        <time>2015-03-22T10:22:07Z</time>
      </trkpt>
      <trkpt lat="47.46453" lon="-0.36005">
        <ele>26.57</ele>
        <time>2015-03-22T10:22:08Z</time>
      </trkpt>
      <trkpt lat="47.46452" lon="-0.36009">
        <ele>26.09</ele>
        <time>2015-03-22T10:22:09Z</time>
      </trkpt>
      <trkpt lat="47.46452" lon="-0.36013">
        <ele>26.09</ele>
        <time>2015-03-22T10:22:10Z</time>
      </trkpt>
      <trkpt lat="47.46452" lon="-0.36019">
        <ele>26.57</ele>
        <time>2015-03-22T10:22:11Z</time>
      </trkpt>
      <trkpt lat="47.46446" lon="-0.36066">
        <ele>26.09</ele>
        <time>2015-03-22T10:22:18Z</time>
      </trkpt>
      <trkpt lat="47.46444" lon="-0.36073">
        <ele>26.09</ele>
        <time>2015-03-22T10:22:19Z</time>
      </trkpt>
      <trkpt lat="47.4644" lon="-0.36077">
        <ele>26.57</ele>
        <time>2015-03-22T10:22:20Z</time>
      </trkpt>
      <trkpt lat="47.46435" lon="-0.36078">
        <ele>26.57</ele>
        <time>2015-03-22T10:22:21Z</time>
      </trkpt>
      <trkpt lat="47.4643" lon="-0.36078">
        <ele>26.57</ele>
        <time>2015-03-22T10:22:22Z</time>
      </trkpt>
      <trkpt lat="47.46425" lon="-0.36077">
        <ele>26.09</ele>
        <time>2015-03-22T10:22:23Z</time>
      </trkpt>
      <trkpt lat="47.46414" lon="-0.36076">
        <ele>26.09</ele>
        <time>2015-03-22T10:22:25Z</time>
      </trkpt>
      <trkpt lat="47.46409" lon="-0.36077">
        <ele>26.09</ele>
        <time>2015-03-22T10:22:26Z</time>
      </trkpt>
      <trkpt lat="47.46404" lon="-0.3608">
        <ele>26.57</ele>
        <time>2015-03-22T10:22:27Z</time>
      </trkpt>
      <trkpt lat="47.46399" lon="-0.36084">
        <ele>26.57</ele>
        <time>2015-03-22T10:22:28Z</time>
      </trkpt>
      <trkpt lat="47.46394" lon="-0.36089">
        <ele>26.09</ele>
        <time>2015-03-22T10:22:29Z</time>
      </trkpt>
      <trkpt lat="47.46389" lon="-0.36094">
        <ele>25.61</ele>
        <time>2015-03-22T10:22:30Z</time>
      </trkpt>
      <trkpt lat="47.46382" lon="-0.36103">
        <ele>25.61</ele>
        <time>2015-03-22T10:22:32Z</time>
      </trkpt>
      <trkpt lat="47.46379" lon="-0.36109">
        <ele>26.09</ele>
        <time>2015-03-22T10:22:33Z</time>
      </trkpt>
      <trkpt lat="47.46377" lon="-0.36115">
        <ele>26.09</ele>
        <time>2015-03-22T10:22:34Z</time>
      </trkpt>
      <trkpt lat="47.46376" lon="-0.3612">
        <ele>25.61</ele>
        <time>2015-03-22T10:22:35Z</time>
      </trkpt>
      <trkpt lat="47.46376" lon="-0.36125">
        <ele>25.61</ele>
        <time>2015-03-22T10:22:36Z</time>
      </trkpt>
      <trkpt lat="47.46376" lon="-0.36128">
        <ele>25.61</ele>
        <time>2015-03-22T10:22:37Z</time>
      </trkpt>
      <trkpt lat="47.46378" lon="-0.36129">
        <ele>25.61</ele>
        <time>2015-03-22T10:22:50Z</time>
      </trkpt>
      <trkpt lat="47.46377" lon="-0.36128">
        <ele>24.65</ele>
        <time>2015-03-22T10:23:06Z</time>
      </trkpt>
      <trkpt lat="47.46377" lon="-0.36125">
        <ele>25.13</ele>
        <time>2015-03-22T10:23:48Z</time>
      </trkpt>
      <trkpt lat="47.46375" lon="-0.36125">
        <ele>25.13</ele>
        <time>2015-03-22T10:24:25Z</time>
      </trkpt>
      <trkpt lat="47.46375" lon="-0.36126">
        <ele>25.13</ele>
        <time>2015-03-22T10:25:07Z</time>
      </trkpt>
      <trkpt lat="47.46375" lon="-0.36125">
        <ele>25.61</ele>
        <time>2015-03-22T10:25:47Z</time>
      </trkpt>
      <trkpt lat="47.46376" lon="-0.36125">
        <ele>26.09</ele>
        <time>2015-03-22T10:26:20Z</time>
      </trkpt>
      <trkpt lat="47.46377" lon="-0.36127">
        <ele>27.05</ele>
        <time>2015-03-22T10:26:39Z</time>
      </trkpt>
      <trkpt lat="47.46378" lon="-0.36129">
        <ele>26.09</ele>
        <time>2015-03-22T10:26:59Z</time>
      </trkpt>
      <trkpt lat="47.46381" lon="-0.36135">
        <ele>26.09</ele>
        <time>2015-03-22T10:27:28Z</time>
      </trkpt>
      <trkpt lat="47.46383" lon="-0.36142">
        <ele>26.09</ele>
        <time>2015-03-22T10:27:33Z</time>
      </trkpt>
      <trkpt lat="47.46384" lon="-0.36144">
        <ele>26.09</ele>
        <time>2015-03-22T10:27:34Z</time>
      </trkpt>
      <trkpt lat="47.46399" lon="-0.36195">
        <ele>26.57</ele>
        <time>2015-03-22T10:27:45Z</time>
      </trkpt>
      <trkpt lat="47.46399" lon="-0.36198">
        <ele>26.09</ele>
        <time>2015-03-22T10:27:46Z</time>
      </trkpt>
      <trkpt lat="47.46399" lon="-0.36195">
        <ele>27.05</ele>
        <time>2015-03-22T10:27:50Z</time>
      </trkpt>
      <trkpt lat="47.46399" lon="-0.36193">
        <ele>26.57</ele>
        <time>2015-03-22T10:27:51Z</time>
      </trkpt>
      <trkpt lat="47.46398" lon="-0.3619">
        <ele>26.57</ele>
        <time>2015-03-22T10:27:52Z</time>
      </trkpt>
      <trkpt lat="47.46382" lon="-0.36137">
        <ele>26.57</ele>
        <time>2015-03-22T10:28:02Z</time>
      </trkpt>
      <trkpt lat="47.46378" lon="-0.36128">
        <ele>26.57</ele>
        <time>2015-03-22T10:28:09Z</time>
      </trkpt>
      <trkpt lat="47.46381" lon="-0.36133">
        <ele>26.57</ele>
        <time>2015-03-22T10:28:17Z</time>
      </trkpt>
      <trkpt lat="47.46381" lon="-0.36136">
        <ele>26.09</ele>
        <time>2015-03-22T10:28:18Z</time>
      </trkpt>
      <trkpt lat="47.46382" lon="-0.36139">
        <ele>26.57</ele>
        <time>2015-03-22T10:28:19Z</time>
      </trkpt>
      <trkpt lat="47.46383" lon="-0.36142">
        <ele>26.57</ele>
        <time>2015-03-22T10:28:20Z</time>
      </trkpt>
      <trkpt lat="47.46384" lon="-0.36145">
        <ele>26.57</ele>
        <time>2015-03-22T10:28:21Z</time>
      </trkpt>
      <trkpt lat="47.46385" lon="-0.36149">
        <ele>26.09</ele>
        <time>2015-03-22T10:28:22Z</time>
      </trkpt>
      <trkpt lat="47.46407" lon="-0.36227">
        <ele>26.57</ele>
        <time>2015-03-22T10:28:37Z</time>
      </trkpt>
      <trkpt lat="47.46414" lon="-0.36255">
        <ele>26.57</ele>
        <time>2015-03-22T10:28:41Z</time>
      </trkpt>
      <trkpt lat="47.46433" lon="-0.36385">
        <ele>27.05</ele>
        <time>2015-03-22T10:28:57Z</time>
      </trkpt>
      <trkpt lat="47.46435" lon="-0.36409">
        <ele>26.57</ele>
        <time>2015-03-22T10:29:00Z</time>
      </trkpt>
      <trkpt lat="47.46437" lon="-0.36416">
        <ele>27.05</ele>
        <time>2015-03-22T10:29:01Z</time>
      </trkpt>
      <trkpt lat="47.46437" lon="-0.36423">
        <ele>27.05</ele>
        <time>2015-03-22T10:29:02Z</time>
      </trkpt>
      <trkpt lat="47.46436" lon="-0.3643">
        <ele>27.05</ele>
        <time>2015-03-22T10:29:03Z</time>
      </trkpt>
      <trkpt lat="47.46434" lon="-0.36437">
        <ele>27.05</ele>
        <time>2015-03-22T10:29:04Z</time>
      </trkpt>
      <trkpt lat="47.46431" lon="-0.36443">
        <ele>27.05</ele>
        <time>2015-03-22T10:29:05Z</time>
      </trkpt>
      <trkpt lat="47.46427" lon="-0.36449">
        <ele>27.05</ele>
        <time>2015-03-22T10:29:06Z</time>
      </trkpt>
      <trkpt lat="47.46422" lon="-0.36453">
        <ele>27.05</ele>
        <time>2015-03-22T10:29:07Z</time>
      </trkpt>
      <trkpt lat="47.46418" lon="-0.36457">
        <ele>27.53</ele>
        <time>2015-03-22T10:29:08Z</time>
      </trkpt>
      <trkpt lat="47.46412" lon="-0.36459">
        <ele>27.05</ele>
        <time>2015-03-22T10:29:09Z</time>
      </trkpt>
      <trkpt lat="47.46406" lon="-0.3646">
        <ele>27.05</ele>
        <time>2015-03-22T10:29:10Z</time>
      </trkpt>
      <trkpt lat="47.46395" lon="-0.36463">
        <ele>27.53</ele>
        <time>2015-03-22T10:29:12Z</time>
      </trkpt>
      <trkpt lat="47.46374" lon="-0.36474">
        <ele>27.53</ele>
        <time>2015-03-22T10:29:16Z</time>
      </trkpt>
      <trkpt lat="47.46369" lon="-0.36478">
        <ele>27.53</ele>
        <time>2015-03-22T10:29:17Z</time>
      </trkpt>
      <trkpt lat="47.46365" lon="-0.36483">
        <ele>27.53</ele>
        <time>2015-03-22T10:29:18Z</time>
      </trkpt>
      <trkpt lat="47.46361" lon="-0.36489">
        <ele>27.53</ele>
        <time>2015-03-22T10:29:19Z</time>
      </trkpt>
      <trkpt lat="47.46358" lon="-0.36497">
        <ele>27.05</ele>
        <time>2015-03-22T10:29:20Z</time>
      </trkpt>
      <trkpt lat="47.46356" lon="-0.36504">
        <ele>27.53</ele>
        <time>2015-03-22T10:29:21Z</time>
      </trkpt>
      <trkpt lat="47.46354" lon="-0.36512">
        <ele>27.05</ele>
        <time>2015-03-22T10:29:22Z</time>
      </trkpt>
      <trkpt lat="47.46354" lon="-0.3652">
        <ele>27.05</ele>
        <time>2015-03-22T10:29:23Z</time>
      </trkpt>
      <trkpt lat="47.46357" lon="-0.36661">
        <ele>26.57</ele>
        <time>2015-03-22T10:29:40Z</time>
      </trkpt>
      <trkpt lat="47.46369" lon="-0.36808">
        <ele>26.57</ele>
        <time>2015-03-22T10:29:56Z</time>
      </trkpt>
      <trkpt lat="47.46374" lon="-0.36901">
        <ele>26.57</ele>
        <time>2015-03-22T10:30:06Z</time>
      </trkpt>
      <trkpt lat="47.46353" lon="-0.37049">
        <ele>26.57</ele>
        <time>2015-03-22T10:30:22Z</time>
      </trkpt>
      <trkpt lat="47.46347" lon="-0.37085">
        <ele>26.09</ele>
        <time>2015-03-22T10:30:26Z</time>
      </trkpt>
      <trkpt lat="47.46346" lon="-0.37094">
        <ele>26.09</ele>
        <time>2015-03-22T10:30:27Z</time>
      </trkpt>
      <trkpt lat="47.46344" lon="-0.37137">
        <ele>26.09</ele>
        <time>2015-03-22T10:30:32Z</time>
      </trkpt>
      <trkpt lat="47.46342" lon="-0.37144">
        <ele>26.09</ele>
        <time>2015-03-22T10:30:33Z</time>
      </trkpt>
      <trkpt lat="47.46339" lon="-0.37148">
        <ele>26.09</ele>
        <time>2015-03-22T10:30:34Z</time>
      </trkpt>
      <trkpt lat="47.46335" lon="-0.3715">
        <ele>26.09</ele>
        <time>2015-03-22T10:30:35Z</time>
      </trkpt>
      <trkpt lat="47.46331" lon="-0.37154">
        <ele>26.57</ele>
        <time>2015-03-22T10:30:36Z</time>
      </trkpt>
      <trkpt lat="47.46327" lon="-0.37158">
        <ele>26.57</ele>
        <time>2015-03-22T10:30:37Z</time>
      </trkpt>
      <trkpt lat="47.46323" lon="-0.37164">
        <ele>26.09</ele>
        <time>2015-03-22T10:30:38Z</time>
      </trkpt>
      <trkpt lat="47.46319" lon="-0.3717">
        <ele>26.57</ele>
        <time>2015-03-22T10:30:39Z</time>
      </trkpt>
      <trkpt lat="47.46315" lon="-0.37176">
        <ele>27.05</ele>
        <time>2015-03-22T10:30:40Z</time>
      </trkpt>
      <trkpt lat="47.46312" lon="-0.37183">
        <ele>26.57</ele>
        <time>2015-03-22T10:30:41Z</time>
      </trkpt>
      <trkpt lat="47.46308" lon="-0.3719">
        <ele>26.57</ele>
        <time>2015-03-22T10:30:42Z</time>
      </trkpt>
      <trkpt lat="47.46296" lon="-0.37211">
        <ele>26.57</ele>
        <time>2015-03-22T10:30:45Z</time>
      </trkpt>
      <trkpt lat="47.46291" lon="-0.37216">
        <ele>27.05</ele>
        <time>2015-03-22T10:30:46Z</time>
      </trkpt>
      <trkpt lat="47.46276" lon="-0.37232">
        <ele>27.05</ele>
        <time>2015-03-22T10:30:49Z</time>
      </trkpt>
      <trkpt lat="47.46271" lon="-0.37238">
        <ele>27.05</ele>
        <time>2015-03-22T10:30:50Z</time>
      </trkpt>
      <trkpt lat="47.46267" lon="-0.37245">
        <ele>27.05</ele>
        <time>2015-03-22T10:30:51Z</time>
      </trkpt>
      <trkpt lat="47.4625" lon="-0.37273">
        <ele>26.57</ele>
        <time>2015-03-22T10:30:55Z</time>
      </trkpt>
      <trkpt lat="47.46245" lon="-0.37278">
        <ele>27.05</ele>
        <time>2015-03-22T10:30:56Z</time>
      </trkpt>
      <trkpt lat="47.46239" lon="-0.37282">
        <ele>26.57</ele>
        <time>2015-03-22T10:30:57Z</time>
      </trkpt>
      <trkpt lat="47.46233" lon="-0.37284">
        <ele>27.05</ele>
        <time>2015-03-22T10:30:58Z</time>
      </trkpt>
      <trkpt lat="47.46228" lon="-0.37285">
        <ele>26.57</ele>
        <time>2015-03-22T10:30:59Z</time>
      </trkpt>
      <trkpt lat="47.46222" lon="-0.37286">
        <ele>27.05</ele>
        <time>2015-03-22T10:31:00Z</time>
      </trkpt>
      <trkpt lat="47.46139" lon="-0.37309">
        <ele>26.57</ele>
        <time>2015-03-22T10:31:13Z</time>
      </trkpt>
      <trkpt lat="47.46134" lon="-0.37315">
        <ele>26.09</ele>
        <time>2015-03-22T10:31:14Z</time>
      </trkpt>
      <trkpt lat="47.4613" lon="-0.37322">
        <ele>27.05</ele>
        <time>2015-03-22T10:31:15Z</time>
      </trkpt>
      <trkpt lat="47.46129" lon="-0.37331">
        <ele>26.57</ele>
        <time>2015-03-22T10:31:16Z</time>
      </trkpt>
      <trkpt lat="47.46129" lon="-0.37339">
        <ele>26.57</ele>
        <time>2015-03-22T10:31:17Z</time>
      </trkpt>
      <trkpt lat="47.46131" lon="-0.37348">
        <ele>26.57</ele>
        <time>2015-03-22T10:31:18Z</time>
      </trkpt>
      <trkpt lat="47.46132" lon="-0.37356">
        <ele>26.57</ele>
        <time>2015-03-22T10:31:19Z</time>
      </trkpt>
      <trkpt lat="47.46134" lon="-0.37364">
        <ele>26.09</ele>
        <time>2015-03-22T10:31:20Z</time>
      </trkpt>
      <trkpt lat="47.46136" lon="-0.37372">
        <ele>26.57</ele>
        <time>2015-03-22T10:31:21Z</time>
      </trkpt>
      <trkpt lat="47.4614" lon="-0.37378">
        <ele>26.57</ele>
        <time>2015-03-22T10:31:22Z</time>
      </trkpt>
      <trkpt lat="47.46143" lon="-0.37385">
        <ele>26.09</ele>
        <time>2015-03-22T10:31:23Z</time>
      </trkpt>
      <trkpt lat="47.46147" lon="-0.3739">
        <ele>27.05</ele>
        <time>2015-03-22T10:31:24Z</time>
      </trkpt>
      <trkpt lat="47.46152" lon="-0.37395">
        <ele>27.05</ele>
        <time>2015-03-22T10:31:25Z</time>
      </trkpt>
      <trkpt lat="47.46157" lon="-0.37399">
        <ele>26.57</ele>
        <time>2015-03-22T10:31:26Z</time>
      </trkpt>
      <trkpt lat="47.46162" lon="-0.37403">
        <ele>27.05</ele>
        <time>2015-03-22T10:31:27Z</time>
      </trkpt>
      <trkpt lat="47.46168" lon="-0.37406">
        <ele>27.05</ele>
        <time>2015-03-22T10:31:28Z</time>
      </trkpt>
      <trkpt lat="47.46235" lon="-0.37467">
        <ele>27.05</ele>
        <time>2015-03-22T10:31:41Z</time>
      </trkpt>
      <trkpt lat="47.46265" lon="-0.37493">
        <ele>26.09</ele>
        <time>2015-03-22T10:31:47Z</time>
      </trkpt>
      <trkpt lat="47.4627" lon="-0.37498">
        <ele>25.61</ele>
        <time>2015-03-22T10:31:48Z</time>
      </trkpt>
      <trkpt lat="47.46274" lon="-0.37504">
        <ele>26.09</ele>
        <time>2015-03-22T10:31:49Z</time>
      </trkpt>
      <trkpt lat="47.46276" lon="-0.37512">
        <ele>26.09</ele>
        <time>2015-03-22T10:31:50Z</time>
      </trkpt>
      <trkpt lat="47.46278" lon="-0.37521">
        <ele>25.61</ele>
        <time>2015-03-22T10:31:51Z</time>
      </trkpt>
      <trkpt lat="47.46278" lon="-0.3753">
        <ele>26.09</ele>
        <time>2015-03-22T10:31:52Z</time>
      </trkpt>
      <trkpt lat="47.46277" lon="-0.37539">
        <ele>26.57</ele>
        <time>2015-03-22T10:31:53Z</time>
      </trkpt>
      <trkpt lat="47.46277" lon="-0.37556">
        <ele>26.09</ele>
        <time>2015-03-22T10:31:55Z</time>
      </trkpt>
      <trkpt lat="47.46279" lon="-0.37564">
        <ele>26.09</ele>
        <time>2015-03-22T10:31:56Z</time>
      </trkpt>
      <trkpt lat="47.46282" lon="-0.37571">
        <ele>26.09</ele>
        <time>2015-03-22T10:31:57Z</time>
      </trkpt>
      <trkpt lat="47.46287" lon="-0.37577">
        <ele>26.09</ele>
        <time>2015-03-22T10:31:58Z</time>
      </trkpt>
      <trkpt lat="47.46291" lon="-0.37582">
        <ele>26.09</ele>
        <time>2015-03-22T10:31:59Z</time>
      </trkpt>
      <trkpt lat="47.46308" lon="-0.37608">
        <ele>26.09</ele>
        <time>2015-03-22T10:32:03Z</time>
      </trkpt>
      <trkpt lat="47.46334" lon="-0.37665">
        <ele>26.09</ele>
        <time>2015-03-22T10:32:11Z</time>
      </trkpt>
      <trkpt lat="47.46338" lon="-0.37671">
        <ele>26.09</ele>
        <time>2015-03-22T10:32:12Z</time>
      </trkpt>
      <trkpt lat="47.46342" lon="-0.37677">
        <ele>26.57</ele>
        <time>2015-03-22T10:32:13Z</time>
      </trkpt>
      <trkpt lat="47.46345" lon="-0.37683">
        <ele>26.09</ele>
        <time>2015-03-22T10:32:14Z</time>
      </trkpt>
      <trkpt lat="47.46347" lon="-0.37691">
        <ele>26.57</ele>
        <time>2015-03-22T10:32:15Z</time>
      </trkpt>
      <trkpt lat="47.46348" lon="-0.37699">
        <ele>26.57</ele>
        <time>2015-03-22T10:32:16Z</time>
      </trkpt>
      <trkpt lat="47.46347" lon="-0.37707">
        <ele>26.09</ele>
        <time>2015-03-22T10:32:17Z</time>
      </trkpt>
      <trkpt lat="47.46344" lon="-0.37715">
        <ele>26.57</ele>
        <time>2015-03-22T10:32:18Z</time>
      </trkpt>
      <trkpt lat="47.46341" lon="-0.37723">
        <ele>26.57</ele>
        <time>2015-03-22T10:32:19Z</time>
      </trkpt>
      <trkpt lat="47.46338" lon="-0.3773">
        <ele>26.57</ele>
        <time>2015-03-22T10:32:20Z</time>
      </trkpt>
      <trkpt lat="47.46335" lon="-0.37738">
        <ele>26.57</ele>
        <time>2015-03-22T10:32:21Z</time>
      </trkpt>
      <trkpt lat="47.46333" lon="-0.37746">
        <ele>26.09</ele>
        <time>2015-03-22T10:32:22Z</time>
      </trkpt>
      <trkpt lat="47.46332" lon="-0.37755">
        <ele>26.09</ele>
        <time>2015-03-22T10:32:23Z</time>
      </trkpt>
      <trkpt lat="47.46332" lon="-0.37765">
        <ele>26.09</ele>
        <time>2015-03-22T10:32:24Z</time>
      </trkpt>
      <trkpt lat="47.46333" lon="-0.37773">
        <ele>26.57</ele>
        <time>2015-03-22T10:32:25Z</time>
      </trkpt>
      <trkpt lat="47.46334" lon="-0.37782">
        <ele>26.57</ele>
        <time>2015-03-22T10:32:26Z</time>
      </trkpt>
      <trkpt lat="47.46342" lon="-0.37829">
        <ele>26.57</ele>
        <time>2015-03-22T10:32:32Z</time>
      </trkpt>
      <trkpt lat="47.4634" lon="-0.37835">
        <ele>27.05</ele>
        <time>2015-03-22T10:32:33Z</time>
      </trkpt>
      <trkpt lat="47.46336" lon="-0.37838">
        <ele>26.57</ele>
        <time>2015-03-22T10:32:34Z</time>
      </trkpt>
      <trkpt lat="47.46332" lon="-0.37838">
        <ele>27.05</ele>
        <time>2015-03-22T10:32:35Z</time>
      </trkpt>
      <trkpt lat="47.46328" lon="-0.37836">
        <ele>27.53</ele>
        <time>2015-03-22T10:32:36Z</time>
      </trkpt>
      <trkpt lat="47.46323" lon="-0.37833">
        <ele>27.53</ele>
        <time>2015-03-22T10:32:37Z</time>
      </trkpt>
      <trkpt lat="47.46293" lon="-0.37816">
        <ele>27.53</ele>
        <time>2015-03-22T10:32:43Z</time>
      </trkpt>
      <trkpt lat="47.46288" lon="-0.37813">
        <ele>27.53</ele>
        <time>2015-03-22T10:32:44Z</time>
      </trkpt>
      <trkpt lat="47.46262" lon="-0.37785">
        <ele>28.02</ele>
        <time>2015-03-22T10:32:50Z</time>
      </trkpt>
      <trkpt lat="47.46256" lon="-0.37782">
        <ele>28.02</ele>
        <time>2015-03-22T10:32:51Z</time>
      </trkpt>
      <trkpt lat="47.4625" lon="-0.37781">
        <ele>28.02</ele>
        <time>2015-03-22T10:32:52Z</time>
      </trkpt>
      <trkpt lat="47.46245" lon="-0.37783">
        <ele>27.53</ele>
        <time>2015-03-22T10:32:53Z</time>
      </trkpt>
      <trkpt lat="47.4624" lon="-0.37787">
        <ele>28.02</ele>
        <time>2015-03-22T10:32:54Z</time>
      </trkpt>
      <trkpt lat="47.46236" lon="-0.37794">
        <ele>28.02</ele>
        <time>2015-03-22T10:32:55Z</time>
      </trkpt>
      <trkpt lat="47.46232" lon="-0.378">
        <ele>28.02</ele>
        <time>2015-03-22T10:32:56Z</time>
      </trkpt>
      <trkpt lat="47.46229" lon="-0.37808">
        <ele>28.02</ele>
        <time>2015-03-22T10:32:57Z</time>
      </trkpt>
      <trkpt lat="47.46162" lon="-0.3793">
        <ele>27.53</ele>
        <time>2015-03-22T10:33:14Z</time>
      </trkpt>
      <trkpt lat="47.46096" lon="-0.38058">
        <ele>27.05</ele>
        <time>2015-03-22T10:33:29Z</time>
      </trkpt>
      <trkpt lat="47.46087" lon="-0.3809">
        <ele>27.05</ele>
        <time>2015-03-22T10:33:32Z</time>
      </trkpt>
      <trkpt lat="47.46085" lon="-0.38101">
        <ele>27.53</ele>
        <time>2015-03-22T10:33:33Z</time>
      </trkpt>
      <trkpt lat="47.46061" lon="-0.38252">
        <ele>28.5</ele>
        <time>2015-03-22T10:33:47Z</time>
      </trkpt>
      <trkpt lat="47.46035" lon="-0.38438">
        <ele>28.02</ele>
        <time>2015-03-22T10:34:05Z</time>
      </trkpt>
      <trkpt lat="47.46029" lon="-0.38478">
        <ele>28.02</ele>
        <time>2015-03-22T10:34:09Z</time>
      </trkpt>
      <trkpt lat="47.46026" lon="-0.38488">
        <ele>28.02</ele>
        <time>2015-03-22T10:34:10Z</time>
      </trkpt>
      <trkpt lat="47.46022" lon="-0.38496">
        <ele>28.98</ele>
        <time>2015-03-22T10:34:11Z</time>
      </trkpt>
      <trkpt lat="47.46018" lon="-0.38504">
        <ele>28.98</ele>
        <time>2015-03-22T10:34:12Z</time>
      </trkpt>
      <trkpt lat="47.46014" lon="-0.38512">
        <ele>28.98</ele>
        <time>2015-03-22T10:34:13Z</time>
      </trkpt>
      <trkpt lat="47.45941" lon="-0.3864">
        <ele>28.5</ele>
        <time>2015-03-22T10:34:28Z</time>
      </trkpt>
      <trkpt lat="47.45864" lon="-0.38782">
        <ele>28.5</ele>
        <time>2015-03-22T10:34:44Z</time>
      </trkpt>
      <trkpt lat="47.45803" lon="-0.3893">
        <ele>28.02</ele>
        <time>2015-03-22T10:35:00Z</time>
      </trkpt>
      <trkpt lat="47.45773" lon="-0.39027">
        <ele>28.02</ele>
        <time>2015-03-22T10:35:10Z</time>
      </trkpt>
      <trkpt lat="47.45771" lon="-0.39037">
        <ele>27.53</ele>
        <time>2015-03-22T10:35:11Z</time>
      </trkpt>
      <trkpt lat="47.45765" lon="-0.39119">
        <ele>28.5</ele>
        <time>2015-03-22T10:35:19Z</time>
      </trkpt>
      <trkpt lat="47.45763" lon="-0.39127">
        <ele>28.5</ele>
        <time>2015-03-22T10:35:20Z</time>
      </trkpt>
      <trkpt lat="47.4576" lon="-0.39133">
        <ele>28.5</ele>
        <time>2015-03-22T10:35:21Z</time>
      </trkpt>
      <trkpt lat="47.45755" lon="-0.39136">
        <ele>28.5</ele>
        <time>2015-03-22T10:35:22Z</time>
      </trkpt>
      <trkpt lat="47.45751" lon="-0.39135">
        <ele>28.98</ele>
        <time>2015-03-22T10:35:23Z</time>
      </trkpt>
      <trkpt lat="47.45747" lon="-0.39131">
        <ele>29.46</ele>
        <time>2015-03-22T10:35:24Z</time>
      </trkpt>
      <trkpt lat="47.45744" lon="-0.39125">
        <ele>29.94</ele>
        <time>2015-03-22T10:35:25Z</time>
      </trkpt>
      <trkpt lat="47.457" lon="-0.39055">
        <ele>30.9</ele>
        <time>2015-03-22T10:35:37Z</time>
      </trkpt>
      <trkpt lat="47.45676" lon="-0.39021">
        <ele>31.86</ele>
        <time>2015-03-22T10:35:45Z</time>
      </trkpt>
      <trkpt lat="47.45672" lon="-0.39017">
        <ele>31.86</ele>
        <time>2015-03-22T10:35:46Z</time>
      </trkpt>
      <trkpt lat="47.45668" lon="-0.39016">
        <ele>31.86</ele>
        <time>2015-03-22T10:35:47Z</time>
      </trkpt>
      <trkpt lat="47.45663" lon="-0.39018">
        <ele>30.9</ele>
        <time>2015-03-22T10:35:48Z</time>
      </trkpt>
      <trkpt lat="47.45658" lon="-0.39022">
        <ele>29.94</ele>
        <time>2015-03-22T10:35:49Z</time>
      </trkpt>
      <trkpt lat="47.45652" lon="-0.39029">
        <ele>29.46</ele>
        <time>2015-03-22T10:35:50Z</time>
      </trkpt>
      <trkpt lat="47.45647" lon="-0.39036">
        <ele>28.98</ele>
        <time>2015-03-22T10:35:51Z</time>
      </trkpt>
      <trkpt lat="47.45586" lon="-0.39121">
        <ele>28.98</ele>
        <time>2015-03-22T10:36:03Z</time>
      </trkpt>
      <trkpt lat="47.45512" lon="-0.39228">
        <ele>28.98</ele>
        <time>2015-03-22T10:36:18Z</time>
      </trkpt>
      <trkpt lat="47.45444" lon="-0.39327">
        <ele>28.98</ele>
        <time>2015-03-22T10:36:32Z</time>
      </trkpt>
      <trkpt lat="47.45365" lon="-0.39444">
        <ele>29.46</ele>
        <time>2015-03-22T10:36:49Z</time>
      </trkpt>
      <trkpt lat="47.45292" lon="-0.39553">
        <ele>28.5</ele>
        <time>2015-03-22T10:37:04Z</time>
      </trkpt>
      <trkpt lat="47.45288" lon="-0.3956">
        <ele>28.5</ele>
        <time>2015-03-22T10:37:05Z</time>
      </trkpt>
      <trkpt lat="47.45275" lon="-0.39585">
        <ele>28.5</ele>
        <time>2015-03-22T10:37:08Z</time>
      </trkpt>
      <trkpt lat="47.45258" lon="-0.39637">
        <ele>28.5</ele>
        <time>2015-03-22T10:37:14Z</time>
      </trkpt>
      <trkpt lat="47.4524" lon="-0.39731">
        <ele>28.5</ele>
        <time>2015-03-22T10:37:25Z</time>
      </trkpt>
      <trkpt lat="47.45226" lon="-0.39771">
        <ele>28.5</ele>
        <time>2015-03-22T10:37:30Z</time>
      </trkpt>
      <trkpt lat="47.45223" lon="-0.39779">
        <ele>28.98</ele>
        <time>2015-03-22T10:37:31Z</time>
      </trkpt>
      <trkpt lat="47.4522" lon="-0.39785">
        <ele>28.02</ele>
        <time>2015-03-22T10:37:32Z</time>
      </trkpt>
      <trkpt lat="47.45163" lon="-0.39858">
        <ele>28.5</ele>
        <time>2015-03-22T10:37:45Z</time>
      </trkpt>
      <trkpt lat="47.45081" lon="-0.39953">
        <ele>28.02</ele>
        <time>2015-03-22T10:38:02Z</time>
      </trkpt>
      <trkpt lat="47.45002" lon="-0.40044">
        <ele>28.02</ele>
        <time>2015-03-22T10:38:18Z</time>
      </trkpt>
      <trkpt lat="47.44946" lon="-0.40154">
        <ele>28.98</ele>
        <time>2015-03-22T10:38:33Z</time>
      </trkpt>
      <trkpt lat="47.4492" lon="-0.4027">
        <ele>28.98</ele>
        <time>2015-03-22T10:38:47Z</time>
      </trkpt>
      <trkpt lat="47.44911" lon="-0.40293">
        <ele>28.98</ele>
        <time>2015-03-22T10:38:50Z</time>
      </trkpt>
      <trkpt lat="47.44907" lon="-0.40301">
        <ele>28.98</ele>
        <time>2015-03-22T10:38:51Z</time>
      </trkpt>
      <trkpt lat="47.4488" lon="-0.40348">
        <ele>28.5</ele>
        <time>2015-03-22T10:38:58Z</time>
      </trkpt>
      <trkpt lat="47.44876" lon="-0.40354">
        <ele>29.46</ele>
        <time>2015-03-22T10:38:59Z</time>
      </trkpt>
      <trkpt lat="47.44816" lon="-0.40443">
        <ele>28.5</ele>
        <time>2015-03-22T10:39:12Z</time>
      </trkpt>
      <trkpt lat="47.4474" lon="-0.40551">
        <ele>28.5</ele>
        <time>2015-03-22T10:39:28Z</time>
      </trkpt>
      <trkpt lat="47.44667" lon="-0.40659">
        <ele>27.53</ele>
        <time>2015-03-22T10:39:43Z</time>
      </trkpt>
      <trkpt lat="47.44662" lon="-0.40666">
        <ele>27.53</ele>
        <time>2015-03-22T10:39:44Z</time>
      </trkpt>
      <trkpt lat="47.44622" lon="-0.40728">
        <ele>27.53</ele>
        <time>2015-03-22T10:39:53Z</time>
      </trkpt>
      <trkpt lat="47.44563" lon="-0.40818">
        <ele>28.02</ele>
        <time>2015-03-22T10:40:06Z</time>
      </trkpt>
      <trkpt lat="47.44496" lon="-0.40872">
        <ele>28.5</ele>
        <time>2015-03-22T10:40:18Z</time>
      </trkpt>
      <trkpt lat="47.44419" lon="-0.40936">
        <ele>28.5</ele>
        <time>2015-03-22T10:40:31Z</time>
      </trkpt>
      <trkpt lat="47.44413" lon="-0.40939">
        <ele>28.98</ele>
        <time>2015-03-22T10:40:32Z</time>
      </trkpt>
      <trkpt lat="47.44392" lon="-0.40955">
        <ele>29.46</ele>
        <time>2015-03-22T10:40:36Z</time>
      </trkpt>
      <trkpt lat="47.44388" lon="-0.40961">
        <ele>28.98</ele>
        <time>2015-03-22T10:40:37Z</time>
      </trkpt>
      <trkpt lat="47.44387" lon="-0.40967">
        <ele>29.46</ele>
        <time>2015-03-22T10:40:38Z</time>
      </trkpt>
      <trkpt lat="47.44387" lon="-0.40974">
        <ele>29.94</ele>
        <time>2015-03-22T10:40:39Z</time>
      </trkpt>
      <trkpt lat="47.44389" lon="-0.40979">
        <ele>31.38</ele>
        <time>2015-03-22T10:40:40Z</time>
      </trkpt>
      <trkpt lat="47.44392" lon="-0.40982">
        <ele>31.38</ele>
        <time>2015-03-22T10:40:41Z</time>
      </trkpt>
      <trkpt lat="47.44395" lon="-0.40986">
        <ele>32.82</ele>
        <time>2015-03-22T10:40:42Z</time>
      </trkpt>
      <trkpt lat="47.44399" lon="-0.40989">
        <ele>32.34</ele>
        <time>2015-03-22T10:40:43Z</time>
      </trkpt>
      <trkpt lat="47.44425" lon="-0.41015">
        <ele>31.38</ele>
        <time>2015-03-22T10:40:49Z</time>
      </trkpt>
      <trkpt lat="47.44448" lon="-0.41038">
        <ele>30.42</ele>
        <time>2015-03-22T10:40:55Z</time>
      </trkpt>
      <trkpt lat="47.4445" lon="-0.41044">
        <ele>29.94</ele>
        <time>2015-03-22T10:40:56Z</time>
      </trkpt>
      <trkpt lat="47.44448" lon="-0.4105">
        <ele>29.94</ele>
        <time>2015-03-22T10:40:57Z</time>
      </trkpt>
      <trkpt lat="47.44444" lon="-0.41055">
        <ele>29.46</ele>
        <time>2015-03-22T10:40:58Z</time>
      </trkpt>
      <trkpt lat="47.4444" lon="-0.4106">
        <ele>29.94</ele>
        <time>2015-03-22T10:40:59Z</time>
      </trkpt>
      <trkpt lat="47.44362" lon="-0.41142">
        <ele>28.5</ele>
        <time>2015-03-22T10:41:13Z</time>
      </trkpt>
      <trkpt lat="47.44306" lon="-0.41214">
        <ele>28.98</ele>
        <time>2015-03-22T10:41:23Z</time>
      </trkpt>
      <trkpt lat="47.44256" lon="-0.41362">
        <ele>28.98</ele>
        <time>2015-03-22T10:41:38Z</time>
      </trkpt>
      <trkpt lat="47.44247" lon="-0.41418">
        <ele>28.98</ele>
        <time>2015-03-22T10:41:43Z</time>
      </trkpt>
      <trkpt lat="47.44247" lon="-0.41429">
        <ele>28.98</ele>
        <time>2015-03-22T10:41:44Z</time>
      </trkpt>
      <trkpt lat="47.44248" lon="-0.41441">
        <ele>28.98</ele>
        <time>2015-03-22T10:41:45Z</time>
      </trkpt>
      <trkpt lat="47.44243" lon="-0.41567">
        <ele>29.46</ele>
        <time>2015-03-22T10:41:56Z</time>
      </trkpt>
      <trkpt lat="47.44222" lon="-0.41766">
        <ele>28.5</ele>
        <time>2015-03-22T10:42:13Z</time>
      </trkpt>
      <trkpt lat="47.44217" lon="-0.4191">
        <ele>29.46</ele>
        <time>2015-03-22T10:42:26Z</time>
      </trkpt>
      <trkpt lat="47.44226" lon="-0.42067">
        <ele>29.46</ele>
        <time>2015-03-22T10:42:41Z</time>
      </trkpt>
      <trkpt lat="47.44216" lon="-0.42247">
        <ele>28.5</ele>
        <time>2015-03-22T10:42:58Z</time>
      </trkpt>
      <trkpt lat="47.44219" lon="-0.42422">
        <ele>28.5</ele>
        <time>2015-03-22T10:43:15Z</time>
      </trkpt>
      <trkpt lat="47.44221" lon="-0.42453">
        <ele>29.46</ele>
        <time>2015-03-22T10:43:18Z</time>
      </trkpt>
      <trkpt lat="47.44222" lon="-0.42526">
        <ele>28.98</ele>
        <time>2015-03-22T10:43:25Z</time>
      </trkpt>
      <trkpt lat="47.4422" lon="-0.42637">
        <ele>29.46</ele>
        <time>2015-03-22T10:43:36Z</time>
      </trkpt>
      <trkpt lat="47.44219" lon="-0.42646">
        <ele>29.46</ele>
        <time>2015-03-22T10:43:37Z</time>
      </trkpt>
      <trkpt lat="47.44217" lon="-0.42654">
        <ele>28.98</ele>
        <time>2015-03-22T10:43:38Z</time>
      </trkpt>
      <trkpt lat="47.44212" lon="-0.42671">
        <ele>28.98</ele>
        <time>2015-03-22T10:43:40Z</time>
      </trkpt>
      <trkpt lat="47.44209" lon="-0.42679">
        <ele>28.98</ele>
        <time>2015-03-22T10:43:41Z</time>
      </trkpt>
      <trkpt lat="47.44203" lon="-0.42694">
        <ele>28.5</ele>
        <time>2015-03-22T10:43:43Z</time>
      </trkpt>
      <trkpt lat="47.44192" lon="-0.42718">
        <ele>28.02</ele>
        <time>2015-03-22T10:43:46Z</time>
      </trkpt>
      <trkpt lat="47.44175" lon="-0.42753">
        <ele>28.02</ele>
        <time>2015-03-22T10:43:52Z</time>
      </trkpt>
      <trkpt lat="47.44196" lon="-0.42837">
        <ele>28.02</ele>
        <time>2015-03-22T10:44:05Z</time>
      </trkpt>
      <trkpt lat="47.44194" lon="-0.42847">
        <ele>29.94</ele>
        <time>2015-03-22T10:44:10Z</time>
      </trkpt>
      <trkpt lat="47.44194" lon="-0.42847">
        <ele>30.42</ele>
        <time>2015-03-22T10:44:11Z</time>
      </trkpt>
      <trkpt lat="47.44166" lon="-0.42862">
        <ele>28.98</ele>
        <time>2015-03-22T10:44:20Z</time>
      </trkpt>
      <trkpt lat="47.44157" lon="-0.42873">
        <ele>28.02</ele>
        <time>2015-03-22T10:44:22Z</time>
      </trkpt>
      <trkpt lat="47.44156" lon="-0.4288">
        <ele>28.5</ele>
        <time>2015-03-22T10:44:23Z</time>
      </trkpt>
      <trkpt lat="47.44157" lon="-0.42887">
        <ele>28.5</ele>
        <time>2015-03-22T10:44:24Z</time>
      </trkpt>
      <trkpt lat="47.44158" lon="-0.42893">
        <ele>28.5</ele>
        <time>2015-03-22T10:44:25Z</time>
      </trkpt>
      <trkpt lat="47.44159" lon="-0.429">
        <ele>28.02</ele>
        <time>2015-03-22T10:44:26Z</time>
      </trkpt>
      <trkpt lat="47.44163" lon="-0.42927">
        <ele>28.02</ele>
        <time>2015-03-22T10:44:30Z</time>
      </trkpt>
      <trkpt lat="47.44163" lon="-0.42933">
        <ele>28.02</ele>
        <time>2015-03-22T10:44:31Z</time>
      </trkpt>
      <trkpt lat="47.44163" lon="-0.42939">
        <ele>28.02</ele>
        <time>2015-03-22T10:44:32Z</time>
      </trkpt>
      <trkpt lat="47.44164" lon="-0.42946">
        <ele>27.53</ele>
        <time>2015-03-22T10:44:33Z</time>
      </trkpt>
      <trkpt lat="47.44165" lon="-0.42953">
        <ele>28.02</ele>
        <time>2015-03-22T10:44:34Z</time>
      </trkpt>
      <trkpt lat="47.44175" lon="-0.43035">
        <ele>29.46</ele>
        <time>2015-03-22T10:44:47Z</time>
      </trkpt>
      <trkpt lat="47.44179" lon="-0.43056">
        <ele>28.98</ele>
        <time>2015-03-22T10:44:50Z</time>
      </trkpt>
      <trkpt lat="47.4418" lon="-0.43063">
        <ele>29.46</ele>
        <time>2015-03-22T10:44:51Z</time>
      </trkpt>
      <trkpt lat="47.44185" lon="-0.43106">
        <ele>28.98</ele>
        <time>2015-03-22T10:44:57Z</time>
      </trkpt>
      <trkpt lat="47.44188" lon="-0.43111">
        <ele>28.5</ele>
        <time>2015-03-22T10:44:58Z</time>
      </trkpt>
      <trkpt lat="47.44191" lon="-0.43115">
        <ele>28.98</ele>
        <time>2015-03-22T10:44:59Z</time>
      </trkpt>
      <trkpt lat="47.44204" lon="-0.43124">
        <ele>28.98</ele>
        <time>2015-03-22T10:45:02Z</time>
      </trkpt>
      <trkpt lat="47.44208" lon="-0.43129">
        <ele>28.5</ele>
        <time>2015-03-22T10:45:03Z</time>
      </trkpt>
      <trkpt lat="47.44212" lon="-0.43134">
        <ele>28.02</ele>
        <time>2015-03-22T10:45:04Z</time>
      </trkpt>
      <trkpt lat="47.44215" lon="-0.43139">
        <ele>28.98</ele>
        <time>2015-03-22T10:45:05Z</time>
      </trkpt>
      <trkpt lat="47.44219" lon="-0.43144">
        <ele>28.5</ele>
        <time>2015-03-22T10:45:06Z</time>
      </trkpt>
      <trkpt lat="47.44224" lon="-0.43153">
        <ele>28.98</ele>
        <time>2015-03-22T10:45:08Z</time>
      </trkpt>
      <trkpt lat="47.44231" lon="-0.43169">
        <ele>29.94</ele>
        <time>2015-03-22T10:45:12Z</time>
      </trkpt>
      <trkpt lat="47.44227" lon="-0.43172">
        <ele>29.94</ele>
        <time>2015-03-22T10:45:14Z</time>
      </trkpt>
      <trkpt lat="47.44224" lon="-0.43171">
        <ele>29.46</ele>
        <time>2015-03-22T10:45:15Z</time>
      </trkpt>
      <trkpt lat="47.4422" lon="-0.43168">
        <ele>29.94</ele>
        <time>2015-03-22T10:45:16Z</time>
      </trkpt>
      <trkpt lat="47.44217" lon="-0.43164">
        <ele>30.9</ele>
        <time>2015-03-22T10:45:17Z</time>
      </trkpt>
      <trkpt lat="47.44214" lon="-0.43159">
        <ele>30.42</ele>
        <time>2015-03-22T10:45:18Z</time>
      </trkpt>
      <trkpt lat="47.44207" lon="-0.43151">
        <ele>30.9</ele>
        <time>2015-03-22T10:45:20Z</time>
      </trkpt>
      <trkpt lat="47.44194" lon="-0.43138">
        <ele>30.9</ele>
        <time>2015-03-22T10:45:24Z</time>
      </trkpt>
      <trkpt lat="47.44171" lon="-0.4313">
        <ele>32.34</ele>
        <time>2015-03-22T10:45:30Z</time>
      </trkpt>
      <trkpt lat="47.44167" lon="-0.4313">
        <ele>32.82</ele>
        <time>2015-03-22T10:45:31Z</time>
      </trkpt>
      <trkpt lat="47.4414" lon="-0.43131">
        <ele>31.86</ele>
        <time>2015-03-22T10:45:37Z</time>
      </trkpt>
      <trkpt lat="47.44135" lon="-0.43128">
        <ele>32.34</ele>
        <time>2015-03-22T10:45:38Z</time>
      </trkpt>
      <trkpt lat="47.44129" lon="-0.43124">
        <ele>31.86</ele>
        <time>2015-03-22T10:45:39Z</time>
      </trkpt>
      <trkpt lat="47.44124" lon="-0.43119">
        <ele>30.9</ele>
        <time>2015-03-22T10:45:40Z</time>
      </trkpt>
      <trkpt lat="47.4412" lon="-0.43112">
        <ele>31.38</ele>
        <time>2015-03-22T10:45:41Z</time>
      </trkpt>
      <trkpt lat="47.44116" lon="-0.43105">
        <ele>30.42</ele>
        <time>2015-03-22T10:45:42Z</time>
      </trkpt>
      <trkpt lat="47.44084" lon="-0.43048">
        <ele>30.9</ele>
        <time>2015-03-22T10:45:50Z</time>
      </trkpt>
      <trkpt lat="47.4408" lon="-0.43044">
        <ele>30.9</ele>
        <time>2015-03-22T10:45:51Z</time>
      </trkpt>
      <trkpt lat="47.44075" lon="-0.43045">
        <ele>30.42</ele>
        <time>2015-03-22T10:45:52Z</time>
      </trkpt>
      <trkpt lat="47.44072" lon="-0.4305">
        <ele>29.94</ele>
        <time>2015-03-22T10:45:53Z</time>
      </trkpt>
      <trkpt lat="47.44071" lon="-0.43055">
        <ele>29.94</ele>
        <time>2015-03-22T10:45:54Z</time>
      </trkpt>
      <trkpt lat="47.44071" lon="-0.43061">
        <ele>30.9</ele>
        <time>2015-03-22T10:45:55Z</time>
      </trkpt>
      <trkpt lat="47.44072" lon="-0.43067">
        <ele>29.94</ele>
        <time>2015-03-22T10:45:56Z</time>
      </trkpt>
      <trkpt lat="47.44075" lon="-0.43163">
        <ele>30.9</ele>
        <time>2015-03-22T10:46:08Z</time>
      </trkpt>
      <trkpt lat="47.44079" lon="-0.43313">
        <ele>30.42</ele>
        <time>2015-03-22T10:46:26Z</time>
      </trkpt>
      <trkpt lat="47.44083" lon="-0.43437">
        <ele>30.9</ele>
        <time>2015-03-22T10:46:41Z</time>
      </trkpt>
      <trkpt lat="47.44087" lon="-0.43567">
        <ele>30.9</ele>
        <time>2015-03-22T10:46:57Z</time>
      </trkpt>
      <trkpt lat="47.44113" lon="-0.437">
        <ele>31.38</ele>
        <time>2015-03-22T10:47:15Z</time>
      </trkpt>
      <trkpt lat="47.44141" lon="-0.43839">
        <ele>31.38</ele>
        <time>2015-03-22T10:47:33Z</time>
      </trkpt>
      <trkpt lat="47.44176" lon="-0.43996">
        <ele>31.38</ele>
        <time>2015-03-22T10:47:54Z</time>
      </trkpt>
      <trkpt lat="47.442" lon="-0.44107">
        <ele>31.38</ele>
        <time>2015-03-22T10:48:09Z</time>
      </trkpt>
      <trkpt lat="47.44213" lon="-0.44172">
        <ele>31.38</ele>
        <time>2015-03-22T10:48:18Z</time>
      </trkpt>
      <trkpt lat="47.44246" lon="-0.44303">
        <ele>31.38</ele>
        <time>2015-03-22T10:48:37Z</time>
      </trkpt>
      <trkpt lat="47.44278" lon="-0.44411">
        <ele>30.9</ele>
        <time>2015-03-22T10:48:52Z</time>
      </trkpt>
      <trkpt lat="47.443" lon="-0.44525">
        <ele>30.9</ele>
        <time>2015-03-22T10:49:07Z</time>
      </trkpt>
      <trkpt lat="47.44285" lon="-0.44633">
        <ele>30.42</ele>
        <time>2015-03-22T10:49:21Z</time>
      </trkpt>
      <trkpt lat="47.44237" lon="-0.44748">
        <ele>29.94</ele>
        <time>2015-03-22T10:49:38Z</time>
      </trkpt>
      <trkpt lat="47.44183" lon="-0.44875">
        <ele>30.9</ele>
        <time>2015-03-22T10:49:57Z</time>
      </trkpt>
      <trkpt lat="47.44135" lon="-0.44988">
        <ele>30.42</ele>
        <time>2015-03-22T10:50:14Z</time>
      </trkpt>
      <trkpt lat="47.44108" lon="-0.45068">
        <ele>30.9</ele>
        <time>2015-03-22T10:50:26Z</time>
      </trkpt>
      <trkpt lat="47.44098" lon="-0.45208">
        <ele>30.42</ele>
        <time>2015-03-22T10:50:44Z</time>
      </trkpt>
      <trkpt lat="47.44087" lon="-0.45348">
        <ele>30.9</ele>
        <time>2015-03-22T10:51:02Z</time>
      </trkpt>
      <trkpt lat="47.44076" lon="-0.45479">
        <ele>30.42</ele>
        <time>2015-03-22T10:51:19Z</time>
      </trkpt>
      <trkpt lat="47.44075" lon="-0.45496">
        <ele>30.42</ele>
        <time>2015-03-22T10:51:21Z</time>
      </trkpt>
      <trkpt lat="47.44067" lon="-0.45617">
        <ele>31.38</ele>
        <time>2015-03-22T10:51:37Z</time>
      </trkpt>
      <trkpt lat="47.44057" lon="-0.45759">
        <ele>31.38</ele>
        <time>2015-03-22T10:51:55Z</time>
      </trkpt>
      <trkpt lat="47.44046" lon="-0.45898">
        <ele>30.9</ele>
        <time>2015-03-22T10:52:14Z</time>
      </trkpt>
      <trkpt lat="47.44036" lon="-0.4601">
        <ele>30.9</ele>
        <time>2015-03-22T10:52:30Z</time>
      </trkpt>
      <trkpt lat="47.43995" lon="-0.4613">
        <ele>30.9</ele>
        <time>2015-03-22T10:52:47Z</time>
      </trkpt>
      <trkpt lat="47.43972" lon="-0.46163">
        <ele>31.38</ele>
        <time>2015-03-22T10:52:53Z</time>
      </trkpt>
      <trkpt lat="47.43963" lon="-0.46172">
        <ele>30.9</ele>
        <time>2015-03-22T10:52:55Z</time>
      </trkpt>
      <trkpt lat="47.43954" lon="-0.46181">
        <ele>30.42</ele>
        <time>2015-03-22T10:52:57Z</time>
      </trkpt>
      <trkpt lat="47.43882" lon="-0.46273">
        <ele>30.9</ele>
        <time>2015-03-22T10:53:14Z</time>
      </trkpt>
      <trkpt lat="47.43817" lon="-0.4635">
        <ele>30.42</ele>
        <time>2015-03-22T10:53:29Z</time>
      </trkpt>
      <trkpt lat="47.43773" lon="-0.464">
        <ele>29.94</ele>
        <time>2015-03-22T10:53:39Z</time>
      </trkpt>
      <trkpt lat="47.43769" lon="-0.46404">
        <ele>29.94</ele>
        <time>2015-03-22T10:53:40Z</time>
      </trkpt>
      <trkpt lat="47.43765" lon="-0.46409">
        <ele>29.94</ele>
        <time>2015-03-22T10:53:41Z</time>
      </trkpt>
      <trkpt lat="47.43698" lon="-0.46491">
        <ele>30.42</ele>
        <time>2015-03-22T10:53:58Z</time>
      </trkpt>
      <trkpt lat="47.43625" lon="-0.46578">
        <ele>30.42</ele>
        <time>2015-03-22T10:54:17Z</time>
      </trkpt>
      <trkpt lat="47.43538" lon="-0.46683">
        <ele>30.42</ele>
        <time>2015-03-22T10:54:38Z</time>
      </trkpt>
      <trkpt lat="47.43463" lon="-0.46772">
        <ele>30.42</ele>
        <time>2015-03-22T10:54:55Z</time>
      </trkpt>
      <trkpt lat="47.43393" lon="-0.46858">
        <ele>30.42</ele>
        <time>2015-03-22T10:55:12Z</time>
      </trkpt>
      <trkpt lat="47.43314" lon="-0.46956">
        <ele>30.9</ele>
        <time>2015-03-22T10:55:30Z</time>
      </trkpt>
      <trkpt lat="47.43235" lon="-0.47019">
        <ele>30.9</ele>
        <time>2015-03-22T10:55:47Z</time>
      </trkpt>
      <trkpt lat="47.43169" lon="-0.47042">
        <ele>30.9</ele>
        <time>2015-03-22T10:55:59Z</time>
      </trkpt>
      <trkpt lat="47.43086" lon="-0.47072">
        <ele>31.86</ele>
        <time>2015-03-22T10:56:14Z</time>
      </trkpt>
      <trkpt lat="47.43081" lon="-0.47074">
        <ele>31.38</ele>
        <time>2015-03-22T10:56:15Z</time>
      </trkpt>
      <trkpt lat="47.43072" lon="-0.47079">
        <ele>31.86</ele>
        <time>2015-03-22T10:56:17Z</time>
      </trkpt>
      <trkpt lat="47.43058" lon="-0.47085">
        <ele>32.34</ele>
        <time>2015-03-22T10:56:21Z</time>
      </trkpt>
      <trkpt lat="47.43019" lon="-0.47096">
        <ele>31.38</ele>
        <time>2015-03-22T10:56:29Z</time>
      </trkpt>
      <trkpt lat="47.43014" lon="-0.47096">
        <ele>30.9</ele>
        <time>2015-03-22T10:56:30Z</time>
      </trkpt>
      <trkpt lat="47.43008" lon="-0.47094">
        <ele>31.38</ele>
        <time>2015-03-22T10:56:31Z</time>
      </trkpt>
      <trkpt lat="47.43003" lon="-0.4709">
        <ele>30.9</ele>
        <time>2015-03-22T10:56:32Z</time>
      </trkpt>
      <trkpt lat="47.42998" lon="-0.47084">
        <ele>30.9</ele>
        <time>2015-03-22T10:56:33Z</time>
      </trkpt>
      <trkpt lat="47.42991" lon="-0.4708">
        <ele>29.46</ele>
        <time>2015-03-22T10:56:34Z</time>
      </trkpt>
      <trkpt lat="47.42984" lon="-0.47077">
        <ele>28.5</ele>
        <time>2015-03-22T10:56:35Z</time>
      </trkpt>
      <trkpt lat="47.42976" lon="-0.47078">
        <ele>28.5</ele>
        <time>2015-03-22T10:56:36Z</time>
      </trkpt>
      <trkpt lat="47.42923" lon="-0.47101">
        <ele>28.02</ele>
        <time>2015-03-22T10:56:44Z</time>
      </trkpt>
      <trkpt lat="47.42917" lon="-0.47106">
        <ele>28.02</ele>
        <time>2015-03-22T10:56:45Z</time>
      </trkpt>
      <trkpt lat="47.42913" lon="-0.47112">
        <ele>27.53</ele>
        <time>2015-03-22T10:56:46Z</time>
      </trkpt>
      <trkpt lat="47.4291" lon="-0.47119">
        <ele>28.5</ele>
        <time>2015-03-22T10:56:47Z</time>
      </trkpt>
      <trkpt lat="47.42909" lon="-0.47127">
        <ele>29.46</ele>
        <time>2015-03-22T10:56:48Z</time>
      </trkpt>
      <trkpt lat="47.42909" lon="-0.47134">
        <ele>30.42</ele>
        <time>2015-03-22T10:56:49Z</time>
      </trkpt>
      <trkpt lat="47.42911" lon="-0.4714">
        <ele>30.9</ele>
        <time>2015-03-22T10:56:50Z</time>
      </trkpt>
      <trkpt lat="47.42913" lon="-0.47145">
        <ele>30.9</ele>
        <time>2015-03-22T10:56:51Z</time>
      </trkpt>
      <trkpt lat="47.42935" lon="-0.4717">
        <ele>32.82</ele>
        <time>2015-03-22T10:57:01Z</time>
      </trkpt>
      <trkpt lat="47.42997" lon="-0.47216">
        <ele>34.26</ele>
        <time>2015-03-22T10:57:19Z</time>
      </trkpt>
      <trkpt lat="47.4306" lon="-0.47259">
        <ele>34.26</ele>
        <time>2015-03-22T10:57:34Z</time>
      </trkpt>
      <trkpt lat="47.43065" lon="-0.47261">
        <ele>34.74</ele>
        <time>2015-03-22T10:57:35Z</time>
      </trkpt>
      <trkpt lat="47.4307" lon="-0.47263">
        <ele>33.78</ele>
        <time>2015-03-22T10:57:36Z</time>
      </trkpt>
      <trkpt lat="47.43091" lon="-0.47274">
        <ele>32.82</ele>
        <time>2015-03-22T10:57:40Z</time>
      </trkpt>
      <trkpt lat="47.4313" lon="-0.47299">
        <ele>30.42</ele>
        <time>2015-03-22T10:57:47Z</time>
      </trkpt>
      <trkpt lat="47.43135" lon="-0.47304">
        <ele>30.42</ele>
        <time>2015-03-22T10:57:48Z</time>
      </trkpt>
      <trkpt lat="47.4314" lon="-0.4731">
        <ele>29.94</ele>
        <time>2015-03-22T10:57:49Z</time>
      </trkpt>
      <trkpt lat="47.43153" lon="-0.47329">
        <ele>30.42</ele>
        <time>2015-03-22T10:57:52Z</time>
      </trkpt>
      <trkpt lat="47.43167" lon="-0.47358">
        <ele>29.94</ele>
        <time>2015-03-22T10:57:56Z</time>
      </trkpt>
      <trkpt lat="47.43189" lon="-0.47396">
        <ele>30.42</ele>
        <time>2015-03-22T10:58:02Z</time>
      </trkpt>
      <trkpt lat="47.43195" lon="-0.4741">
        <ele>31.38</ele>
        <time>2015-03-22T10:58:04Z</time>
      </trkpt>
      <trkpt lat="47.43225" lon="-0.47464">
        <ele>30.42</ele>
        <time>2015-03-22T10:58:13Z</time>
      </trkpt>
      <trkpt lat="47.43246" lon="-0.47506">
        <ele>30.42</ele>
        <time>2015-03-22T10:58:20Z</time>
      </trkpt>
      <trkpt lat="47.43271" lon="-0.4755">
        <ele>30.42</ele>
        <time>2015-03-22T10:58:28Z</time>
      </trkpt>
      <trkpt lat="47.43273" lon="-0.47556">
        <ele>30.9</ele>
        <time>2015-03-22T10:58:29Z</time>
      </trkpt>
      <trkpt lat="47.43311" lon="-0.47621">
        <ele>32.34</ele>
        <time>2015-03-22T10:58:42Z</time>
      </trkpt>
      <trkpt lat="47.43333" lon="-0.47645">
        <ele>32.82</ele>
        <time>2015-03-22T10:58:49Z</time>
      </trkpt>
      <trkpt lat="47.43336" lon="-0.47644">
        <ele>32.82</ele>
        <time>2015-03-22T10:58:50Z</time>
      </trkpt>
      <trkpt lat="47.43339" lon="-0.47644">
        <ele>32.82</ele>
        <time>2015-03-22T10:58:51Z</time>
      </trkpt>
      <trkpt lat="47.4334" lon="-0.47646">
        <ele>32.34</ele>
        <time>2015-03-22T10:58:52Z</time>
      </trkpt>
      <trkpt lat="47.43341" lon="-0.4765">
        <ele>32.34</ele>
        <time>2015-03-22T10:58:53Z</time>
      </trkpt>
      <trkpt lat="47.43341" lon="-0.47656">
        <ele>32.34</ele>
        <time>2015-03-22T10:58:54Z</time>
      </trkpt>
      <trkpt lat="47.43343" lon="-0.47662">
        <ele>31.86</ele>
        <time>2015-03-22T10:58:55Z</time>
      </trkpt>
      <trkpt lat="47.43344" lon="-0.47668">
        <ele>31.86</ele>
        <time>2015-03-22T10:58:56Z</time>
      </trkpt>
      <trkpt lat="47.43347" lon="-0.47674">
        <ele>31.38</ele>
        <time>2015-03-22T10:58:57Z</time>
      </trkpt>
      <trkpt lat="47.43349" lon="-0.47679">
        <ele>31.38</ele>
        <time>2015-03-22T10:58:58Z</time>
      </trkpt>
      <trkpt lat="47.43353" lon="-0.47684">
        <ele>30.9</ele>
        <time>2015-03-22T10:58:59Z</time>
      </trkpt>
      <trkpt lat="47.43356" lon="-0.47689">
        <ele>31.38</ele>
        <time>2015-03-22T10:59:00Z</time>
      </trkpt>
      <trkpt lat="47.43359" lon="-0.47694">
        <ele>31.38</ele>
        <time>2015-03-22T10:59:01Z</time>
      </trkpt>
      <trkpt lat="47.43371" lon="-0.47719">
        <ele>30.9</ele>
        <time>2015-03-22T10:59:05Z</time>
      </trkpt>
      <trkpt lat="47.43399" lon="-0.47764">
        <ele>29.94</ele>
        <time>2015-03-22T10:59:13Z</time>
      </trkpt>
      <trkpt lat="47.43443" lon="-0.47838">
        <ele>28.98</ele>
        <time>2015-03-22T10:59:26Z</time>
      </trkpt>
      <trkpt lat="47.43454" lon="-0.47855">
        <ele>29.46</ele>
        <time>2015-03-22T10:59:29Z</time>
      </trkpt>
      <trkpt lat="47.43458" lon="-0.47861">
        <ele>28.98</ele>
        <time>2015-03-22T10:59:30Z</time>
      </trkpt>
      <trkpt lat="47.43487" lon="-0.47898">
        <ele>29.46</ele>
        <time>2015-03-22T10:59:37Z</time>
      </trkpt>
      <trkpt lat="47.4349" lon="-0.47905">
        <ele>29.46</ele>
        <time>2015-03-22T10:59:38Z</time>
      </trkpt>
      <trkpt lat="47.43509" lon="-0.47948">
        <ele>28.98</ele>
        <time>2015-03-22T10:59:45Z</time>
      </trkpt>
      <trkpt lat="47.43548" lon="-0.48021">
        <ele>29.46</ele>
        <time>2015-03-22T10:59:59Z</time>
      </trkpt>
      <trkpt lat="47.43563" lon="-0.48043">
        <ele>29.46</ele>
        <time>2015-03-22T11:00:04Z</time>
      </trkpt>
      <trkpt lat="47.43592" lon="-0.48095">
        <ele>29.46</ele>
        <time>2015-03-22T11:00:16Z</time>
      </trkpt>
      <trkpt lat="47.43607" lon="-0.48113">
        <ele>28.98</ele>
        <time>2015-03-22T11:00:21Z</time>
      </trkpt>
      <trkpt lat="47.43611" lon="-0.48114">
        <ele>29.46</ele>
        <time>2015-03-22T11:00:22Z</time>
      </trkpt>
      <trkpt lat="47.43615" lon="-0.48114">
        <ele>28.98</ele>
        <time>2015-03-22T11:00:23Z</time>
      </trkpt>
      <trkpt lat="47.43618" lon="-0.48113">
        <ele>28.98</ele>
        <time>2015-03-22T11:00:24Z</time>
      </trkpt>
      <trkpt lat="47.43621" lon="-0.48111">
        <ele>28.98</ele>
        <time>2015-03-22T11:00:25Z</time>
      </trkpt>
      <trkpt lat="47.43624" lon="-0.48109">
        <ele>28.98</ele>
        <time>2015-03-22T11:00:26Z</time>
      </trkpt>
      <trkpt lat="47.43673" lon="-0.4808">
        <ele>29.46</ele>
        <time>2015-03-22T11:00:38Z</time>
      </trkpt>
      <trkpt lat="47.43739" lon="-0.48041">
        <ele>29.94</ele>
        <time>2015-03-22T11:00:53Z</time>
      </trkpt>
      <trkpt lat="47.43817" lon="-0.47995">
        <ele>28.98</ele>
        <time>2015-03-22T11:01:11Z</time>
      </trkpt>
      <trkpt lat="47.43821" lon="-0.47995">
        <ele>28.98</ele>
        <time>2015-03-22T11:01:12Z</time>
      </trkpt>
      <trkpt lat="47.43825" lon="-0.47997">
        <ele>28.98</ele>
        <time>2015-03-22T11:01:13Z</time>
      </trkpt>
      <trkpt lat="47.43829" lon="-0.48001">
        <ele>28.98</ele>
        <time>2015-03-22T11:01:14Z</time>
      </trkpt>
      <trkpt lat="47.43832" lon="-0.48006">
        <ele>28.98</ele>
        <time>2015-03-22T11:01:15Z</time>
      </trkpt>
      <trkpt lat="47.43835" lon="-0.48011">
        <ele>28.98</ele>
        <time>2015-03-22T11:01:16Z</time>
      </trkpt>
      <trkpt lat="47.43838" lon="-0.48015">
        <ele>28.98</ele>
        <time>2015-03-22T11:01:17Z</time>
      </trkpt>
      <trkpt lat="47.43888" lon="-0.48065">
        <ele>29.94</ele>
        <time>2015-03-22T11:01:30Z</time>
      </trkpt>
      <trkpt lat="47.43941" lon="-0.48119">
        <ele>29.46</ele>
        <time>2015-03-22T11:01:44Z</time>
      </trkpt>
      <trkpt lat="47.43974" lon="-0.48156">
        <ele>26.57</ele>
        <time>2015-03-22T11:01:53Z</time>
      </trkpt>
      <trkpt lat="47.43977" lon="-0.4816">
        <ele>31.86</ele>
        <time>2015-03-22T11:01:54Z</time>
      </trkpt>
      <trkpt lat="47.43984" lon="-0.4817">
        <ele>29.46</ele>
        <time>2015-03-22T11:01:56Z</time>
      </trkpt>
      <trkpt lat="47.44001" lon="-0.48199">
        <ele>28.98</ele>
        <time>2015-03-22T11:02:02Z</time>
      </trkpt>
      <trkpt lat="47.4404" lon="-0.48286">
        <ele>28.5</ele>
        <time>2015-03-22T11:02:17Z</time>
      </trkpt>
      <trkpt lat="47.44089" lon="-0.48364">
        <ele>28.98</ele>
        <time>2015-03-22T11:02:33Z</time>
      </trkpt>
      <trkpt lat="47.44114" lon="-0.48387">
        <ele>28.5</ele>
        <time>2015-03-22T11:02:44Z</time>
      </trkpt>
      <trkpt lat="47.44131" lon="-0.48403">
        <ele>28.5</ele>
        <time>2015-03-22T11:02:49Z</time>
      </trkpt>
      <trkpt lat="47.44147" lon="-0.48415">
        <ele>28.5</ele>
        <time>2015-03-22T11:02:53Z</time>
      </trkpt>
      <trkpt lat="47.44151" lon="-0.48419">
        <ele>28.98</ele>
        <time>2015-03-22T11:02:54Z</time>
      </trkpt>
      <trkpt lat="47.44154" lon="-0.48423">
        <ele>28.98</ele>
        <time>2015-03-22T11:02:55Z</time>
      </trkpt>
      <trkpt lat="47.44158" lon="-0.48426">
        <ele>28.98</ele>
        <time>2015-03-22T11:02:56Z</time>
      </trkpt>
      <trkpt lat="47.44183" lon="-0.48443">
        <ele>29.94</ele>
        <time>2015-03-22T11:03:02Z</time>
      </trkpt>
      <trkpt lat="47.442" lon="-0.48453">
        <ele>28.98</ele>
        <time>2015-03-22T11:03:09Z</time>
      </trkpt>
      <trkpt lat="47.44223" lon="-0.4847">
        <ele>28.98</ele>
        <time>2015-03-22T11:03:16Z</time>
      </trkpt>
      <trkpt lat="47.44227" lon="-0.48472">
        <ele>28.98</ele>
        <time>2015-03-22T11:03:17Z</time>
      </trkpt>
      <trkpt lat="47.44237" lon="-0.48474">
        <ele>28.98</ele>
        <time>2015-03-22T11:03:19Z</time>
      </trkpt>
      <trkpt lat="47.44242" lon="-0.48475">
        <ele>28.98</ele>
        <time>2015-03-22T11:03:20Z</time>
      </trkpt>
      <trkpt lat="47.44251" lon="-0.48472">
        <ele>28.98</ele>
        <time>2015-03-22T11:03:22Z</time>
      </trkpt>
      <trkpt lat="47.44255" lon="-0.4847">
        <ele>28.98</ele>
        <time>2015-03-22T11:03:23Z</time>
      </trkpt>
      <trkpt lat="47.44258" lon="-0.48467">
        <ele>28.5</ele>
        <time>2015-03-22T11:03:24Z</time>
      </trkpt>
      <trkpt lat="47.44273" lon="-0.4845">
        <ele>28.5</ele>
        <time>2015-03-22T11:03:28Z</time>
      </trkpt>
      <trkpt lat="47.44295" lon="-0.48427">
        <ele>28.5</ele>
        <time>2015-03-22T11:03:35Z</time>
      </trkpt>
      <trkpt lat="47.44297" lon="-0.48427">
        <ele>28.02</ele>
        <time>2015-03-22T11:03:36Z</time>
      </trkpt>
      <trkpt lat="47.44299" lon="-0.48428">
        <ele>28.5</ele>
        <time>2015-03-22T11:03:37Z</time>
      </trkpt>
      <trkpt lat="47.44301" lon="-0.48429">
        <ele>28.02</ele>
        <time>2015-03-22T11:03:38Z</time>
      </trkpt>
      <trkpt lat="47.44302" lon="-0.4843">
        <ele>28.02</ele>
        <time>2015-03-22T11:03:39Z</time>
      </trkpt>
      <trkpt lat="47.44304" lon="-0.48431">
        <ele>27.53</ele>
        <time>2015-03-22T11:03:40Z</time>
      </trkpt>
      <trkpt lat="47.4431" lon="-0.48436">
        <ele>27.53</ele>
        <time>2015-03-22T11:03:42Z</time>
      </trkpt>
      <trkpt lat="47.44321" lon="-0.48446">
        <ele>28.02</ele>
        <time>2015-03-22T11:03:45Z</time>
      </trkpt>
      <trkpt lat="47.44324" lon="-0.4845">
        <ele>27.53</ele>
        <time>2015-03-22T11:03:46Z</time>
      </trkpt>
      <trkpt lat="47.44331" lon="-0.48459">
        <ele>27.53</ele>
        <time>2015-03-22T11:03:48Z</time>
      </trkpt>
      <trkpt lat="47.44357" lon="-0.48485">
        <ele>28.5</ele>
        <time>2015-03-22T11:03:55Z</time>
      </trkpt>
      <trkpt lat="47.4436" lon="-0.48491">
        <ele>28.5</ele>
        <time>2015-03-22T11:03:56Z</time>
      </trkpt>
      <trkpt lat="47.44363" lon="-0.48497">
        <ele>28.02</ele>
        <time>2015-03-22T11:03:57Z</time>
      </trkpt>
      <trkpt lat="47.44381" lon="-0.48529">
        <ele>28.5</ele>
        <time>2015-03-22T11:04:03Z</time>
      </trkpt>
      <trkpt lat="47.44396" lon="-0.48546">
        <ele>28.98</ele>
        <time>2015-03-22T11:04:08Z</time>
      </trkpt>
      <trkpt lat="47.44439" lon="-0.48566">
        <ele>28.98</ele>
        <time>2015-03-22T11:04:18Z</time>
      </trkpt>
      <trkpt lat="47.44488" lon="-0.48592">
        <ele>28.98</ele>
        <time>2015-03-22T11:04:30Z</time>
      </trkpt>
      <trkpt lat="47.44515" lon="-0.48661">
        <ele>29.46</ele>
        <time>2015-03-22T11:04:41Z</time>
      </trkpt>
      <trkpt lat="47.44552" lon="-0.48743">
        <ele>29.46</ele>
        <time>2015-03-22T11:04:55Z</time>
      </trkpt>
      <trkpt lat="47.44555" lon="-0.48746">
        <ele>29.46</ele>
        <time>2015-03-22T11:04:56Z</time>
      </trkpt>
      <trkpt lat="47.44558" lon="-0.48748">
        <ele>28.98</ele>
        <time>2015-03-22T11:04:57Z</time>
      </trkpt>
      <trkpt lat="47.44562" lon="-0.48747">
        <ele>29.46</ele>
        <time>2015-03-22T11:04:58Z</time>
      </trkpt>
      <trkpt lat="47.44566" lon="-0.48745">
        <ele>28.98</ele>
        <time>2015-03-22T11:04:59Z</time>
      </trkpt>
      <trkpt lat="47.44611" lon="-0.48727">
        <ele>28.98</ele>
        <time>2015-03-22T11:05:11Z</time>
      </trkpt>
      <trkpt lat="47.44612" lon="-0.48729">
        <ele>28.98</ele>
        <time>2015-03-22T11:05:12Z</time>
      </trkpt>
      <trkpt lat="47.44614" lon="-0.48732">
        <ele>28.98</ele>
        <time>2015-03-22T11:05:13Z</time>
      </trkpt>
      <trkpt lat="47.44626" lon="-0.48773">
        <ele>29.46</ele>
        <time>2015-03-22T11:05:24Z</time>
      </trkpt>
      <trkpt lat="47.44634" lon="-0.48822">
        <ele>29.46</ele>
        <time>2015-03-22T11:05:31Z</time>
      </trkpt>
      <trkpt lat="47.44652" lon="-0.48881">
        <ele>30.42</ele>
        <time>2015-03-22T11:05:41Z</time>
      </trkpt>
      <trkpt lat="47.44668" lon="-0.4893">
        <ele>30.42</ele>
        <time>2015-03-22T11:05:49Z</time>
      </trkpt>
      <trkpt lat="47.44668" lon="-0.48937">
        <ele>30.42</ele>
        <time>2015-03-22T11:05:50Z</time>
      </trkpt>
      <trkpt lat="47.4467" lon="-0.48958">
        <ele>30.9</ele>
        <time>2015-03-22T11:05:53Z</time>
      </trkpt>
      <trkpt lat="47.44673" lon="-0.48972">
        <ele>29.94</ele>
        <time>2015-03-22T11:05:55Z</time>
      </trkpt>
      <trkpt lat="47.44692" lon="-0.49004">
        <ele>29.94</ele>
        <time>2015-03-22T11:06:02Z</time>
      </trkpt>
      <trkpt lat="47.44693" lon="-0.49009">
        <ele>29.46</ele>
        <time>2015-03-22T11:06:03Z</time>
      </trkpt>
      <trkpt lat="47.44694" lon="-0.49015">
        <ele>29.46</ele>
        <time>2015-03-22T11:06:04Z</time>
      </trkpt>
      <trkpt lat="47.44694" lon="-0.49021">
        <ele>29.46</ele>
        <time>2015-03-22T11:06:05Z</time>
      </trkpt>
      <trkpt lat="47.44696" lon="-0.49026">
        <ele>29.46</ele>
        <time>2015-03-22T11:06:06Z</time>
      </trkpt>
      <trkpt lat="47.44698" lon="-0.49031">
        <ele>29.94</ele>
        <time>2015-03-22T11:06:07Z</time>
      </trkpt>
      <trkpt lat="47.447" lon="-0.49035">
        <ele>29.94</ele>
        <time>2015-03-22T11:06:08Z</time>
      </trkpt>
      <trkpt lat="47.44704" lon="-0.49038">
        <ele>29.94</ele>
        <time>2015-03-22T11:06:09Z</time>
      </trkpt>
      <trkpt lat="47.4471" lon="-0.49044">
        <ele>29.94</ele>
        <time>2015-03-22T11:06:11Z</time>
      </trkpt>
      <trkpt lat="47.44713" lon="-0.49049">
        <ele>30.42</ele>
        <time>2015-03-22T11:06:12Z</time>
      </trkpt>
      <trkpt lat="47.44716" lon="-0.49054">
        <ele>29.94</ele>
        <time>2015-03-22T11:06:13Z</time>
      </trkpt>
      <trkpt lat="47.44717" lon="-0.4906">
        <ele>29.94</ele>
        <time>2015-03-22T11:06:14Z</time>
      </trkpt>
      <trkpt lat="47.44717" lon="-0.49065">
        <ele>29.94</ele>
        <time>2015-03-22T11:06:15Z</time>
      </trkpt>
      <trkpt lat="47.44718" lon="-0.49071">
        <ele>29.94</ele>
        <time>2015-03-22T11:06:16Z</time>
      </trkpt>
      <trkpt lat="47.4472" lon="-0.49077">
        <ele>29.94</ele>
        <time>2015-03-22T11:06:17Z</time>
      </trkpt>
      <trkpt lat="47.44724" lon="-0.49088">
        <ele>29.46</ele>
        <time>2015-03-22T11:06:19Z</time>
      </trkpt>
      <trkpt lat="47.44725" lon="-0.49095">
        <ele>29.46</ele>
        <time>2015-03-22T11:06:20Z</time>
      </trkpt>
      <trkpt lat="47.44725" lon="-0.49109">
        <ele>29.46</ele>
        <time>2015-03-22T11:06:22Z</time>
      </trkpt>
      <trkpt lat="47.44725" lon="-0.49117">
        <ele>28.5</ele>
        <time>2015-03-22T11:06:23Z</time>
      </trkpt>
      <trkpt lat="47.4473" lon="-0.49242">
        <ele>31.38</ele>
        <time>2015-03-22T11:06:39Z</time>
      </trkpt>
      <trkpt lat="47.44731" lon="-0.49249">
        <ele>31.38</ele>
        <time>2015-03-22T11:06:40Z</time>
      </trkpt>
      <trkpt lat="47.44735" lon="-0.49277">
        <ele>31.38</ele>
        <time>2015-03-22T11:06:45Z</time>
      </trkpt>
      <trkpt lat="47.44733" lon="-0.4928">
        <ele>31.38</ele>
        <time>2015-03-22T11:06:46Z</time>
      </trkpt>
      <trkpt lat="47.4473" lon="-0.49282">
        <ele>31.38</ele>
        <time>2015-03-22T11:06:47Z</time>
      </trkpt>
      <trkpt lat="47.44726" lon="-0.49283">
        <ele>30.9</ele>
        <time>2015-03-22T11:06:48Z</time>
      </trkpt>
      <trkpt lat="47.44721" lon="-0.49282">
        <ele>31.38</ele>
        <time>2015-03-22T11:06:49Z</time>
      </trkpt>
      <trkpt lat="47.44716" lon="-0.49282">
        <ele>31.38</ele>
        <time>2015-03-22T11:06:50Z</time>
      </trkpt>
      <trkpt lat="47.4471" lon="-0.49281">
        <ele>31.38</ele>
        <time>2015-03-22T11:06:51Z</time>
      </trkpt>
      <trkpt lat="47.44681" lon="-0.49276">
        <ele>30.9</ele>
        <time>2015-03-22T11:06:56Z</time>
      </trkpt>
      <trkpt lat="47.44675" lon="-0.49277">
        <ele>30.9</ele>
        <time>2015-03-22T11:06:57Z</time>
      </trkpt>
      <trkpt lat="47.44626" lon="-0.49289">
        <ele>29.94</ele>
        <time>2015-03-22T11:07:06Z</time>
      </trkpt>
      <trkpt lat="47.44621" lon="-0.4929">
        <ele>30.42</ele>
        <time>2015-03-22T11:07:07Z</time>
      </trkpt>
      <trkpt lat="47.44603" lon="-0.49294">
        <ele>30.42</ele>
        <time>2015-03-22T11:07:11Z</time>
      </trkpt>
      <trkpt lat="47.446" lon="-0.49298">
        <ele>30.42</ele>
        <time>2015-03-22T11:07:12Z</time>
      </trkpt>
      <trkpt lat="47.44599" lon="-0.49304">
        <ele>30.42</ele>
        <time>2015-03-22T11:07:13Z</time>
      </trkpt>
      <trkpt lat="47.44599" lon="-0.4931">
        <ele>30.9</ele>
        <time>2015-03-22T11:07:14Z</time>
      </trkpt>
      <trkpt lat="47.44599" lon="-0.49316">
        <ele>30.9</ele>
        <time>2015-03-22T11:07:15Z</time>
      </trkpt>
      <trkpt lat="47.44599" lon="-0.49323">
        <ele>30.42</ele>
        <time>2015-03-22T11:07:16Z</time>
      </trkpt>
      <trkpt lat="47.44599" lon="-0.4933">
        <ele>31.38</ele>
        <time>2015-03-22T11:07:17Z</time>
      </trkpt>
      <trkpt lat="47.44599" lon="-0.49337">
        <ele>31.86</ele>
        <time>2015-03-22T11:07:18Z</time>
      </trkpt>
      <trkpt lat="47.44598" lon="-0.49426">
        <ele>31.38</ele>
        <time>2015-03-22T11:07:31Z</time>
      </trkpt>
      <trkpt lat="47.44598" lon="-0.4944">
        <ele>31.86</ele>
        <time>2015-03-22T11:07:33Z</time>
      </trkpt>
      <trkpt lat="47.44597" lon="-0.49495">
        <ele>31.38</ele>
        <time>2015-03-22T11:07:41Z</time>
      </trkpt>
      <trkpt lat="47.44597" lon="-0.49502">
        <ele>31.38</ele>
        <time>2015-03-22T11:07:42Z</time>
      </trkpt>
      <trkpt lat="47.44597" lon="-0.49524">
        <ele>31.86</ele>
        <time>2015-03-22T11:07:45Z</time>
      </trkpt>
      <trkpt lat="47.44597" lon="-0.49531">
        <ele>32.34</ele>
        <time>2015-03-22T11:07:46Z</time>
      </trkpt>
      <trkpt lat="47.44599" lon="-0.49538">
        <ele>32.34</ele>
        <time>2015-03-22T11:07:47Z</time>
      </trkpt>
      <trkpt lat="47.4462" lon="-0.49658">
        <ele>30.9</ele>
        <time>2015-03-22T11:08:04Z</time>
      </trkpt>
      <trkpt lat="47.44631" lon="-0.49706">
        <ele>31.86</ele>
        <time>2015-03-22T11:08:11Z</time>
      </trkpt>
      <trkpt lat="47.44639" lon="-0.49742">
        <ele>31.38</ele>
        <time>2015-03-22T11:08:16Z</time>
      </trkpt>
      <trkpt lat="47.44646" lon="-0.49777">
        <ele>31.38</ele>
        <time>2015-03-22T11:08:22Z</time>
      </trkpt>
      <trkpt lat="47.44647" lon="-0.4978">
        <ele>30.9</ele>
        <time>2015-03-22T11:08:23Z</time>
      </trkpt>
      <trkpt lat="47.44648" lon="-0.49783">
        <ele>31.38</ele>
        <time>2015-03-22T11:08:24Z</time>
      </trkpt>
      <trkpt lat="47.44649" lon="-0.49787">
        <ele>31.38</ele>
        <time>2015-03-22T11:08:25Z</time>
      </trkpt>
      <trkpt lat="47.4465" lon="-0.49792">
        <ele>30.9</ele>
        <time>2015-03-22T11:08:26Z</time>
      </trkpt>
      <trkpt lat="47.44672" lon="-0.49887">
        <ele>31.38</ele>
        <time>2015-03-22T11:08:42Z</time>
      </trkpt>
      <trkpt lat="47.44718" lon="-0.49972">
        <ele>32.34</ele>
        <time>2015-03-22T11:08:58Z</time>
      </trkpt>
      <trkpt lat="47.44722" lon="-0.49976">
        <ele>31.86</ele>
        <time>2015-03-22T11:08:59Z</time>
      </trkpt>
      <trkpt lat="47.44726" lon="-0.49979">
        <ele>32.34</ele>
        <time>2015-03-22T11:09:00Z</time>
      </trkpt>
      <trkpt lat="47.4473" lon="-0.49981">
        <ele>31.86</ele>
        <time>2015-03-22T11:09:01Z</time>
      </trkpt>
      <trkpt lat="47.44734" lon="-0.49982">
        <ele>32.34</ele>
        <time>2015-03-22T11:09:02Z</time>
      </trkpt>
      <trkpt lat="47.44738" lon="-0.49982">
        <ele>31.86</ele>
        <time>2015-03-22T11:09:03Z</time>
      </trkpt>
      <trkpt lat="47.44742" lon="-0.49981">
        <ele>31.86</ele>
        <time>2015-03-22T11:09:04Z</time>
      </trkpt>
      <trkpt lat="47.44746" lon="-0.49981">
        <ele>31.86</ele>
        <time>2015-03-22T11:09:05Z</time>
      </trkpt>
      <trkpt lat="47.44751" lon="-0.49981">
        <ele>31.86</ele>
        <time>2015-03-22T11:09:06Z</time>
      </trkpt>
      <trkpt lat="47.44755" lon="-0.49983">
        <ele>32.34</ele>
        <time>2015-03-22T11:09:07Z</time>
      </trkpt>
      <trkpt lat="47.44759" lon="-0.49986">
        <ele>31.86</ele>
        <time>2015-03-22T11:09:08Z</time>
      </trkpt>
      <trkpt lat="47.44763" lon="-0.49989">
        <ele>31.86</ele>
        <time>2015-03-22T11:09:09Z</time>
      </trkpt>
      <trkpt lat="47.44794" lon="-0.50018">
        <ele>32.34</ele>
        <time>2015-03-22T11:09:17Z</time>
      </trkpt>
      <trkpt lat="47.44797" lon="-0.50024">
        <ele>32.34</ele>
        <time>2015-03-22T11:09:18Z</time>
      </trkpt>
      <trkpt lat="47.44799" lon="-0.5003">
        <ele>31.86</ele>
        <time>2015-03-22T11:09:19Z</time>
      </trkpt>
      <trkpt lat="47.44801" lon="-0.50037">
        <ele>32.34</ele>
        <time>2015-03-22T11:09:20Z</time>
      </trkpt>
      <trkpt lat="47.44803" lon="-0.50044">
        <ele>32.34</ele>
        <time>2015-03-22T11:09:21Z</time>
      </trkpt>
      <trkpt lat="47.44817" lon="-0.50083">
        <ele>31.38</ele>
        <time>2015-03-22T11:09:27Z</time>
      </trkpt>
      <trkpt lat="47.44821" lon="-0.50088">
        <ele>31.38</ele>
        <time>2015-03-22T11:09:28Z</time>
      </trkpt>
      <trkpt lat="47.44825" lon="-0.50092">
        <ele>31.86</ele>
        <time>2015-03-22T11:09:29Z</time>
      </trkpt>
      <trkpt lat="47.44875" lon="-0.50138">
        <ele>32.34</ele>
        <time>2015-03-22T11:09:42Z</time>
      </trkpt>
      <trkpt lat="47.44874" lon="-0.50142">
        <ele>32.34</ele>
        <time>2015-03-22T11:09:43Z</time>
      </trkpt>
      <trkpt lat="47.44868" lon="-0.50174">
        <ele>33.3</ele>
        <time>2015-03-22T11:09:49Z</time>
      </trkpt>
      <trkpt lat="47.4487" lon="-0.50203">
        <ele>32.34</ele>
        <time>2015-03-22T11:09:57Z</time>
      </trkpt>
      <trkpt lat="47.4487" lon="-0.50206">
        <ele>32.34</ele>
        <time>2015-03-22T11:09:58Z</time>
      </trkpt>
      <trkpt lat="47.4487" lon="-0.50209">
        <ele>32.34</ele>
        <time>2015-03-22T11:09:59Z</time>
      </trkpt>
      <trkpt lat="47.44868" lon="-0.50217">
        <ele>31.38</ele>
        <time>2015-03-22T11:10:06Z</time>
      </trkpt>
      <trkpt lat="47.44868" lon="-0.50219">
        <ele>31.38</ele>
        <time>2015-03-22T11:10:07Z</time>
      </trkpt>
      <trkpt lat="47.44868" lon="-0.50222">
        <ele>31.38</ele>
        <time>2015-03-22T11:10:08Z</time>
      </trkpt>
      <trkpt lat="47.44868" lon="-0.50226">
        <ele>31.38</ele>
        <time>2015-03-22T11:10:09Z</time>
      </trkpt>
      <trkpt lat="47.44868" lon="-0.50229">
        <ele>31.86</ele>
        <time>2015-03-22T11:10:10Z</time>
      </trkpt>
      <trkpt lat="47.44869" lon="-0.50234">
        <ele>31.86</ele>
        <time>2015-03-22T11:10:11Z</time>
      </trkpt>
      <trkpt lat="47.4487" lon="-0.50238">
        <ele>31.86</ele>
        <time>2015-03-22T11:10:12Z</time>
      </trkpt>
      <trkpt lat="47.44876" lon="-0.5027">
        <ele>32.82</ele>
        <time>2015-03-22T11:10:20Z</time>
      </trkpt>
      <trkpt lat="47.44874" lon="-0.50274">
        <ele>32.82</ele>
        <time>2015-03-22T11:10:21Z</time>
      </trkpt>
      <trkpt lat="47.44871" lon="-0.50276">
        <ele>32.82</ele>
        <time>2015-03-22T11:10:22Z</time>
      </trkpt>
      <trkpt lat="47.44868" lon="-0.50278">
        <ele>32.82</ele>
        <time>2015-03-22T11:10:23Z</time>
      </trkpt>
      <trkpt lat="47.44865" lon="-0.50281">
        <ele>32.34</ele>
        <time>2015-03-22T11:10:24Z</time>
      </trkpt>
      <trkpt lat="47.44862" lon="-0.50284">
        <ele>32.34</ele>
        <time>2015-03-22T11:10:25Z</time>
      </trkpt>
      <trkpt lat="47.44859" lon="-0.50287">
        <ele>32.34</ele>
        <time>2015-03-22T11:10:26Z</time>
      </trkpt>
      <trkpt lat="47.44848" lon="-0.50306">
        <ele>31.86</ele>
        <time>2015-03-22T11:10:31Z</time>
      </trkpt>
      <trkpt lat="47.44848" lon="-0.50311">
        <ele>31.86</ele>
        <time>2015-03-22T11:10:32Z</time>
      </trkpt>
      <trkpt lat="47.44849" lon="-0.50317">
        <ele>31.86</ele>
        <time>2015-03-22T11:10:33Z</time>
      </trkpt>
      <trkpt lat="47.4485" lon="-0.50323">
        <ele>31.38</ele>
        <time>2015-03-22T11:10:34Z</time>
      </trkpt>
      <trkpt lat="47.44851" lon="-0.50329">
        <ele>31.86</ele>
        <time>2015-03-22T11:10:35Z</time>
      </trkpt>
      <trkpt lat="47.44852" lon="-0.50334">
        <ele>31.38</ele>
        <time>2015-03-22T11:10:36Z</time>
      </trkpt>
      <trkpt lat="47.44851" lon="-0.50339">
        <ele>31.86</ele>
        <time>2015-03-22T11:10:37Z</time>
      </trkpt>
      <trkpt lat="47.44843" lon="-0.50345">
        <ele>32.34</ele>
        <time>2015-03-22T11:10:40Z</time>
      </trkpt>
      <trkpt lat="47.44822" lon="-0.50358">
        <ele>31.86</ele>
        <time>2015-03-22T11:10:49Z</time>
      </trkpt>
      <trkpt lat="47.44815" lon="-0.50408">
        <ele>31.86</ele>
        <time>2015-03-22T11:11:00Z</time>
      </trkpt>
      <trkpt lat="47.44814" lon="-0.50429">
        <ele>32.34</ele>
        <time>2015-03-22T11:11:04Z</time>
      </trkpt>
      <trkpt lat="47.44796" lon="-0.50456">
        <ele>33.3</ele>
        <time>2015-03-22T11:11:15Z</time>
      </trkpt>
      <trkpt lat="47.44792" lon="-0.50461">
        <ele>32.34</ele>
        <time>2015-03-22T11:11:17Z</time>
      </trkpt>
      <trkpt lat="47.44749" lon="-0.50491">
        <ele>32.82</ele>
        <time>2015-03-22T11:11:32Z</time>
      </trkpt>
      <trkpt lat="47.44732" lon="-0.50504">
        <ele>33.3</ele>
        <time>2015-03-22T11:11:38Z</time>
      </trkpt>
      <trkpt lat="47.44728" lon="-0.50509">
        <ele>30.42</ele>
        <time>2015-03-22T11:11:43Z</time>
      </trkpt>
      <trkpt lat="47.44728" lon="-0.50509">
        <ele>34.26</ele>
        <time>2015-03-22T11:11:44Z</time>
      </trkpt>
      <trkpt lat="47.44728" lon="-0.50509">
        <ele>32.82</ele>
        <time>2015-03-22T11:11:48Z</time>
      </trkpt>
      <trkpt lat="47.44731" lon="-0.5051">
        <ele>32.82</ele>
        <time>2015-03-22T11:12:05Z</time>
      </trkpt>
      <trkpt lat="47.4473" lon="-0.50511">
        <ele>32.82</ele>
        <time>2015-03-22T11:12:29Z</time>
      </trkpt>
      <trkpt lat="47.44726" lon="-0.50512">
        <ele>32.34</ele>
        <time>2015-03-22T11:12:57Z</time>
      </trkpt>
      <trkpt lat="47.44732" lon="-0.50507">
        <ele>32.82</ele>
        <time>2015-03-22T11:13:33Z</time>
      </trkpt>
      <trkpt lat="47.44733" lon="-0.5051">
        <ele>32.34</ele>
        <time>2015-03-22T11:13:46Z</time>
      </trkpt>
      <trkpt lat="47.44733" lon="-0.50503">
        <ele>32.82</ele>
        <time>2015-03-22T11:14:01Z</time>
      </trkpt>
      <trkpt lat="47.44736" lon="-0.50501">
        <ele>33.3</ele>
        <time>2015-03-22T11:14:08Z</time>
      </trkpt>
      <trkpt lat="47.4474" lon="-0.50498">
        <ele>32.82</ele>
        <time>2015-03-22T11:14:10Z</time>
      </trkpt>
      <trkpt lat="47.44764" lon="-0.50478">
        <ele>33.78</ele>
        <time>2015-03-22T11:14:24Z</time>
      </trkpt>
      <trkpt lat="47.44766" lon="-0.50479">
        <ele>33.3</ele>
        <time>2015-03-22T11:14:36Z</time>
      </trkpt>
      <trkpt lat="47.44768" lon="-0.5048">
        <ele>33.3</ele>
        <time>2015-03-22T11:14:50Z</time>
      </trkpt>
      <trkpt lat="47.44776" lon="-0.50474">
        <ele>33.3</ele>
        <time>2015-03-22T11:15:02Z</time>
      </trkpt>
      <trkpt lat="47.44794" lon="-0.50459">
        <ele>30.42</ele>
        <time>2015-03-22T11:15:13Z</time>
      </trkpt>
      <trkpt lat="47.44795" lon="-0.50457">
        <ele>35.23</ele>
        <time>2015-03-22T11:15:14Z</time>
      </trkpt>
      <trkpt lat="47.44796" lon="-0.50455">
        <ele>31.86</ele>
        <time>2015-03-22T11:15:15Z</time>
      </trkpt>
      <trkpt lat="47.44803" lon="-0.50437">
        <ele>32.34</ele>
        <time>2015-03-22T11:15:25Z</time>
      </trkpt>
      <trkpt lat="47.44813" lon="-0.50415">
        <ele>32.82</ele>
        <time>2015-03-22T11:15:37Z</time>
      </trkpt>
    </trkseg>
  </trk>
</gpx>